Date StartTime U_cm/s V_cm/s W_cm/s Ustd_cm/s Vstd_cm/s Wstd_cm/s Uvar_(cm/s)^2 Vvar_(cm/s)^2 Wvar_(cm/s)^2 KE_(m/s)^2 TurbulentKE_(m/s)^2 HorizWindSpeed_cm/s FrictionSpeec_cm/s DragCoef SpeedOfSound_m/s SonicTemperature_C Pressure_mb 
10/11/2013  00:00:00      -19.829       52.375       -6.040       33.084       20.147       14.086     1094.522      405.918      198.424        0.244        0.085       56.003       13.653        0.059      338.875       11.825      860.326
10/11/2013  00:01:00       77.615       64.571        3.986       31.779       21.599       22.508     1009.920      466.524      506.607        0.610        0.099      100.963       17.372        0.030      338.751       11.614      860.317
10/11/2013  00:02:00       76.345       65.871        7.120       33.667       26.162       24.721     1133.465      684.450      611.141        0.632        0.121      100.835       13.797        0.019      338.698       11.526      860.313
10/11/2013  00:03:00       22.941       41.824        5.272       32.829       39.692       26.994     1077.755     1575.436      728.651        0.284        0.169       47.702       24.490        0.264      338.619       11.393      860.323
10/11/2013  00:04:00       18.720       36.540       -4.373       19.466       28.880       15.273      378.940      834.037      233.268        0.158        0.072       41.056       10.931        0.071      338.686       11.504      860.328
10/11/2013  00:05:00       12.121       53.964       -6.040       18.026       40.093       17.573      324.940     1607.431      308.799        0.267        0.112       55.309       18.261        0.109      338.611       11.381      860.329
10/11/2013  00:06:00      -18.253       24.094       -5.968       11.237       29.687       10.435      126.280      881.305      108.891        0.103        0.056       30.227       12.108        0.160      338.643       11.433      860.333
10/11/2013  00:07:00      -55.396       34.094       -9.476       33.479       36.555       13.483     1120.820     1336.250      181.783        0.348        0.132       65.047       10.685        0.027      338.538       11.258      860.336
10/11/2013  00:08:00      -52.102       41.836      -11.007       22.631       25.273       12.059      512.155      638.710      145.429        0.294        0.065       66.819       12.114        0.033      338.529       11.243      860.350
10/11/2013  00:09:00      -47.496       45.076      -10.141       22.317       31.971       15.262      498.052     1022.127      232.944        0.307        0.088       65.481       15.270        0.054      338.535       11.252      860.363
10/11/2013  00:10:00      -56.983        2.601       -4.384       23.768       24.727       17.721      564.934      611.401      314.041        0.238        0.075       57.043       13.492        0.056      338.517       11.222      860.374
10/11/2013  00:11:00      -68.938       11.414       -8.143       63.670       21.050       13.161     4053.832      443.100      173.221        0.481        0.234       69.877       12.168        0.030      338.437       11.088      860.378
10/11/2013  00:12:00     -227.859       -8.290      -26.737       28.718       30.147       19.307      824.748      908.871      372.767        2.740        0.105      228.010       17.103        0.006      338.037       10.412      860.388
10/11/2013  00:13:00     -193.436       14.032      -19.508       29.492       29.489       20.787      869.760      869.630      432.091        2.008        0.109      193.944       17.918        0.009      337.966       10.298      860.395
10/11/2013  00:14:00     -154.556        6.345      -17.675       30.624       38.812       20.272      937.839     1506.381      410.967        1.355        0.143      154.686        6.180        0.002      337.874       10.143      860.399
10/11/2013  00:15:00     -149.070      -39.543      -21.436       42.954       59.741       27.086     1845.072     3568.950      733.677        1.520        0.307      154.225       21.229        0.019      337.811       10.035      860.405
10/11/2013  00:16:00     -106.668      -12.677      -20.006       43.788       32.822       23.339     1917.420     1077.315      544.700        0.774        0.177      107.419       11.886        0.012      337.711        9.870      860.410
10/11/2013  00:17:00      -94.435       14.472      -10.698       47.213       38.279       29.379     2229.101     1465.255      863.143        0.690        0.228       95.538       17.847        0.035      337.647        9.763      860.411
10/11/2013  00:18:00     -129.332       -9.702      -15.991       48.471       48.768       23.916     2349.406     2378.323      571.959        1.119        0.265      129.695       24.711        0.036      337.570        9.634      860.423
10/11/2013  00:19:00     -137.840        9.147      -27.349       25.016       36.069       25.660      625.799     1300.991      658.461        1.121        0.129      138.143       16.442        0.014      337.616        9.709      860.414
10/11/2013  00:20:00      -93.603      -53.858       -4.236       49.188       52.362       32.230     2419.432     2741.739     1038.770        0.894        0.310      107.992       22.212        0.042      337.626        9.728      860.421
10/11/2013  00:21:00      -92.696       -9.901       -2.710       62.023       51.096       25.025     3846.798     2610.831      626.244        0.789        0.354       93.223       28.182        0.091      337.594        9.674      860.425
10/11/2013  00:22:00     -132.881      -41.946       -5.807       43.694       52.546       27.875     1909.128     2761.132      777.008        1.245        0.272      139.344       20.636        0.022      337.598        9.680      860.430
10/11/2013  00:23:00     -153.025      -35.464      -10.282       46.024       43.811       28.355     2118.169     1919.398      803.993        1.481        0.242      157.081       22.880        0.021      337.522        9.552      860.438
10/11/2013  00:24:00     -179.498      -29.412      -16.761       42.140       46.065       24.156     1775.793     2121.994      583.518        1.892        0.224      181.892       22.402        0.015      337.492        9.501      860.455
10/11/2013  00:25:00     -178.454      -36.026       -1.717       45.290       36.539       24.414     2051.157     1335.068      596.029        1.856        0.199      182.054       22.581        0.015      337.497        9.510      860.462
10/11/2013  00:26:00     -192.798      -85.018       -1.626       66.818       40.111       30.588     4464.627     1608.868      935.642        2.570        0.350      210.711       34.029        0.026      337.477        9.476      860.482
10/11/2013  00:27:00     -169.785      -55.265       -9.638       87.845       49.103       32.252     7716.666     2411.082     1040.170        2.157        0.558      178.553       36.937        0.043      337.453        9.433      860.494
10/11/2013  00:28:00     -208.358      -32.870      -22.230       59.432       48.133       27.943     3532.169     2316.804      780.837        2.581        0.331      210.935       25.797        0.015      337.512        9.535      860.495
10/11/2013  00:29:00     -127.132       10.893       -5.546       49.238       42.962       27.366     2424.418     1845.751      748.881        1.066        0.251      127.597       27.843        0.048      337.535        9.575      860.488
10/11/2013  00:30:00     -180.070       28.826      -23.471       39.649       50.686       25.547     1572.071     2569.045      652.639        1.930        0.240      182.362       15.100        0.007      337.636        9.743      860.483
10/11/2013  00:31:00     -179.919       43.376      -21.018       42.700       41.807       26.831     1823.307     1747.844      719.895        1.949        0.215      185.074       23.370        0.016      337.751        9.935      860.463
10/11/2013  00:32:00     -112.491       25.860      -13.258       56.818       59.324       29.037     3228.292     3519.280      843.162        1.054        0.380      115.425       29.636        0.066      337.754        9.944      860.447
10/11/2013  00:33:00     -126.621        3.882      -14.899       40.910       37.871       25.009     1673.660     1434.249      625.443        1.000        0.187      126.681       22.593        0.032      337.744        9.925      860.443
10/11/2013  00:34:00     -106.034      -22.436      -26.591       42.952       38.270       27.676     1844.894     1464.581      765.985        0.826        0.204      108.381       24.156        0.050      337.807       10.031      860.447
10/11/2013  00:35:00      -78.136      -11.172       -9.547       41.862       42.451       31.159     1752.455     1802.053      970.913        0.542        0.226       78.930       21.490        0.074      337.875       10.144      860.443
10/11/2013  00:36:00     -205.520     -127.579      -17.610       51.213       62.101       26.604     2622.781     3856.482      707.786        3.300        0.359      241.898       12.959        0.003      337.687        9.824      860.466
10/11/2013  00:37:00     -157.725      -28.233       -1.067       71.930       59.282       36.574     5173.860     3514.376     1337.645        1.785        0.501      160.232       36.435        0.052      337.678        9.813      860.484
10/11/2013  00:38:00     -154.134      -45.601      -10.307       48.763       39.635       28.310     2377.840     1570.934      801.435        1.535        0.238      160.738       14.627        0.008      337.723        9.890      860.472
10/11/2013  00:39:00     -114.571      -61.182      -11.011       26.459       32.308       20.934      700.096     1043.786      438.220        0.959        0.109      129.884        6.249        0.002      337.687        9.829      860.482
10/11/2013  00:40:00     -172.680      -86.256      -12.382       48.882       30.850       24.354     2389.486      951.732      593.137        2.067        0.197      193.024       20.325        0.011      337.662        9.787      860.485
10/11/2013  00:41:00     -211.053      -45.651      -10.999       55.476       38.353       28.534     3077.613     1470.925      814.192        2.605        0.268      215.934       29.147        0.018      337.849       10.098      860.499
10/11/2013  00:42:00     -109.445      -71.335       -0.872       63.330       50.107       30.760     4010.669     2510.746      946.201        1.227        0.373      130.641       34.372        0.069      337.823       10.057      860.512
10/11/2013  00:43:00     -105.217      -95.809        8.865       43.887       41.436       26.920     1926.039     1716.904      724.665        1.235        0.218      142.302       26.256        0.034      337.873       10.141      860.513
10/11/2013  00:44:00     -117.141      -37.062       -2.071       68.547       41.364       27.463     4698.754     1711.012      754.242        1.113        0.358      122.864       33.455        0.074      337.819       10.051      860.516
10/11/2013  00:45:00     -147.551      -30.690       -8.204       50.536       44.606       30.158     2553.842     1989.705      909.496        1.412        0.273      150.709       30.015        0.040      337.735        9.908      860.518
10/11/2013  00:46:00     -109.362      -12.748        3.491       75.694       44.539       28.072     5729.527     1983.682      788.018        1.032        0.425      110.102       30.402        0.076      337.784        9.990      860.521
10/11/2013  00:47:00     -127.253      -24.066        6.550       34.955       57.649       27.321     1221.821     3323.458      746.437        1.105        0.265      129.509       21.986        0.029      337.775        9.977      860.516
10/11/2013  00:48:00     -163.088      -24.625      -13.091       60.799       40.268       31.166     3696.478     1621.509      971.327        1.683        0.314      164.937       33.212        0.041      337.828       10.065      860.522
10/11/2013  00:49:00     -189.806      -28.602      -17.717       45.618       31.265       27.158     2080.969      977.518      737.573        2.048        0.190      191.949       22.924        0.014      337.683        9.823      860.543
10/11/2013  00:50:00     -159.410      -34.633       -8.321       58.342       46.989       35.897     3403.743     2207.968     1288.562        1.679        0.345      163.128       36.800        0.051      337.615        9.708      860.561
10/11/2013  00:51:00     -154.683        4.973      -19.482       33.515       33.233       18.968     1123.246     1104.418      359.776        1.346        0.129      154.763       15.966        0.011      337.671        9.802      860.563
10/11/2013  00:52:00     -140.278       35.801       -8.032       37.846       31.107       19.980     1432.314      967.667      399.183        1.191        0.140      144.774       16.486        0.013      337.717        9.881      860.582
10/11/2013  00:53:00     -121.174       19.768       -8.205       45.356       19.462       15.477     2057.162      378.772      239.552        0.891        0.134      122.776       13.230        0.012      337.889       10.169      860.593
10/11/2013  00:54:00     -126.836      -18.995      -12.785       34.484       43.124       22.071     1189.144     1859.700      487.144        1.007        0.177      128.250       19.649        0.023      337.842       10.089      860.590
10/11/2013  00:55:00      -98.769        2.747       -9.528       17.218       19.520       13.290      296.464      381.021      176.615        0.535        0.043       98.807       11.024        0.012      337.705        9.860      860.597
10/11/2013  00:56:00      -78.887      -21.227       -5.029       30.219       27.378       19.687      913.180      749.562      387.562        0.437        0.103       81.693       12.958        0.025      337.629        9.732      860.610
10/11/2013  00:57:00      -77.814      -39.844        0.143       44.513       24.247       15.840     1981.418      587.926      250.897        0.523        0.141       87.422       18.453        0.045      337.673        9.805      860.629
10/11/2013  00:58:00      -43.747      -37.163        1.438       41.361       29.288       13.967     1710.728      857.790      195.083        0.303        0.138       57.401       17.198        0.090      337.727        9.896      860.638
10/11/2013  00:59:00      -37.110      -38.610       10.656       34.373       30.175       17.349     1181.526      910.510      300.991        0.269        0.120       53.553       18.615        0.121      337.806       10.029      860.653
10/11/2013  01:00:00      -56.675       -5.705       -7.322       31.547       21.911       16.653      995.241      480.088      277.313        0.253        0.088       56.962       11.882        0.044      337.645        9.759      860.678
10/11/2013  01:01:00      -40.051       -4.369       -4.285       21.354       23.975       13.001      456.005      574.810      169.024        0.142        0.060       40.288       11.384        0.080      337.499        9.514      860.688
10/11/2013  01:02:00      -49.112       -3.396       -5.869       29.619       24.827       19.956      877.294      616.379      398.249        0.217        0.095       49.229       17.526        0.127      337.561        9.620      860.682
10/11/2013  01:03:00       18.545        2.781        7.766       20.669        7.511        8.496      427.225       56.410       72.187        0.048        0.028       18.753        7.374        0.155      337.538        9.580      860.674
10/11/2013  01:04:00      -18.168       -1.527       -9.336       23.218       10.496        8.662      539.070      110.176       75.032        0.057        0.036       18.232       10.022        0.302      337.594        9.673      860.676
10/11/2013  01:05:00      -34.566       -3.878       -1.205       19.891       17.638       10.566      395.633      311.100      111.642        0.101        0.041       34.783        6.546        0.035      337.784        9.992      860.687
10/11/2013  01:06:00      -69.996      -50.629       -4.077       24.143       29.200       15.219      582.860      852.628      231.633        0.457        0.083       86.387        7.259        0.007      337.791       10.002      860.701
10/11/2013  01:07:00      -68.397       -6.499       -4.778       19.519       25.199       12.925      380.976      634.978      167.063        0.296        0.059       68.705        8.047        0.014      337.575        9.643      860.700
10/11/2013  01:08:00      -66.641       -9.279       -0.112       22.237       20.591       15.530      494.484      423.978      241.191        0.284        0.058       67.284       12.963        0.037      337.550        9.599      860.698
10/11/2013  01:09:00      -64.758      -13.334       -2.109       21.881       23.886       17.794      478.779      570.533      316.612        0.287        0.068       66.117       14.695        0.049      337.498        9.512      860.694
10/11/2013  01:10:00      -44.809      -34.290       -1.753       35.381       21.227       12.706     1251.844      450.584      161.448        0.252        0.093       56.424       16.043        0.081      337.663        9.789      860.691
10/11/2013  01:11:00      -65.216      -23.662       -4.832       19.861       26.177       11.583      394.472      685.240      134.158        0.302        0.061       69.376        9.531        0.019      337.646        9.761      860.689
10/11/2013  01:12:00      -57.070      -45.903       -0.941       23.397       24.863       16.302      547.432      618.153      265.764        0.340        0.072       73.240       15.236        0.043      337.667        9.795      860.682
10/11/2013  01:13:00      -29.193      -13.254       10.962       39.642       23.621       15.679     1571.514      557.929      245.827        0.176        0.119       32.061       14.246        0.197      337.627        9.730      860.671
10/11/2013  01:14:00      -62.352      -31.211        3.895       34.991       17.709       14.965     1224.358      313.591      223.958        0.332        0.088       69.727       17.321        0.062      337.674        9.808      860.658
10/11/2013  01:15:00      -67.666      -19.633        0.221       25.968       18.590       12.979      674.321      345.574      168.467        0.308        0.059       70.457       13.159        0.035      337.600        9.684      860.649
10/11/2013  01:16:00      -76.118      -12.430       -4.240       21.922       19.693       14.602      480.585      387.798      213.215        0.352        0.054       77.127       13.178        0.029      337.572        9.636      860.650
10/11/2013  01:17:00      -70.473       -5.460        5.007       44.928       25.633       19.142     2018.542      657.071      366.425        0.403        0.152       70.684       20.652        0.085      337.450        9.431      860.650
10/11/2013  01:18:00      -58.775      -17.179       -0.099       24.458       19.889       15.104      598.197      395.585      228.144        0.249        0.061       61.235       14.153        0.053      337.302        9.184      860.651
10/11/2013  01:19:00      -70.372       -3.758       -9.764       16.538       12.458        8.906      273.515      155.190       79.314        0.278        0.025       70.472        7.353        0.011      337.319        9.213      860.644
10/11/2013  01:20:00      -72.611      -11.613       -3.193       18.354       16.010       12.561      336.874      256.323      157.777        0.308        0.038       73.534        9.803        0.018      337.284        9.154      860.640
10/11/2013  01:21:00      -65.034      -13.950       -8.280       20.370       14.968       10.847      414.944      224.027      117.660        0.262        0.038       66.514       10.837        0.027      337.274        9.138      860.634
10/11/2013  01:22:00      -75.767       -2.959       -6.184       17.398       14.667       11.697      302.696      215.124      136.815        0.322        0.033       75.825       11.257        0.022      337.327        9.228      860.632
10/11/2013  01:23:00      -72.746      -18.781       -6.070       10.187       16.474        9.195      103.780      271.382       84.556        0.307        0.023       75.131        4.997        0.004      337.354        9.271      860.628
10/11/2013  01:24:00      -73.806      -21.779       -8.845       15.068       12.203        8.743      227.049      148.917       76.443        0.323        0.023       76.952        7.232        0.009      337.321        9.216      860.642
10/11/2013  01:25:00      -68.181       -9.803       -6.619       16.151       13.629       12.596      260.848      185.747      158.666        0.270        0.030       68.882        8.809        0.016      337.205        9.021      860.645
10/11/2013  01:26:00      -65.964       -0.993       -9.136       13.641       10.409        8.578      186.078      108.347       73.576        0.240        0.018       65.971        3.572        0.003      337.108        8.858      860.646
10/11/2013  01:27:00      -89.148       12.840      -11.900       36.074       21.598       13.021     1301.310      466.462      169.541        0.510        0.097       90.068       13.673        0.023      336.965        8.619      860.648
10/11/2013  01:28:00     -109.180       36.150      -18.732       21.317       26.375       15.230      454.415      695.632      231.941        0.748        0.069      115.009       11.241        0.010      336.923        8.549      860.656
10/11/2013  01:29:00      -88.218       10.308      -12.586       18.279       20.065       11.318      334.130      402.624      128.095        0.446        0.043       88.818        6.185        0.005      337.021        8.712      860.649
10/11/2013  01:30:00     -103.090       13.403      -15.202       36.171       30.654       13.596     1308.372      939.655      184.851        0.674        0.122      103.958        8.566        0.007      337.117        8.874      860.640
10/11/2013  01:31:00      -46.755       27.255       -5.933       67.074       22.384       18.056     4498.954      501.055      326.035        0.414        0.266       54.119       26.602        0.242      337.215        9.039      860.637
10/11/2013  01:32:00     -115.580       29.227       -7.316       29.697       27.761       14.593      881.918      770.660      212.956        0.807        0.093      119.218        7.786        0.004      337.229        9.062      860.629
10/11/2013  01:33:00      -74.457       -2.752       -9.675       20.701       13.186       10.736      428.548      173.878      115.255        0.318        0.036       74.508        9.627        0.017      336.932        8.565      860.631
10/11/2013  01:34:00      -80.074        5.966      -12.122       20.715       19.417       12.795      429.103      377.011      163.706        0.378        0.048       80.296       11.948        0.022      337.072        8.798      860.622
10/11/2013  01:35:00     -130.438       13.198      -22.859       42.842       30.410       20.542     1835.479      924.743      421.974        1.045        0.159      131.104       22.594        0.030      336.838        8.408      860.625
10/11/2013  01:36:00      -93.487       45.124      -13.175       43.445       29.149       21.981     1887.465      849.647      483.159        0.708        0.161      103.807       23.091        0.049      336.784        8.318      860.626
10/11/2013  01:37:00     -108.195       21.565      -11.886       34.554       39.505       18.776     1193.993     1560.645      352.553        0.771        0.155      110.323       16.099        0.021      336.998        8.676      860.634
10/11/2013  01:38:00     -124.931       12.383      -18.284       25.348       26.896       18.835      642.528      723.369      354.744        0.891        0.086      125.543       12.307        0.010      336.856        8.439      860.640
10/11/2013  01:39:00      -84.652       -0.113       -7.782       37.875       33.579       21.830     1434.533     1127.561      476.542        0.513        0.152       84.653       18.335        0.047      337.103        8.852      860.649
10/11/2013  01:40:00     -193.043       18.415      -26.679       76.146       54.422       25.310     5798.279     2961.721      640.610        2.386        0.470      193.920       27.207        0.020      336.578        7.970      860.673
10/11/2013  01:41:00     -113.860       75.055      -23.334       36.372       48.867       23.418     1322.898     2387.937      548.388        1.170        0.213      136.372       23.784        0.030      336.706        8.188      860.677
10/11/2013  01:42:00      -98.629       16.517      -10.322       45.677       39.674       23.194     2086.345     1574.018      537.962        0.715        0.210      100.003       19.317        0.037      336.657        8.108      860.680
10/11/2013  01:43:00      -84.210       29.556      -14.546       24.186       27.443       14.856      584.951      753.118      220.690        0.487        0.078       89.247        9.310        0.011      336.835        8.403      860.697
10/11/2013  01:44:00      -61.793       13.405       -6.961       22.670       25.824        9.804      513.949      666.866       96.113        0.266        0.064       63.230        6.534        0.011      336.859        8.444      860.709
10/11/2013  01:45:00      -79.102        2.380      -12.443       22.289       23.982       14.619      496.793      575.119      213.704        0.385        0.064       79.138       10.217        0.017      336.689        8.160      860.717
10/11/2013  01:46:00      -76.387        9.990      -11.286       20.079       27.224       12.851      403.178      741.130      165.152        0.369        0.065       77.038        5.090        0.004      336.652        8.098      860.723
10/11/2013  01:47:00      -58.192      -17.927       -4.369       25.725       25.530       10.002      661.765      651.776      100.046        0.257        0.071       60.891        5.703        0.009      336.659        8.110      860.725
10/11/2013  01:48:00      -78.611      -29.382       -6.296       43.012       20.355       16.992     1850.023      414.331      288.740        0.482        0.128       83.922       18.177        0.047      336.536        7.904      860.719
10/11/2013  01:49:00      -55.983      -23.824       -7.388       27.783       31.677       12.829      771.912     1003.447      164.591        0.285        0.097       60.842        8.460        0.019      336.743        8.251      860.726
10/11/2013  01:50:00      -52.448      -33.280       -2.726       31.445       21.411       16.865      988.793      458.445      284.419        0.280        0.087       62.115        8.190        0.017      336.584        7.985      860.732
10/11/2013  01:51:00      -55.855      -23.413       -4.066       15.126       10.752       12.064      228.783      115.599      145.552        0.209        0.024       60.563       10.952        0.033      336.542        7.914      860.734
10/11/2013  01:52:00      -45.439      -16.886       -7.537       14.512       12.034        9.735      210.585      144.828       94.776        0.143        0.023       48.475        5.481        0.013      336.629        8.059      860.737
10/11/2013  01:53:00      -53.890      -38.467       -8.018        9.867       13.309        9.762       97.363      177.135       95.305        0.241        0.018       66.211        4.291        0.004      336.672        8.131      860.764
10/11/2013  01:54:00      -86.677      -33.740      -12.330       22.791       13.265        8.832      519.432      175.963       78.004        0.479        0.039       93.012        5.704        0.004      336.691        8.163      860.769
10/11/2013  01:55:00     -123.370      -30.988      -12.721       23.488       12.284       11.499      551.701      150.896      132.225        0.859        0.042      127.202        6.072        0.002      336.666        8.123      860.782
10/11/2013  01:56:00     -111.109      -13.712      -11.647       22.087       15.753       14.439      487.830      248.172      208.484        0.681        0.047      111.952       12.101        0.012      336.568        7.959      860.785
10/11/2013  01:57:00      -80.434      -39.225        2.276       21.197       14.819       10.359      449.331      219.601      107.310        0.439        0.039       89.488       10.192        0.013      336.721        8.213      860.797
10/11/2013  01:58:00     -102.046      -46.586       -4.025       25.190       25.773       17.302      634.550      664.265      299.353        0.710        0.080      112.177       16.213        0.021      336.649        8.094      860.803
10/11/2013  01:59:00     -126.875       -9.198      -15.693       33.770       17.466       17.707     1140.434      305.053      313.542        0.909        0.088      127.208       17.205        0.018      336.514        7.867      860.792
10/11/2013  02:00:00     -123.246      -19.852      -12.611       23.283       15.412       12.270      542.119      237.535      150.544        0.834        0.047      124.835       11.513        0.009      336.623        8.050      860.797
10/11/2013  02:01:00      -88.922      -34.883       -2.798       10.055       12.682        9.317      101.094      160.845       86.815        0.474        0.017       95.520        6.564        0.005      336.707        8.191      860.790
10/11/2013  02:02:00     -138.503      -48.367       -6.692       24.371       14.832        8.758      593.967      219.999       76.697        1.123        0.045      146.706        8.320        0.003      336.608        8.026      860.785
10/11/2013  02:03:00     -130.153      -18.896      -10.935       33.203       22.674       18.556     1102.461      514.099      344.331        0.969        0.098      131.517       13.472        0.010      336.442        7.746      860.798
10/11/2013  02:04:00     -101.296        2.873       -2.700       52.550       29.607       26.783     2761.529      876.583      717.307        0.732        0.218      101.337       30.513        0.091      336.261        7.444      860.812
10/11/2013  02:05:00      -40.071       -7.872        2.146       30.354       20.612       16.718      921.347      424.853      279.484        0.165        0.081       40.837       12.577        0.095      336.419        7.708      860.814
10/11/2013  02:06:00      -43.544      -14.940       -1.786       34.559       14.381       10.767     1194.330      206.814      115.934        0.182        0.076       46.035        9.650        0.044      336.566        7.955      860.809
10/11/2013  02:07:00     -115.667      -17.332       -8.649       33.337       34.572       18.818     1111.381     1195.253      354.118        0.821        0.133      116.958       16.995        0.021      336.420        7.710      860.810
10/11/2013  02:08:00     -114.202      -12.137       -8.008       45.768       31.014       23.431     2094.721      961.861      548.993        0.843        0.180      114.845       25.494        0.049      336.299        7.506      860.816
10/11/2013  02:09:00      -50.705      -19.590        4.456       16.765       18.122       11.090      281.052      328.412      122.985        0.185        0.037       54.358       10.451        0.037      336.326        7.552      860.828
10/11/2013  02:10:00     -108.319      -43.212       -7.052       38.328       16.255        8.729     1469.000      264.235       76.200        0.773        0.090      116.621        6.408        0.003      336.452        7.761      860.840
10/11/2013  02:11:00     -151.854      -12.970      -16.108       33.692       34.141       21.094     1135.135     1165.605      444.952        1.312        0.137      152.407       19.458        0.016      336.320        7.542      860.863
10/11/2013  02:12:00     -100.410       -5.036      -10.582       43.511       18.583       14.193     1893.231      345.333      201.431        0.633        0.122      100.536       16.039        0.025      336.359        7.609      860.879
10/11/2013  02:13:00      -55.916       55.600      -16.714       19.272       28.850       11.823      371.426      832.295      139.787        0.392        0.067       78.854       13.275        0.028      336.912        8.532      860.886
10/11/2013  02:14:00      -28.515       34.559       -8.599       19.350       22.263        7.985      374.432      495.636       63.756        0.151        0.047       44.804        9.751        0.047      337.190        8.997      860.879
10/11/2013  02:15:00       30.160        0.610       -6.924       13.185       22.122        9.981      173.856      489.392       99.629        0.086        0.038       30.166        4.105        0.019      337.084        8.820      860.865
10/11/2013  02:16:00      -41.745      -35.510       -0.153       30.509       22.041       16.704      930.823      485.815      279.029        0.235        0.085       54.805       13.358        0.059      336.719        8.210      860.876
10/11/2013  02:17:00      -22.139      -45.630        8.319       39.342       28.533       21.595     1547.793      814.142      466.346        0.273        0.141       50.718       24.738        0.238      336.697        8.175      860.898
10/11/2013  02:18:00      -26.334      -38.270        3.595        7.802       28.087        6.345       60.868      788.902       40.264        0.153        0.045       46.455        5.293        0.013      336.965        8.618      860.921
10/11/2013  02:19:00      -30.568       -2.890        3.185       28.947       15.435       11.655      837.917      238.253      135.844        0.108        0.061       30.705       12.366        0.162      336.866        8.456      860.929
10/11/2013  02:20:00     -127.704        4.519      -14.746       40.153       27.640       22.841     1612.242      763.960      521.706        0.972        0.145      127.784       22.213        0.030      336.489        7.824      860.939
10/11/2013  02:21:00     -110.651       -9.223      -13.732       39.694       22.286       18.990     1575.600      496.649      360.633        0.747        0.122      111.035       20.250        0.033      336.262        7.445      860.955
10/11/2013  02:22:00      -34.948      -35.474        0.305       25.037       13.575       10.576      626.832      184.278      111.848        0.170        0.046       49.797       10.669        0.046      336.441        7.746      860.962
10/11/2013  02:23:00      -57.654      -37.287       -7.794       20.792       17.153       10.897      432.297      294.212      118.745        0.281        0.042       68.661        6.546        0.009      336.695        8.171      860.958
10/11/2013  02:24:00      -32.038      -18.172       -7.646       14.120       18.783        8.693      199.378      352.811       75.570        0.102        0.031       36.833        5.470        0.022      336.646        8.088      860.969
10/11/2013  02:25:00      -23.557      -22.594       -8.206       11.351       16.274        7.874      128.837      264.851       62.006        0.079        0.023       32.640        7.148        0.048      336.835        8.403      860.986
10/11/2013  02:26:00       11.825        5.688        2.086       19.660        9.331        5.982      386.517       87.068       35.789        0.034        0.025       13.121        6.705        0.261      336.894        8.504      861.010
10/11/2013  02:27:00      -39.898      -13.675       -5.537       50.646        9.089        8.456     2565.007       82.611       71.505        0.226        0.136       42.176       17.997        0.182      336.854        8.436      861.017
10/11/2013  02:28:00      -46.580      -28.239       -2.921       36.475       15.274       13.229     1330.413      233.285      175.008        0.236        0.087       54.471       16.128        0.088      336.625        8.053      861.034
10/11/2013  02:29:00      -31.877      -23.905       -3.402       28.425       12.369        8.835      807.952      153.002       78.055        0.132        0.052       39.844       10.075        0.064      336.615        8.037      861.045
10/11/2013  02:30:00      -93.845      -51.036       -9.274       25.012       16.254        9.708      625.609      264.184       94.253        0.624        0.049      106.824        6.635        0.004      336.587        7.990      861.055
10/11/2013  02:31:00      -22.055      -59.237        4.653       19.294       16.431       13.768      372.247      269.989      189.557        0.242        0.042       63.209        6.701        0.011      336.797        8.339      861.051
10/11/2013  02:32:00       17.588      -69.078      -16.112       19.318       16.164       12.583      373.189      261.259      158.322        0.307        0.040       71.282        8.307        0.014      336.898        8.508      861.043
10/11/2013  02:33:00      -26.040      -50.791       -7.034       36.769       27.035       17.574     1351.962      730.904      308.859        0.285        0.120       57.077       21.889        0.147      336.762        8.282      861.035
10/11/2013  02:34:00      -34.416        6.911       -0.707       30.305       22.291       18.422      918.411      496.874      339.364        0.149        0.088       35.103       16.425        0.219      336.637        8.074      861.021
10/11/2013  02:35:00      -31.308       11.182      -12.538       15.039       19.682       13.399      226.177      387.363      179.522        0.103        0.040       33.245        9.810        0.087      336.642        8.083      861.018
10/11/2013  02:36:00      -49.908       -0.374       -3.810       23.653       14.612        8.180      559.450      213.509       66.908        0.167        0.042       49.910        8.331        0.028      336.650        8.093      861.032
10/11/2013  02:37:00      -97.218      -33.735       -1.471       40.855       34.362       20.740     1669.090     1180.766      430.129        0.694        0.164      102.905       14.965        0.021      336.676        8.139      861.043
10/11/2013  02:38:00     -150.721      -60.130       -0.873       49.305       46.345       24.704     2430.992     2147.816      610.293        1.576        0.259      162.273       18.734        0.013      336.449        7.758      861.068
10/11/2013  02:39:00      -97.962      -26.271        6.140       54.902       34.409       25.408     3014.216     1183.974      645.574        0.758        0.242      101.423       23.980        0.056      336.314        7.532      861.075
10/11/2013  02:40:00      -38.767       -1.884        1.314       32.215       15.100       12.783     1037.780      228.007      163.407        0.147        0.071       38.813       14.064        0.131      336.287        7.487      861.065
10/11/2013  02:41:00      -45.571       43.037       -6.765       16.689       18.614       14.265      278.507      346.488      203.502        0.240        0.041       62.681        7.948        0.016      336.303        7.513      861.049
10/11/2013  02:42:00      -30.308       -0.922      -11.610       18.480       19.652       11.183      341.514      386.202      125.061        0.095        0.043       30.322        8.918        0.087      336.496        7.837      861.031
10/11/2013  02:43:00      -68.509      -16.507       -6.377       14.166       15.814        9.797      200.673      250.080       95.981        0.278        0.027       70.469        5.346        0.006      336.504        7.852      861.033
10/11/2013  02:44:00      -71.356      -42.790        1.329       39.616       20.764       21.475     1569.435      431.144      461.190        0.469        0.123       83.202       14.786        0.032      336.438        7.740      861.037
10/11/2013  02:45:00      -57.280      -33.140        9.671       50.976       28.460       23.775     2598.515      809.970      565.253        0.422        0.199       66.176       25.025        0.143      336.375        7.634      861.040
10/11/2013  02:46:00      -95.504      -28.747        1.208       52.206       35.370       24.471     2725.417     1251.035      598.835        0.726        0.229       99.737       23.465        0.055      336.308        7.521      861.057
10/11/2013  02:47:00      -89.610      -25.005       -6.425       35.683       25.134       16.041     1273.278      631.710      257.301        0.543        0.108       93.033       10.493        0.013      336.333        7.564      861.062
10/11/2013  02:48:00      -49.846      -25.901       -0.872       14.672       19.152       12.593      215.262      366.809      158.573        0.195        0.037       56.174       10.468        0.035      336.482        7.813      861.049
10/11/2013  02:49:00       -6.808      -20.657        2.719       16.202        9.861        7.101      262.511       97.249       50.420        0.045        0.021       21.750        7.026        0.104      336.767        8.290      861.027
10/11/2013  02:50:00      -23.777      -30.879        1.787       22.203       12.123       10.416      492.956      146.956      108.483        0.114        0.037       38.973        6.602        0.029      336.813        8.366      861.031
10/11/2013  02:51:00      -56.899      -46.016       -3.211       25.260       30.600       16.762      638.064      936.382      280.976        0.361        0.093       73.178        7.849        0.012      336.482        7.812      861.043
10/11/2013  02:52:00      -79.569      -45.648       -0.140       30.958       28.447       15.434      958.393      809.238      238.216        0.521        0.100       91.733       10.158        0.012      336.501        7.846      861.060
10/11/2013  02:53:00     -105.770      -36.133       -7.177       17.160       15.319       11.468      294.452      234.664      131.522        0.660        0.033      111.772        8.161        0.005      336.523        7.882      861.064
10/11/2013  02:54:00      -67.927      -42.895        5.486       26.898       27.068       17.234      723.510      732.653      297.008        0.412        0.088       80.337       15.841        0.039      336.436        7.737      861.066
10/11/2013  02:55:00      -80.673      -59.005       -8.135       26.550       31.906       15.929      704.909     1018.021      253.736        0.602        0.099       99.949       15.937        0.025      336.513        7.867      861.058
10/11/2013  02:56:00      -56.203      -51.361       -1.597       31.829       23.346       20.328     1013.061      545.049      413.244        0.388        0.099       76.136       19.150        0.063      336.527        7.889      861.050
10/11/2013  02:57:00      -37.090      -41.912        0.615       26.839       16.774       12.694      720.326      281.374      161.147        0.215        0.058       55.967       13.938        0.062      336.488        7.824      861.024
10/11/2013  02:58:00      -33.362      -45.608        8.724       33.305       27.341       22.083     1109.190      747.512      487.656        0.281        0.117       56.507       19.154        0.115      336.637        8.073      861.023
10/11/2013  02:59:00      -62.179      -41.783        0.634       51.837       34.112       26.302     2687.052     1163.609      691.771        0.508        0.227       74.913       16.150        0.046      336.529        7.893      861.036
10/11/2013  03:00:00      -43.250      -30.353       -3.784       36.191       31.843       26.156     1309.757     1013.986      684.149        0.291        0.150       52.838       11.052        0.044      336.545        7.920      861.042
10/11/2013  03:01:00      -46.474      -36.906        0.201       62.875       34.943       27.059     3953.242     1220.986      732.190        0.471        0.295       59.345       17.677        0.089      336.504        7.852      861.044
10/11/2013  03:02:00      -35.226      -16.916        7.620       44.047       31.786       16.724     1940.167     1010.374      279.690        0.241        0.162       39.077       13.860        0.126      336.420        7.709      861.037
10/11/2013  03:03:00      -56.853      -56.353        6.786       40.508       29.910       26.391     1640.904      894.613      696.493        0.484        0.162       80.049       12.112        0.023      336.403        7.681      861.033
10/11/2013  03:04:00      -34.644      -33.356        5.841       42.431       28.825       17.284     1800.352      830.879      298.720        0.264        0.146       48.092       15.702        0.107      336.306        7.518      861.029
10/11/2013  03:05:00      -51.154      -28.094        2.051       21.655       16.297       13.936      468.931      265.581      194.200        0.217        0.046       58.361       12.405        0.045      336.369        7.623      861.021
10/11/2013  03:06:00     -100.034      -33.109       -9.182       21.200       14.036       11.128      449.450      197.018      123.829        0.598        0.039      105.370       10.018        0.009      336.344        7.582      861.022
10/11/2013  03:07:00      -96.819      -50.707        0.658       37.443       24.352       19.750     1401.953      592.996      390.061        0.716        0.119      109.293       16.693        0.023      336.247        7.419      861.035
10/11/2013  03:08:00      -86.213      -61.423        4.693       38.192       24.976       22.084     1458.614      623.808      487.704        0.690        0.129      105.856       22.343        0.045      336.272        7.462      861.036
10/11/2013  03:09:00      -69.267      -44.010        1.339       28.504       28.143       19.608      812.501      792.031      384.489        0.436        0.099       82.066       18.585        0.051      336.251        7.426      861.037
10/11/2013  03:10:00      -70.863      -45.971       -0.954       34.957       25.697       17.111     1222.018      660.321      292.792        0.466        0.109       84.468       17.073        0.041      336.201        7.343      861.029
10/11/2013  03:11:00      -43.322      -34.438        7.728       36.869       22.081       17.570     1359.342      487.576      308.714        0.264        0.108       55.342       16.572        0.090      336.342        7.580      861.024
10/11/2013  03:12:00      -44.037      -34.391        8.967       39.695       23.902       18.183     1575.679      571.303      330.613        0.284        0.124       55.875       14.130        0.064      336.307        7.521      861.032
10/11/2013  03:13:00      -25.349      -15.640        4.930       27.047       24.661       11.819      731.531      608.145      139.684        0.120        0.074       29.786       13.115        0.194      336.276        7.471      861.032
10/11/2013  03:14:00      -39.981      -33.358       -1.764       28.826       18.972       13.511      830.940      359.929      182.537        0.204        0.069       52.070        6.019        0.013      336.379        7.641      861.024
10/11/2013  03:15:00      -25.124      -37.702        5.653       29.469       28.247       19.402      868.451      797.875      376.444        0.206        0.102       45.306       18.515        0.167      336.419        7.707      861.032
10/11/2013  03:16:00       -9.706       -4.828       12.254       16.263       12.004        8.720      264.475      144.104       76.036        0.038        0.024       10.841        8.228        0.576      336.331        7.560      861.035
10/11/2013  03:17:00      -42.062       19.392       -9.962       19.924       15.865       12.153      396.961      251.709      147.705        0.152        0.040       46.317       10.937        0.056      336.084        7.147      861.057
10/11/2013  03:18:00      -65.723       27.435       -9.117       18.684       26.004       13.725      349.078      676.216      188.369        0.318        0.061       71.220       11.523        0.026      335.867        6.787      861.082
10/11/2013  03:19:00      -81.510       27.907      -12.982       24.948       16.263       14.674      622.395      264.490      215.314        0.435        0.055       86.155       14.061        0.027      335.882        6.812      861.089
10/11/2013  03:20:00      -58.711       23.813       -6.036       18.617       16.481        9.982      346.600      271.620       99.631        0.238        0.036       63.356        8.711        0.019      336.097        7.170      861.087
10/11/2013  03:21:00      -26.828        0.010        2.284       12.767       12.382        7.354      162.986      153.305       54.075        0.055        0.019       26.828        5.067        0.036      335.999        7.004      861.074
10/11/2013  03:22:00        2.906      -49.209       -6.178       11.768       17.149        9.677      138.477      294.102       93.642        0.150        0.026       49.295       10.464        0.045      336.019        7.038      861.071
10/11/2013  03:23:00       -4.397      -36.825       -2.278        9.468        9.233       10.318       89.647       85.253      106.456        0.083        0.014       37.087        6.266        0.029      336.129        7.223      861.067
10/11/2013  03:24:00      -19.732      -19.006        1.645       19.408       16.656       14.999      376.676      277.408      224.972        0.082        0.044       27.397       12.707        0.215      336.067        7.119      861.068
10/11/2013  03:25:00       -5.069      -38.434       12.258       27.983       24.107       15.552      783.037      581.170      241.850        0.163        0.080       38.767       15.147        0.153      336.081        7.144      861.071
10/11/2013  03:26:00      -16.311      -33.855       -2.741       33.541       19.032       17.327     1124.984      362.228      300.213        0.160        0.089       37.579       19.316        0.264      336.054        7.097      861.069
10/11/2013  03:27:00       -5.724       -8.860       11.358       15.851       12.513       13.167      251.243      156.569      173.359        0.041        0.029       10.548        9.198        0.760      336.091        7.160      861.057
10/11/2013  03:28:00      -19.546       24.300       11.051       27.692       14.427       11.353      766.829      208.127      128.885        0.110        0.055       31.185        9.045        0.084      336.147        7.253      861.066
10/11/2013  03:29:00      -78.147       -4.012       -6.696       14.376       17.857       10.605      206.671      318.880      112.464        0.340        0.032       78.250        7.080        0.008      336.066        7.117      861.078
10/11/2013  03:30:00      -94.677      -38.553        0.390       31.504       29.606       14.591      992.502      876.539      212.891        0.627        0.104      102.226       14.365        0.020      335.981        6.977      861.100
10/11/2013  03:31:00      -77.232      -16.558       -4.093       20.111       16.422       13.228      404.464      269.688      174.980        0.355        0.042       78.987        6.248        0.006      335.822        6.712      861.114
10/11/2013  03:32:00      -25.263      -18.200        3.682       22.358       12.078       12.819      499.890      145.875      164.329        0.090        0.041       31.136       14.037        0.203      335.834        6.731      861.113
10/11/2013  03:33:00      -40.434      -19.401       -3.998       17.624       13.157        7.762      310.596      173.110       60.252        0.129        0.027       44.847        4.921        0.012      335.883        6.814      861.113
10/11/2013  03:34:00      -72.836       -5.516      -10.130       18.276       12.610        8.566      334.016      159.024       73.378        0.300        0.028       73.044        8.830        0.015      335.884        6.815      861.130
10/11/2013  03:35:00      -92.213      -20.497       -8.044       24.171       20.241       15.954      584.261      409.704      254.537        0.512        0.062       94.463       15.123        0.026      335.992        6.996      861.136
10/11/2013  03:36:00      -65.926      -32.716        1.608       25.145       20.114       13.960      632.269      404.572      194.880        0.333        0.062       73.597       11.295        0.024      335.909        6.856      861.137
10/11/2013  03:37:00      -78.756      -20.464        2.579       39.548       27.460       16.883     1564.006      754.073      285.052        0.462        0.130       81.372       16.390        0.041      335.706        6.518      861.157
10/11/2013  03:38:00     -119.810       -4.443       -8.774       26.434       22.324       14.230      698.777      498.351      202.490        0.793        0.070      119.892       14.497        0.015      335.529        6.223      861.163
10/11/2013  03:39:00      -84.524       16.949       -4.105       17.702       11.067        9.514      313.371      122.488       90.524        0.399        0.026       86.207       10.914        0.016      335.667        6.453      861.173
10/11/2013  03:40:00      -64.701      -18.110       -6.777       12.026       20.312        9.724      144.615      412.574       94.566        0.261        0.033       67.188        6.164        0.008      335.843        6.745      861.178
10/11/2013  03:41:00      -85.991      -48.686       -2.632       14.732       15.568       10.291      217.043      242.372      105.906        0.517        0.028       98.817        8.919        0.008      335.779        6.640      861.175
10/11/2013  03:42:00      -61.415      -37.865        3.183       25.758       11.566       14.001      663.480      133.763      196.037        0.310        0.050       72.150       12.933        0.032      335.693        6.498      861.171
10/11/2013  03:43:00      -36.406      -37.753        0.341        9.786       14.651        5.934       95.763      214.654       35.214        0.155        0.017       52.448        3.663        0.005      335.920        6.876      861.170
10/11/2013  03:44:00     -122.693      -30.723      -14.926       42.913       23.240       13.202     1841.549      540.077      174.301        0.939        0.128      126.481       10.634        0.007      335.790        6.659      861.173
10/11/2013  03:45:00     -106.386      -25.019      -12.012       55.022       37.958       19.039     3027.376     1440.840      362.501        0.846        0.242      109.289       16.476        0.023      335.410        6.025      861.184
10/11/2013  03:46:00      -64.049      -59.616        0.023       29.787       30.970       16.346      887.247      959.140      267.182        0.488        0.106       87.501       15.543        0.032      335.858        6.772      861.189
10/11/2013  03:47:00      -23.250      -32.794        5.015       27.128       18.452       17.598      735.906      340.467      309.700        0.151        0.069       40.200       14.290        0.126      336.112        7.196      861.187
10/11/2013  03:48:00      -72.985      -31.142        8.476       39.696       24.080       17.696     1575.770      579.839      313.139        0.442        0.123       79.352       18.134        0.052      335.918        6.871      861.193
10/11/2013  03:49:00      -99.772      -23.085       -6.192       24.418       21.521       15.028      596.215      463.136      225.848        0.591        0.064      102.407       13.236        0.017      335.570        6.292      861.203
10/11/2013  03:50:00      -58.670      -27.803        0.419       23.109       25.429       15.627      534.044      646.652      244.204        0.282        0.071       64.924       13.474        0.043      335.455        6.100      861.194
10/11/2013  03:51:00      -98.746      -21.961       -3.687       24.052       17.263       15.990      578.521      298.011      255.665        0.569        0.057      101.158       14.225        0.020      335.453        6.098      861.187
10/11/2013  03:52:00      -70.147      -23.083        1.105       30.054       19.946       15.244      903.238      397.853      232.395        0.349        0.077       73.848       15.265        0.043      335.505        6.183      861.181
10/11/2013  03:53:00      -49.599      -24.106        5.377       28.466       20.602       15.551      810.313      424.440      241.846        0.227        0.074       55.147       14.429        0.068      335.514        6.200      861.196
10/11/2013  03:54:00      -42.819      -17.412        0.339       32.110       17.203       11.454     1031.070      295.928      131.189        0.180        0.073       46.223       12.814        0.077      335.532        6.229      861.216
10/11/2013  03:55:00       -4.855      -14.146       13.814       20.179       14.274       12.318      407.178      203.741      151.737        0.059        0.038       14.956       12.136        0.658      335.642        6.414      861.221
10/11/2013  03:56:00       -1.754        2.436        3.072        7.640        9.614        8.377       58.373       92.424       70.172        0.012        0.011        3.002        7.129        5.640      335.620        6.374      861.231
10/11/2013  03:57:00      -47.059      -13.340       -4.731       29.632       23.195        9.781      878.075      538.003       95.660        0.196        0.076       48.913       11.427        0.055      335.660        6.441      861.250
10/11/2013  03:58:00      -90.635      -11.578       -9.838       21.500       17.675       13.619      462.255      312.393      185.474        0.470        0.048       91.371       11.122        0.015      335.602        6.345      861.284
10/11/2013  03:59:00      -76.782      -31.754        4.043       32.323       19.456       14.975     1044.753      378.520      224.240        0.428        0.082       83.089       14.559        0.031      335.561        6.277      861.314
10/11/2013  04:00:00      -13.851        8.104       -0.461       11.052       26.434       15.774      122.157      698.736      248.826        0.066        0.053       16.048       16.103        1.007      335.772        6.629      861.319
10/11/2013  04:01:00      -10.055       -2.756       -5.965       46.484       20.799       12.424     2160.790      432.618      154.360        0.145        0.137       10.426       21.545        4.271      335.667        6.455      861.322
10/11/2013  04:02:00     -177.975      -52.156      -10.694       30.299       27.310       17.419      918.032      745.860      303.423        1.824        0.098      185.460       13.650        0.005      335.437        6.071      861.342
10/11/2013  04:03:00      -74.161       19.235       -2.244       32.988       16.070       12.640     1088.193      258.242      159.762        0.369        0.075       76.615        7.459        0.009      335.412        6.029      861.353
10/11/2013  04:04:00        9.274       -3.518        3.903       16.093       23.104       13.687      258.977      533.793      187.330        0.055        0.049        9.919       12.855        1.679      335.453        6.096      861.337
10/11/2013  04:05:00      -56.428      -40.261       -4.138       38.724       18.909       11.720     1499.561      357.533      137.356        0.341        0.100       69.318       12.464        0.032      335.687        6.487      861.328
10/11/2013  04:06:00      -64.052      -50.689       -1.583       36.035       28.432       21.339     1298.544      808.404      455.369        0.462        0.128       81.682       18.652        0.052      335.516        6.203      861.315
10/11/2013  04:07:00       28.096        5.382       12.739       26.030       24.091       16.459      677.568      580.382      270.913        0.125        0.076       28.607       16.326        0.326      335.519        6.207      861.303
10/11/2013  04:08:00       18.841        2.618        2.361       19.115       15.213       11.004      365.383      231.448      121.091        0.054        0.036       19.022        6.244        0.108      335.588        6.322      861.300
10/11/2013  04:09:00      -37.023      -27.475        0.154       26.933       13.471       11.994      725.363      181.474      143.846        0.159        0.053       46.104       12.630        0.075      335.641        6.411      861.292
10/11/2013  04:10:00      -25.491       -1.839        5.507       19.264       12.525        9.622      371.100      156.869       92.591        0.065        0.031       25.557        9.300        0.132      335.462        6.112      861.287
10/11/2013  04:11:00      -18.295        6.279       -5.776        7.613        9.611        6.835       57.954       92.372       46.723        0.030        0.010       19.343        5.081        0.069      335.421        6.044      861.294
10/11/2013  04:12:00      -66.942      -12.405       -7.304       19.767       19.861        9.991      390.719      394.471       99.826        0.279        0.044       68.082        7.443        0.012      335.433        6.064      861.308
10/11/2013  04:13:00      -61.749      -19.874        0.288       33.450       17.705       11.960     1118.903      313.463      143.032        0.289        0.079       64.868       14.590        0.051      335.412        6.026      861.311
10/11/2013  04:14:00      -70.373      -26.303        0.563       19.751       22.757       15.119      390.086      517.875      228.594        0.339        0.057       75.128       11.646        0.024      335.372        5.961      861.311
10/11/2013  04:15:00      -92.349      -34.330       -0.422       30.488       24.087       12.104      929.525      580.179      146.513        0.568        0.083       98.523        7.368        0.006      335.369        5.957      861.321
10/11/2013  04:16:00     -110.427      -35.697       -3.641       16.375       19.608       11.823      268.145      384.477      139.788        0.714        0.040      116.054        6.261        0.003      335.328        5.888      861.328
10/11/2013  04:17:00      -68.561      -40.049        5.029       39.007       26.946       22.394     1521.523      726.108      501.488        0.454        0.137       79.401       20.316        0.065      335.412        6.029      861.344
10/11/2013  04:18:00      -81.074      -50.816        2.625       49.968       26.420       20.069     2496.820      698.012      402.763        0.638        0.180       95.683       23.251        0.059      335.490        6.157      861.345
10/11/2013  04:19:00      -58.972      -76.802        0.827       34.056       28.844       20.972     1159.795      832.000      439.815        0.590        0.122       96.831       15.796        0.027      335.571        6.294      861.337
10/11/2013  04:20:00      -92.304     -101.659        1.793       49.430       42.871       30.358     2443.286     1837.949      921.590        1.203        0.260      137.312       19.730        0.021      335.591        6.326      861.324
10/11/2013  04:21:00      -45.929      -58.228        6.160       42.842       31.216       25.948     1835.463      974.412      673.279        0.451        0.174       74.162       17.463        0.055      335.585        6.316      861.332
10/11/2013  04:22:00      -61.102      -43.053        2.792       50.338       30.967       25.119     2533.907      958.937      630.971        0.486        0.206       74.746       27.315        0.134      335.536        6.236      861.344
10/11/2013  04:23:00      -73.428      -15.812        2.740       36.778       27.129       17.753     1352.631      736.001      315.152        0.403        0.120       75.111       16.760        0.050      335.453        6.096      861.365
10/11/2013  04:24:00      -68.915       -4.888        6.686       46.837       29.976       19.344     2193.703      898.543      374.197        0.414        0.173       69.088       18.637        0.073      335.385        5.984      861.378
10/11/2013  04:25:00      -61.559       10.400        0.216       37.910       20.028       11.251     1437.181      401.128      126.587        0.293        0.098       62.431       11.478        0.034      335.362        5.944      861.404
10/11/2013  04:26:00      -55.591       17.337       -0.668       28.406       18.094       11.128      806.888      327.405      123.834        0.232        0.063       58.232        7.944        0.019      335.286        5.817      861.430
10/11/2013  04:27:00      -28.786       -3.263        2.825       30.046       13.023        9.081      902.760      169.608       82.470        0.100        0.058       28.971        7.741        0.071      335.274        5.797      861.451
10/11/2013  04:28:00      -20.461       -7.099       10.310       37.553       17.224       16.084     1410.217      296.662      258.699        0.127        0.098       21.657       16.130        0.555      335.263        5.779      861.448
10/11/2013  04:29:00      -75.351      -14.583       -5.611       25.213       21.707       14.740      635.685      471.208      217.275        0.362        0.066       76.749       15.890        0.043      335.178        5.640      861.443
10/11/2013  04:30:00      -63.202      -34.176       -2.606       26.551       21.307       13.169      704.942      454.001      173.414        0.325        0.067       71.850        7.464        0.011      335.287        5.819      861.437
10/11/2013  04:31:00      -36.725      -25.046        3.262       30.462       15.691       11.303      927.956      246.208      127.756        0.164        0.065       44.452       16.675        0.141      335.057        5.439      861.439
10/11/2013  04:32:00      -67.119      -47.291      -10.143       14.742       19.931        9.906      217.321      397.227       98.126        0.378        0.036       82.106        5.881        0.005      335.341        5.909      861.441
10/11/2013  04:33:00      -61.074      -55.845       -6.496       36.069       35.587       19.201     1300.973     1266.418      368.687        0.491        0.147       82.757       20.204        0.060      335.365        5.951      861.448
10/11/2013  04:34:00      -29.523      -48.885       10.120       28.280       33.627       16.744      799.779     1130.760      280.352        0.279        0.111       57.108       18.661        0.107      335.295        5.834      861.454
10/11/2013  04:35:00      -95.685      -18.583       -0.567       27.656       14.902       13.093      764.845      222.064      171.436        0.533        0.058       97.473       15.657        0.026      335.227        5.720      861.457
10/11/2013  04:36:00      -86.370      -33.333        4.964       25.750       20.877       14.912      663.086      435.861      222.366        0.496        0.066       92.579       14.158        0.023      335.190        5.659      861.474
10/11/2013  04:37:00      -89.821      -11.313       -2.478       27.345       24.259       12.542      747.753      588.485      157.314        0.485        0.075       90.530       10.021        0.012      335.099        5.509      861.478
10/11/2013  04:38:00      -98.037       -2.749      -10.893       16.982       15.493       10.191      288.386      240.030      103.853        0.518        0.032       98.075        5.810        0.004      335.057        5.440      861.473
10/11/2013  04:39:00      -91.219       -1.798       -4.847       26.376       25.309       14.679      695.699      640.561      215.472        0.495        0.078       91.236       13.022        0.020      335.113        5.533      861.479
10/11/2013  04:40:00      -66.868      -38.777       -0.065       24.393       16.326       12.334      595.025      266.528      152.135        0.349        0.051       77.298       13.275        0.029      335.157        5.604      861.492
10/11/2013  04:41:00      -38.868      -35.742        9.341       31.362       28.407       17.651      983.558      806.980      311.572        0.249        0.105       52.803       19.637        0.138      335.210        5.692      861.492
10/11/2013  04:42:00      -56.652      -30.411        6.392       47.259       20.350       19.939     2233.452      414.116      397.555        0.361        0.152       64.298       23.281        0.131      335.169        5.624      861.491
10/11/2013  04:43:00      -13.932      -17.939        9.111       30.742       22.797       15.917      945.078      519.704      253.349        0.116        0.086       22.714       16.444        0.524      335.178        5.638      861.497
10/11/2013  04:44:00      -46.544      -35.054        2.334       44.442       33.641       27.456     1975.084     1131.696      753.818        0.363        0.193       58.268       28.624        0.241      335.123        5.549      861.511
10/11/2013  04:45:00      -45.292      -64.228        3.771       46.649       38.480       21.892     2176.142     1480.748      479.252        0.516        0.207       78.591       18.952        0.058      335.119        5.542      861.529
10/11/2013  04:46:00      -75.781      -89.139       -0.597       37.581       52.949       21.903     1412.338     2803.617      479.744        0.919        0.235      116.998       26.857        0.053      335.083        5.483      861.537
10/11/2013  04:47:00      -33.908      -33.325       -1.199       25.033       22.311       21.070      626.638      497.795      443.943        0.191        0.078       47.543       14.233        0.090      335.118        5.541      861.530
10/11/2013  04:48:00      -41.976      -40.152        4.922       29.871       25.975       24.806      892.273      674.705      615.356        0.279        0.109       58.088       22.083        0.145      335.153        5.598      861.533
10/11/2013  04:49:00      -34.955      -34.138       -7.803       29.046       17.513       13.859      843.654      306.713      192.065        0.190        0.067       48.860        8.314        0.029      335.174        5.632      861.553
10/11/2013  04:50:00      -43.967      -33.640       -4.212       13.178       14.701        8.480      173.665      216.116       71.907        0.177        0.023       55.360        4.928        0.008      335.141        5.578      861.572
10/11/2013  04:51:00      -12.670      -16.190        1.289       19.450       14.127       10.387      378.309      199.570      107.892        0.055        0.034       20.558       11.602        0.318      335.143        5.581      861.585
10/11/2013  04:52:00      -30.284       -5.195        1.965       18.800       11.964       11.121      353.447      143.128      123.675        0.078        0.031       30.726        5.800        0.036      335.145        5.586      861.590
10/11/2013  04:53:00       -0.249      -15.258        7.195        8.616       13.664        9.922       74.243      186.715       98.446        0.032        0.018       15.260        6.860        0.202      335.078        5.474      861.599
10/11/2013  04:54:00      -30.763      -24.052        4.003       22.267       12.869       10.957      495.802      165.611      120.062        0.116        0.039       39.049       12.624        0.105      335.123        5.549      861.605
10/11/2013  04:55:00      -26.191      -10.580        6.168       25.218       14.289       12.821      635.933      204.164      164.373        0.092        0.050       28.247       11.394        0.163      335.054        5.433      861.604
10/11/2013  04:56:00      -82.230      -28.941       -8.497       29.471       16.288       13.341      868.568      265.310      177.980        0.449        0.066       87.174        6.166        0.005      334.973        5.300      861.603
10/11/2013  04:57:00      -92.177      -25.659       -2.857       24.360       28.792       16.740      593.394      828.991      280.230        0.543        0.085       95.682       13.438        0.020      334.820        5.044      861.602
10/11/2013  04:58:00      -65.939      -11.963        4.592       27.139       27.772       15.600      736.549      771.309      243.373        0.313        0.088       67.015       11.316        0.029      334.690        4.829      861.611
10/11/2013  04:59:00      -71.999      -16.862        1.585       26.922       24.884       15.492      724.786      619.238      240.003        0.353        0.079       73.947       12.944        0.031      334.605        4.688      861.608
10/11/2013  05:00:00      -75.662      -21.657        6.431       24.719       22.667       15.285      611.027      513.780      233.627        0.380        0.068       78.700       15.330        0.038      334.677        4.808      861.613
10/11/2013  05:01:00      -43.929      -26.131        3.645       38.043       21.117       17.118     1447.236      445.943      293.041        0.241        0.109       51.114       21.217        0.172      334.784        4.984      861.622
10/11/2013  05:02:00      -76.211      -36.022       -3.805       26.494       16.286       12.870      701.939      265.237      165.645        0.413        0.057       84.295       12.080        0.021      334.810        5.029      861.638
10/11/2013  05:03:00      -86.541      -24.766        2.871       24.154       25.047       14.619      583.414      627.333      213.707        0.477        0.071       90.015        5.945        0.004      334.835        5.070      861.662
10/11/2013  05:04:00      -47.174      -21.912        2.162       36.806       25.257       21.401     1354.680      637.904      458.014        0.258        0.123       52.014       18.765        0.130      334.797        5.006      861.672
10/11/2013  05:05:00      -57.749      -32.151       -1.047       32.081       20.589       15.388     1029.174      423.909      236.801        0.303        0.084       66.096       12.751        0.037      334.876        5.139      861.678
10/11/2013  05:06:00      -78.239      -29.182       -5.790       12.686       12.035        7.524      160.931      144.833       56.609        0.368        0.018       83.504        2.435        0.001      334.876        5.139      861.686
10/11/2013  05:07:00      -53.876      -24.365       -9.240       15.186       14.037        8.302      230.602      197.047       68.921        0.204        0.025       59.129        2.839        0.002      334.890        5.162      861.697
10/11/2013  05:08:00      -45.221      -11.011       -7.375       14.542        7.571        5.487      211.468       57.326       30.108        0.126        0.015       46.542        2.418        0.003      334.866        5.120      861.699
10/11/2013  05:09:00      -54.871      -17.010       -3.881       14.232       13.810        9.059      202.547      190.709       82.057        0.190        0.024       57.447        5.985        0.011      334.866        5.121      861.708
10/11/2013  05:10:00      -71.864      -24.544       -0.842       12.203       16.677        9.325      148.909      278.129       86.964        0.314        0.026       75.940        5.595        0.005      334.860        5.112      861.718
10/11/2013  05:11:00      -78.384      -28.654       -8.326       16.678       15.300       13.440      278.158      234.101      180.624        0.386        0.035       83.457       10.253        0.015      334.831        5.064      861.715
10/11/2013  05:12:00      -77.876      -39.513       -9.730       26.381       14.809       13.252      695.946      219.321      175.624        0.441        0.055       87.327        9.211        0.011      334.817        5.040      861.713
10/11/2013  05:13:00      -78.031      -24.924        1.399       20.337       26.013       15.335      413.602      676.686      235.165        0.402        0.066       81.914        9.497        0.013      334.723        4.885      861.721
10/11/2013  05:14:00      -87.453      -13.359       -4.774       33.241       15.620       12.510     1104.972      243.995      156.501        0.468        0.075       88.468       13.038        0.022      334.589        4.661      861.726
10/11/2013  05:15:00      -89.075      -28.165       -1.387       24.277       24.785       14.963      589.358      614.321      223.880        0.508        0.071       93.421       12.230        0.017      334.649        4.760      861.716
10/11/2013  05:16:00      -97.059      -37.890       -3.659       25.153       18.811       14.861      632.687      353.844      220.857        0.604        0.060      104.193       13.316        0.016      334.665        4.787      861.707
10/11/2013  05:17:00      -70.957      -26.326       -2.215       26.198       23.942       15.690      686.352      573.227      246.172        0.362        0.075       75.683       16.576        0.048      334.678        4.810      861.705
10/11/2013  05:18:00      -83.827      -15.291       -2.893       28.153       23.820       16.754      792.570      567.381      280.713        0.445        0.082       85.210       12.385        0.021      334.558        4.611      861.709
10/11/2013  05:19:00     -110.543      -26.726       -8.815       27.600       20.733       14.289      761.762      429.851      204.187        0.720        0.070      113.727       12.860        0.013      334.575        4.637      861.728
10/11/2013  05:20:00     -108.111      -11.591       -7.815       19.868       13.458       15.175      394.744      181.105      230.284        0.634        0.040      108.730       12.963        0.014      334.507        4.525      861.740
10/11/2013  05:21:00     -107.476      -30.779      -10.271       21.259       18.441       11.526      451.946      340.077      132.860        0.676        0.046      111.796        9.953        0.008      334.426        4.391      861.756
10/11/2013  05:22:00     -118.060      -35.903      -15.043       10.385       13.337        8.878      107.841      177.888       78.824        0.791        0.018      123.399        4.586        0.001      334.353        4.270      861.755
10/11/2013  05:23:00      -85.409      -29.050        0.283       22.467       21.733       17.594      504.747      472.338      309.556        0.471        0.064       90.214       15.721        0.030      334.393        4.337      861.747
10/11/2013  05:24:00      -70.556      -33.815        5.260       29.095       19.375       16.909      846.491      375.407      285.906        0.383        0.075       78.240       15.039        0.037      334.467        4.458      861.736
10/11/2013  05:25:00      -74.233      -34.900       -2.927       28.745       16.364       14.014      826.286      267.783      196.380        0.401        0.065       82.028       12.567        0.023      334.497        4.509      861.733
10/11/2013  05:26:00      -52.987      -29.611       -0.864       24.850       17.452       14.570      617.537      304.575      212.279        0.241        0.057       60.699        6.803        0.013      334.563        4.616      861.730
10/11/2013  05:27:00      -95.948      -30.842       -9.255        8.718       13.072        9.281       75.997      170.872       86.128        0.529        0.017      100.784        6.448        0.004      334.525        4.554      861.715
10/11/2013  05:28:00      -94.890      -35.280      -14.813       13.455       13.441        6.959      181.042      180.650       48.430        0.544        0.021      101.236        4.186        0.002      334.578        4.641      861.702
10/11/2013  05:29:00      -90.337      -36.212       -6.008       18.770       22.510       11.416      352.325      506.681      130.326        0.525        0.049       97.325        8.245        0.007      334.660        4.778      861.699
10/11/2013  05:30:00      -88.317      -39.897       -4.348       30.004       19.816        9.813      900.230      392.690       96.295        0.540        0.069       96.911        9.227        0.009      334.622        4.716      861.703
10/11/2013  05:31:00      -99.690      -50.178       -4.268       18.547       15.216       13.929      343.983      231.514      194.020        0.662        0.038      111.606       10.479        0.009      334.610        4.695      861.702
10/11/2013  05:32:00      -84.856      -22.397       -4.650       25.034       20.418       13.187      626.699      416.896      173.903        0.447        0.061       87.762       10.866        0.015      334.582        4.650      861.699
10/11/2013  05:33:00      -84.709      -45.235       -5.050       22.065       20.585       12.486      486.848      423.722      155.898        0.516        0.053       96.030        9.652        0.010      334.542        4.582      861.711
10/11/2013  05:34:00     -119.639      -50.134       -5.972       29.166       24.103       14.067      850.683      580.967      197.893        0.925        0.081      129.718        7.789        0.004      334.509        4.528      861.733
10/11/2013  05:35:00     -130.071      -61.683       -0.825       28.689       29.146       18.760      823.062      849.479      351.922        1.137        0.101      143.956       16.203        0.013      334.490        4.496      861.742
10/11/2013  05:36:00     -123.089      -30.113       -2.902       31.644       21.301       14.788     1001.325      453.744      218.696        0.887        0.084      126.719       12.728        0.010      334.383        4.319      861.747
10/11/2013  05:37:00     -132.861      -24.653      -12.576       36.595       28.204       18.923     1339.205      795.487      358.090        1.045        0.125      135.129       19.850        0.022      334.299        4.179      861.766
10/11/2013  05:38:00      -86.074       -9.803        1.174       50.989       33.121       23.885     2599.850     1097.007      570.499        0.589        0.213       86.630       24.873        0.082      334.169        3.965      861.785
10/11/2013  05:39:00      -95.772      -23.248        0.316       30.445       35.932       19.946      926.913     1291.085      397.851        0.616        0.131       98.553       17.640        0.032      334.210        4.032      861.800
10/11/2013  05:40:00     -122.537      -16.835       -3.782       37.538       27.820       19.660     1409.075      773.928      386.534        0.894        0.128      123.688       19.317        0.024      334.348        4.260      861.809
10/11/2013  05:41:00     -116.375      -10.706      -12.301       27.859       24.448       16.102      776.120      597.713      259.277        0.772        0.082      116.867       11.771        0.010      334.372        4.300      861.821
10/11/2013  05:42:00     -140.108      -30.963      -19.208       32.549       46.983       23.658     1059.460     2207.428      559.685        1.239        0.191      143.488       21.071        0.022      334.349        4.265      861.830
10/11/2013  05:43:00     -112.495      -21.058       -6.627       46.896       32.793       28.161     2199.269     1075.373      793.051        0.860        0.203      114.448       27.080        0.056      334.374        4.305      861.851
10/11/2013  05:44:00      -98.408      -22.433       -0.990       45.519       41.973       22.547     2071.954     1761.752      508.377        0.726        0.217      100.933       26.275        0.068      334.436        4.408      861.858
10/11/2013  05:45:00      -70.030      -47.133       -0.042       47.436       48.292       25.459     2250.185     2332.110      648.157        0.618        0.262       84.414       27.809        0.109      334.459        4.445      861.863
10/11/2013  05:46:00     -123.402      -38.025       -3.810       39.740       42.497       20.508     1579.263     1806.037      420.597        1.025        0.190      129.127       16.573        0.016      334.447        4.425      861.869
10/11/2013  05:47:00     -157.667      -65.169      -22.220       27.783       23.764       17.418      771.890      564.718      303.401        1.562        0.082      170.605       10.857        0.004      334.402        4.350      861.875
10/11/2013  05:48:00     -145.417      -65.368       -6.359       28.983       18.605       16.914      840.016      346.161      286.094        1.347        0.074      159.433       13.817        0.008      334.379        4.313      861.870
10/11/2013  05:49:00     -141.382      -48.138      -10.407       20.699       27.100       15.123      428.461      734.391      228.694        1.190        0.070      149.352       12.933        0.007      334.485        4.489      861.872
10/11/2013  05:50:00     -124.766      -48.189       -9.547       26.943       25.071       17.314      725.924      628.548      299.765        0.982        0.083      133.748       12.271        0.008      334.643        4.751      861.883
10/11/2013  05:51:00     -149.100      -49.824       -9.796       27.467       30.254       16.243      754.427      915.276      263.848        1.337        0.097      157.204       11.954        0.006      334.623        4.717      861.897
10/11/2013  05:52:00     -129.660      -20.438      -11.815       28.302       36.584       19.615      801.006     1338.397      384.735        0.995        0.126      131.260       17.131        0.017      334.554        4.603      861.916
10/11/2013  05:53:00     -199.489       -0.667      -24.949       36.862       27.019       16.899     1358.780      730.009      285.591        2.140        0.119      199.490       15.981        0.006      334.669        4.792      861.928
10/11/2013  05:54:00     -184.815       -5.037      -16.205       55.548       54.380       30.386     3085.608     2957.172      923.336        2.070        0.348      184.884       31.353        0.029      334.659        4.775      861.934
10/11/2013  05:55:00     -135.753      -10.815       -8.486       47.940       42.536       29.502     2298.196     1809.323      870.345        1.180        0.249      136.183       24.740        0.033      334.693        4.833      861.924
10/11/2013  05:56:00     -145.560       -3.794      -14.291       54.913       39.935       26.136     3015.455     1594.815      683.069        1.335        0.265      145.610       28.524        0.038      334.818        5.040      861.910
10/11/2013  05:57:00     -123.793       17.349       -4.702       25.383       48.613       23.314      644.283     2363.215      543.534        0.960        0.178      125.003       13.768        0.012      334.828        5.058      861.899
10/11/2013  05:58:00     -138.224       -3.958      -10.261       28.422       41.381       21.887      807.787     1712.391      479.050        1.111        0.150      138.280       16.178        0.014      334.815        5.037      861.892
10/11/2013  05:59:00     -111.746        5.450       -9.510       43.133       51.200       25.700     1860.430     2621.487      660.497        0.887        0.257      111.879       18.605        0.028      334.797        5.007      861.882
10/11/2013  06:00:00     -209.050       -4.117      -21.875       47.380       35.590       21.635     2244.841     1266.646      468.059        2.409        0.199      209.091       18.553        0.008      334.785        4.984      861.883
10/11/2013  06:01:00     -153.705      -31.590      -12.072       47.583       46.669       26.842     2264.117     2177.960      720.507        1.496        0.258      156.918       15.763        0.010      334.789        4.993      861.888
10/11/2013  06:02:00     -150.144      -32.821      -20.114       42.771       32.882       21.104     1829.351     1081.248      445.399        1.369        0.168      153.689       15.510        0.010      334.808        5.024      861.905
10/11/2013  06:03:00     -158.424      -29.764      -10.103       27.502       28.399       19.035      756.383      806.529      362.340        1.401        0.096      161.195       15.923        0.010      334.787        4.988      861.915
10/11/2013  06:04:00     -153.108      -20.080       -7.781       46.271       33.956       24.922     2141.033     1153.007      621.097        1.391        0.196      154.419       25.096        0.026      334.790        4.995      861.920
10/11/2013  06:05:00     -116.282      -49.285      -10.353       34.511       21.397       20.537     1191.032      457.814      421.777        0.906        0.104      126.295       18.391        0.021      334.823        5.049      861.923
10/11/2013  06:06:00      -98.850      -30.104        1.508       42.692       32.611       26.424     1822.616     1063.488      698.212        0.713        0.179      103.332       23.406        0.051      334.834        5.069      861.928
10/11/2013  06:07:00      -99.030      -27.609        0.447       47.698       29.698       20.842     2275.079      881.970      434.407        0.708        0.180      102.806       21.225        0.043      334.813        5.034      861.926
10/11/2013  06:08:00     -116.339      -31.383       -4.637       32.167       30.334       17.227     1034.734      920.179      296.769        0.840        0.113      120.497       15.721        0.017      334.848        5.092      861.923
10/11/2013  06:09:00     -130.918      -44.032       -4.338       25.207       31.512       18.003      635.391      993.008      324.120        1.052        0.098      138.124        8.254        0.004      334.901        5.180      861.929
10/11/2013  06:10:00     -130.187      -43.869       -7.956       27.492       43.939       22.202      755.802     1930.638      492.936        1.106        0.159      137.379       17.454        0.016      334.813        5.033      861.939
10/11/2013  06:11:00     -183.552        4.008      -14.501       44.958       41.147       28.033     2021.229     1693.047      785.857        1.921        0.225      183.596       28.241        0.024      334.824        5.053      861.952
10/11/2013  06:12:00     -183.188       -6.755      -14.293       37.819       40.263       25.100     1430.250     1621.088      630.033        1.874        0.184      183.312       16.743        0.008      334.825        5.053      861.963
10/11/2013  06:13:00     -143.946       -4.102      -21.659       40.873       30.511       25.834     1670.623      930.951      667.406        1.224        0.163      144.005       21.477        0.022      334.873        5.133      861.978
10/11/2013  06:14:00     -124.662      -23.497      -12.264       33.559       29.819       19.659     1126.177      889.151      386.483        0.932        0.120      126.857       16.532        0.017      334.837        5.073      861.985
10/11/2013  06:15:00     -124.246      -33.899       -5.419       44.208       34.778       23.544     1954.313     1209.475      554.301        1.017        0.186      128.787       26.272        0.042      334.812        5.031      861.988
10/11/2013  06:16:00     -127.763      -11.451      -13.022       37.683       23.941       18.903     1419.999      573.177      357.315        0.949        0.118      128.275       19.221        0.022      334.733        4.900      861.995
10/11/2013  06:17:00     -154.676      -13.042      -14.801       19.533       19.223       13.938      381.537      369.521      194.279        1.263        0.047      155.225       10.294        0.004      334.732        4.898      861.997
10/11/2013  06:18:00     -123.137      -32.990       -7.428       22.602       29.404       15.106      510.839      864.606      228.199        0.895        0.080      127.480        3.275        0.001      334.701        4.846      862.005
10/11/2013  06:19:00     -132.033      -40.437       -9.984       38.720       25.449       14.243     1499.229      647.647      202.863        1.076        0.117      138.087       15.452        0.013      334.760        4.943      862.026
10/11/2013  06:20:00     -137.066      -15.615      -10.330       26.016       23.849       17.040      676.817      568.776      290.354        1.034        0.077      137.953       14.103        0.010      334.644        4.753      862.046
10/11/2013  06:21:00     -141.929       -5.841      -15.355       17.262       27.732       12.374      297.992      769.062      153.120        1.082        0.061      142.049        5.915        0.002      334.661        4.780      862.058
10/11/2013  06:22:00     -142.684        8.287      -15.774       37.166       24.998       18.954     1381.338      624.922      359.272        1.152        0.118      142.924       19.571        0.019      334.718        4.874      862.073
10/11/2013  06:23:00     -120.222        0.630       -8.906       27.003       27.238       17.551      729.140      741.891      308.029        0.816        0.089      120.224       10.572        0.008      334.672        4.799      862.090
10/11/2013  06:24:00     -124.211       20.340      -12.680       18.891       24.288       15.446      356.879      589.896      238.594        0.859        0.059      125.866        9.383        0.006      334.664        4.787      862.103
10/11/2013  06:25:00     -109.379        3.028       -9.666       22.072       14.107       13.083      487.162      199.021      171.175        0.646        0.043      109.421        4.921        0.002      334.673        4.800      862.113
10/11/2013  06:26:00      -73.765        1.170       -5.314       19.949       14.906       15.989      397.973      222.193      255.643        0.317        0.044       73.774       10.574        0.021      334.650        4.762      862.109
10/11/2013  06:27:00      -36.847      -17.626       -1.785       21.880       16.156        8.486      478.750      261.004       72.014        0.124        0.041       40.846        5.022        0.015      334.722        4.883      862.104
10/11/2013  06:28:00        9.466       13.841       -5.772       16.135       13.441       15.503      260.345      180.673      240.358        0.050        0.034       16.768       10.297        0.377      334.764        4.954      862.106
10/11/2013  06:29:00        6.702       27.114      -11.926       17.115       19.974       10.947      292.924      398.971      119.847        0.087        0.041       27.930       12.782        0.209      334.628        4.727      862.119
10/11/2013  06:30:00       53.663       48.255        0.112       24.083       18.237       20.273      579.982      332.590      410.994        0.327        0.066       72.168       11.682        0.026      334.301        4.185      862.127
10/11/2013  06:31:00       69.592       43.179        3.312       16.346       17.137       17.821      267.179      293.671      317.597        0.380        0.044       81.899        8.489        0.011      334.300        4.182      862.141
10/11/2013  06:32:00       53.113       32.795        3.520        9.675       10.860        7.441       93.601      117.947       55.368        0.209        0.013       62.422        4.616        0.005      334.235        4.074      862.158
10/11/2013  06:33:00       48.953       27.642        3.707       11.440        9.375        9.510      130.875       87.885       90.431        0.174        0.015       56.218        6.430        0.013      334.310        4.199      862.165
10/11/2013  06:34:00       50.198       22.291       -1.484        7.573        7.989        3.839       57.343       63.825       14.742        0.158        0.007       54.925        2.131        0.002      334.474        4.471      862.171
10/11/2013  06:35:00       16.497        1.499       -1.359       12.120        6.414        4.410      146.884       41.140       19.445        0.024        0.010       16.564        3.891        0.055      334.597        4.674      862.165
10/11/2013  06:36:00      -11.268      -11.189        2.731        6.137        9.367        7.173       37.662       87.746       51.453        0.022        0.009       15.880        4.058        0.065      334.733        4.899      862.174
10/11/2013  06:37:00      -52.435      -19.802       -4.759       16.549        8.394        8.129      273.877       70.457       66.074        0.179        0.021       56.050        7.370        0.017      334.730        4.896      862.185
10/11/2013  06:38:00      -75.339      -14.085      -12.570       14.309       13.810       11.028      204.743      190.714      121.610        0.327        0.026       76.644        7.218        0.009      334.532        4.566      862.208
10/11/2013  06:39:00      -87.551      -31.848       -7.259       17.033       17.559       11.134      290.111      308.319      123.963        0.473        0.036       93.164        6.181        0.004      334.443        4.418      862.226
10/11/2013  06:40:00      -64.629      -43.419       -1.108       20.621       15.533       14.311      425.228      241.265      204.813        0.347        0.044       77.860       11.109        0.020      334.582        4.651      862.233
10/11/2013  06:41:00      -69.372      -40.233       -2.932       23.728       13.393       11.317      563.032      179.361      128.065        0.365        0.044       80.194        9.026        0.013      334.615        4.706      862.232
10/11/2013  06:42:00      -89.694      -36.521      -10.379        9.141       10.470        8.296       83.557      109.614       68.816        0.487        0.013       96.844        5.608        0.003      334.572        4.631      862.232
10/11/2013  06:43:00     -107.905       -7.904      -12.470       33.612       23.364       12.538     1129.760      545.865      157.190        0.685        0.092      108.194       11.764        0.012      334.510        4.531      862.244
10/11/2013  06:44:00     -101.420      -14.980       -6.954       28.720       20.361       18.417      824.836      414.567      339.201        0.607        0.079      102.520       17.948        0.031      334.357        4.278      862.261
10/11/2013  06:45:00      -91.898      -15.089       -5.994       27.551       19.280       15.951      759.046      371.712      254.450        0.505        0.069       93.128       15.617        0.028      334.354        4.272      862.272
10/11/2013  06:46:00      -67.000      -23.923       -4.632       19.724       23.546       12.456      389.041      554.419      155.161        0.309        0.055       71.142        9.199        0.017      334.439        4.412      862.274
10/11/2013  06:47:00      -75.302      -43.716       -4.913       15.865       15.378        9.131      251.709      236.474       83.380        0.409        0.029       87.071        7.893        0.008      334.576        4.639      862.278
10/11/2013  06:48:00      -79.178      -16.672       -3.514       40.742       27.391       16.137     1659.905      750.245      260.388        0.461        0.134       80.915       18.406        0.052      334.555        4.605      862.283
10/11/2013  06:49:00     -118.082      -17.966      -12.655       25.613       20.955       17.543      656.010      439.097      307.751        0.791        0.070      119.441       15.113        0.016      334.426        4.392      862.300
10/11/2013  06:50:00      -75.649      -35.071        2.759       23.448       25.246       15.948      549.806      637.344      254.332        0.420        0.072       83.383        8.741        0.011      334.478        4.477      862.311
10/11/2013  06:51:00      -78.927      -39.769        1.981       27.430       22.006       16.477      752.417      484.259      271.499        0.466        0.075       88.380       13.690        0.024      334.612        4.698      862.326
10/11/2013  06:52:00     -115.645      -32.853      -12.836       16.268       15.621       13.622      264.641      244.010      185.560        0.766        0.035      120.221        6.820        0.003      334.597        4.674      862.338
10/11/2013  06:53:00      -90.055      -24.524       -9.262       26.004       25.643       11.670      676.189      657.574      136.197        0.513        0.073       93.335       10.316        0.012      334.554        4.603      862.346
10/11/2013  06:54:00      -88.871      -24.030       -9.452       18.238       20.517       12.519      332.633      420.943      156.730        0.474        0.046       92.063       11.242        0.015      334.493        4.502      862.350
10/11/2013  06:55:00      -76.231      -24.695      -13.562       18.408       15.144        9.472      338.852      229.350       89.725        0.363        0.033       80.131        7.194        0.008      334.453        4.438      862.352
10/11/2013  06:56:00      -36.456      -32.839       -2.572       22.780       14.335       11.860      518.914      205.506      140.669        0.164        0.043       49.066        9.667        0.039      334.556        4.608      862.345
10/11/2013  06:57:00      -48.492      -38.461        2.069       40.917       24.532       19.544     1674.162      601.813      381.960        0.325        0.133       61.893       21.684        0.123      334.514        4.537      862.342
10/11/2013  06:58:00      -62.792      -34.617        4.619       41.994       27.339       19.897     1763.505      747.397      395.871        0.403        0.145       71.702       21.324        0.088      334.476        4.475      862.346
10/11/2013  06:59:00     -125.847      -58.665       -1.898       28.595       19.666       20.376      817.678      386.734      415.198        1.045        0.081      138.849       15.956        0.013      334.470        4.464      862.358
10/11/2013  07:00:00     -114.313      -56.399      -10.547       24.595       19.317       15.789      604.921      373.161      249.290        0.879        0.061      127.469       12.964        0.010      334.489        4.496      862.375
10/11/2013  07:01:00      -85.595      -48.160       -6.807       33.481       20.325       17.494     1120.974      413.087      306.044        0.577        0.092       98.213       15.099        0.024      334.539        4.579      862.385
10/11/2013  07:02:00      -96.973      -34.737       -6.413       19.875       19.377       14.410      395.003      375.459      207.640        0.581        0.049      103.007        6.223        0.004      334.511        4.532      862.389
10/11/2013  07:03:00      -78.145      -56.475       -5.757       44.079       25.093       19.299     1942.982      629.636      372.436        0.614        0.147       96.416       20.593        0.046      334.500        4.513      862.401
10/11/2013  07:04:00     -131.247      -60.494       -7.630       25.256       29.622       14.994      637.842      877.484      224.806        1.134        0.087      144.517        9.774        0.005      334.476        4.474      862.409
10/11/2013  07:05:00     -115.613      -32.664       -2.593       32.131       27.837       16.054     1032.425      774.922      257.726        0.825        0.103      120.138        9.977        0.007      334.481        4.481      862.426
10/11/2013  07:06:00      -47.898      -40.461        6.426       40.169       32.202       17.951     1613.571     1036.944      322.241        0.347        0.149       62.700       20.945        0.112      334.430        4.398      862.441
10/11/2013  07:07:00      -73.354      -23.466       -2.321       36.996       24.602       18.439     1368.682      605.264      339.989        0.412        0.116       77.016       14.704        0.036      334.439        4.413      862.465
10/11/2013  07:08:00      -92.433      -38.044        2.636       36.291       28.058       19.665     1317.043      787.234      386.717        0.624        0.125       99.956       21.472        0.046      334.353        4.269      862.487
10/11/2013  07:09:00      -94.478      -40.890       -3.125       35.637       29.043       21.264     1269.986      843.497      452.157        0.659        0.128      102.947       18.657        0.033      334.357        4.276      862.499
10/11/2013  07:10:00      -86.449      -27.193       -0.695       27.900       23.272       14.945      778.399      541.571      223.366        0.488        0.077       90.625       13.519        0.022      334.335        4.239      862.504
10/11/2013  07:11:00     -117.100      -40.828      -10.999       21.417       26.981       14.232      458.686      727.957      202.544        0.844        0.069      124.013        9.396        0.006      334.343        4.254      862.513
10/11/2013  07:12:00      -84.946      -11.352       -1.842       32.105       27.388       17.621     1030.752      750.090      310.488        0.472        0.105       85.701       16.957        0.039      334.296        4.176      862.519
10/11/2013  07:13:00      -69.576       -9.326        1.143       28.708       21.096       14.505      824.176      445.037      210.389        0.320        0.074       70.199       13.510        0.037      334.237        4.077      862.526
10/11/2013  07:14:00      -76.854       -4.848        1.356       26.698       20.739       14.106      712.779      430.102      198.965        0.364        0.067       77.006       14.014        0.033      334.222        4.052      862.534
10/11/2013  07:15:00      -76.933      -12.040       -7.727       26.182       16.933       13.787      685.471      286.731      190.085        0.364        0.058       77.870       11.944        0.024      334.243        4.089      862.531
10/11/2013  07:16:00      -43.454      -36.248        9.036       36.189       24.097       17.076     1309.620      580.685      291.578        0.273        0.109       56.588       18.710        0.109      334.435        4.408      862.528
10/11/2013  07:17:00      -39.395      -35.681        3.196       30.591       17.968       15.443      935.781      322.836      238.474        0.217        0.075       53.152       13.216        0.062      334.479        4.480      862.516
10/11/2013  07:18:00      -22.100      -21.784       10.807       24.298       12.226       12.671      590.383      149.487      160.546        0.099        0.045       31.031       14.380        0.215      334.509        4.527      862.494
10/11/2013  07:19:00       -9.856      -19.176        8.914       17.466       13.480       13.072      305.064      181.713      170.883        0.060        0.033       21.561        9.958        0.213      334.474        4.469      862.468
10/11/2013  07:20:00      -36.209      -30.150       -0.362       26.199       20.082       15.982      686.386      403.269      255.422        0.178        0.067       47.118        9.151        0.038      334.477        4.475      862.446
10/11/2013  07:21:00      -82.792      -43.659       -1.557       18.252       15.810       15.046      333.148      249.942      226.393        0.479        0.040       93.598       10.360        0.012      334.373        4.303      862.438
10/11/2013  07:22:00     -108.009      -69.062       -0.484       45.465       54.849       25.521     2067.100     3008.452      651.337        1.108        0.286      128.201       25.142        0.038      334.387        4.324      862.443
10/11/2013  07:23:00      -93.395      -68.036       -4.488       56.177       47.865       31.638     3155.843     2291.079     1000.951        0.991        0.322      115.549       29.279        0.064      334.373        4.304      862.458
10/11/2013  07:24:00      -77.306      -42.972        6.934       69.537       45.170       28.566     4835.455     2040.284      815.997        0.778        0.385       88.447       30.952        0.122      334.408        4.361      862.467
10/11/2013  07:25:00     -100.836      -96.126       -1.032       58.283       40.626       26.789     3396.958     1650.499      717.670        1.259        0.288      139.313       29.533        0.045      334.455        4.438      862.479
10/11/2013  07:26:00      -82.254      -87.666        3.362       46.091       32.064       28.660     2124.396     1028.081      821.369        0.922        0.199      120.212       28.525        0.056      334.421        4.382      862.479
10/11/2013  07:27:00      -86.429      -75.868        0.177       44.280       31.816       27.899     1960.740     1012.259      778.379        0.849        0.188      115.004       26.617        0.054      334.340        4.247      862.487
10/11/2013  07:28:00      -69.857      -60.902        4.335       39.706       29.721       22.247     1576.594      883.361      494.946        0.578        0.148       92.677       20.114        0.047      334.382        4.318      862.503
10/11/2013  07:29:00     -109.002      -84.817       -2.881       43.027       56.410       31.798     1851.284     3182.089     1011.119        1.256        0.302      138.113       24.172        0.031      334.311        4.200      862.514
10/11/2013  07:30:00     -123.042      -94.776       -1.887       50.027       43.220       31.781     2502.664     1867.981     1010.012        1.475        0.269      155.312       30.509        0.039      334.269        4.130      862.526
10/11/2013  07:31:00     -127.383      -98.800        2.475       49.114       48.030       30.179     2412.198     2306.892      910.794        1.581        0.281      161.208       32.887        0.042      334.343        4.253      862.529
10/11/2013  07:32:00      -87.339      -85.411        0.261       35.894       38.357       27.652     1288.367     1471.223      764.646        0.922        0.176      122.160       25.178        0.042      334.382        4.319      862.525
10/11/2013  07:33:00      -82.977      -69.018        9.965       54.909       43.368       25.329     3014.958     1880.819      641.580        0.864        0.277      107.929       25.566        0.056      334.487        4.491      862.531
10/11/2013  07:34:00     -104.207      -73.445        0.585       54.530       43.649       24.815     2973.508     1905.240      615.765        1.087        0.275      127.489       26.767        0.044      334.461        4.449      862.543
10/11/2013  07:35:00      -93.014      -97.042        2.818       54.054       37.337       31.417     2921.783     1394.050      987.013        1.169        0.265      134.420       33.328        0.061      334.461        4.448      862.558
10/11/2013  07:36:00      -82.375      -65.162        5.450       51.184       44.429       24.631     2619.762     1973.940      606.702        0.813        0.260      105.032       21.386        0.041      334.454        4.438      862.557
10/11/2013  07:37:00     -101.684      -95.130       -1.128       39.220       36.555       24.190     1538.219     1336.282      585.150        1.142        0.173      139.246       22.080        0.025      334.517        4.542      862.557
10/11/2013  07:38:00     -102.416      -52.817        3.333       51.963       31.644       22.115     2700.165     1001.368      489.066        0.874        0.210      115.233       21.822        0.036      334.480        4.481      862.566
10/11/2013  07:39:00      -73.340      -41.108        1.244       42.212       31.967       23.895     1781.861     1021.912      570.989        0.522        0.169       84.075       23.919        0.081      334.527        4.558      862.579
10/11/2013  07:40:00      -99.475      -45.674        0.804       43.883       40.861       22.133     1925.715     1669.611      489.890        0.803        0.204      109.460       18.171        0.028      334.499        4.512      862.581
10/11/2013  07:41:00      -72.565      -51.866       -4.655       40.007       23.476       22.514     1600.595      551.136      506.866        0.532        0.133       89.195       23.179        0.068      334.413        4.370      862.589
10/11/2013  07:42:00     -104.719      -35.992       -4.313       25.754       21.435       20.626      663.292      459.450      425.416        0.691        0.077      110.731       12.785        0.013      334.378        4.312      862.586
10/11/2013  07:43:00      -99.040      -25.144        1.146       26.250       29.527       18.753      689.044      871.819      351.690        0.618        0.096      102.182       13.929        0.019      334.410        4.364      862.578
10/11/2013  07:44:00      -81.620      -12.402        1.826       33.298       28.800       19.586     1108.778      829.431      383.611        0.457        0.116       82.557       16.324        0.039      334.401        4.352      862.566
10/11/2013  07:45:00     -109.930      -27.081       -6.647       31.101       26.996       19.227      967.258      728.761      369.672        0.746        0.103      113.216       18.894        0.028      334.420        4.382      862.560
10/11/2013  07:46:00      -87.622      -18.920       -1.439       29.051       20.602       16.277      843.942      424.459      264.929        0.479        0.077       89.642       10.237        0.013      334.415        4.373      862.549
10/11/2013  07:47:00      -80.198      -32.389        4.376       38.324       27.411       17.752     1468.698      751.364      315.131        0.502        0.127       86.491       18.252        0.045      334.443        4.420      862.556
10/11/2013  07:48:00      -95.145      -36.941        5.403       30.863       29.815       20.636      952.543      888.943      425.858        0.636        0.113      102.065       16.596        0.026      334.456        4.440      862.552
10/11/2013  07:49:00      -83.118      -60.700       -0.012       47.093       34.330       19.514     2217.771     1178.560      380.781        0.718        0.189      102.923       23.081        0.050      334.506        4.523      862.564
10/11/2013  07:50:00     -108.046      -75.142       -5.659       24.727       29.669       17.413      611.424      880.258      303.198        0.957        0.090      131.607       16.527        0.016      334.504        4.520      862.566
10/11/2013  07:51:00      -80.421      -60.093       -4.558       33.515       36.129       20.007     1123.229     1305.312      400.283        0.646        0.141      100.392       21.578        0.046      334.569        4.628      862.566
10/11/2013  07:52:00      -77.871      -27.192       -4.196       25.579       27.053       16.885      654.294      731.850      285.100        0.425        0.084       82.482       12.521        0.023      334.646        4.757      862.569
10/11/2013  07:53:00      -81.312      -67.017       -2.317       50.644       40.424       23.198     2564.788     1634.098      538.159        0.792        0.237      105.370       28.906        0.075      334.672        4.800      862.570
10/11/2013  07:54:00      -87.954      -94.467      -10.637       36.591       25.708       26.344     1338.915      660.887      694.004        0.973        0.135      129.073       24.380        0.036      334.581        4.648      862.572
10/11/2013  07:55:00      -85.411     -100.405       -6.318       29.703       30.752       21.212      882.241      945.700      449.942        0.985        0.114      131.819       15.751        0.014      334.617        4.707      862.573
10/11/2013  07:56:00     -106.800      -94.814      -10.453       39.200       30.329       20.431     1536.651      919.858      417.436        1.169        0.144      142.814       16.812        0.014      334.625        4.721      862.579
10/11/2013  07:57:00     -104.848      -91.418       -2.000       30.382       31.556       22.655      923.092      995.798      513.247        1.089        0.122      139.105       19.519        0.020      334.682        4.816      862.593
10/11/2013  07:58:00      -57.879      -63.550        7.583       43.057       34.858       27.530     1853.893     1215.049      757.920        0.564        0.191       85.957       19.738        0.053      334.717        4.873      862.618
10/11/2013  07:59:00      -95.275      -70.374       -1.725       41.917       26.270       23.824     1757.039      690.111      567.594        0.852        0.151      118.447       26.068        0.048      334.730        4.894      862.637
10/11/2013  08:00:00      -71.738      -67.509        0.149       38.729       41.510       27.575     1499.970     1723.104      760.398        0.684        0.199       98.508       26.194        0.071      334.793        4.999      862.667
10/11/2013  08:01:00      -61.828      -89.559       -7.905       34.278       23.713       21.709     1174.965      562.327      471.278        0.706        0.110      108.828       18.695        0.030      334.817        5.039      862.697
10/11/2013  08:02:00      -52.925      -65.176        1.239       28.953       30.068       21.615      838.304      904.098      467.221        0.463        0.110       83.959       19.807        0.056      334.906        5.187      862.724
10/11/2013  08:03:00      -55.967      -74.255       -2.180       25.056       27.995       16.718      627.814      783.715      279.496        0.517        0.085       92.984       12.623        0.018      334.908        5.190      862.752
10/11/2013  08:04:00      -34.983      -70.027       -4.018       20.025       18.109       14.530      401.016      327.934      211.131        0.354        0.047       78.279       13.103        0.028      334.978        5.307      862.767
10/11/2013  08:05:00      -33.827      -45.868       -5.664       15.653       27.282       11.082      245.032      744.297      122.822        0.220        0.056       56.992        9.017        0.025      335.059        5.440      862.783
10/11/2013  08:06:00      -40.814      -31.795      -11.526        9.155       19.668       11.209       83.809      386.835      125.643        0.170        0.030       51.737        6.328        0.015      335.054        5.435      862.800
10/11/2013  08:07:00      -36.308      -30.763       -6.900       11.420       12.962        9.376      130.413      168.002       87.918        0.135        0.019       47.588        5.207        0.012      335.081        5.479      862.816
10/11/2013  08:08:00      -15.132       -9.360        1.318       13.385       11.726       10.461      179.170      137.487      109.429        0.037        0.021       17.793        7.835        0.194      335.310        5.858      862.842
10/11/2013  08:09:00      -29.213       -9.761       -1.149       18.876       11.400       10.089      356.304      129.969      101.779        0.077        0.029       30.801        9.005        0.085      335.243        5.747      862.853
10/11/2013  08:10:00      -32.084      -17.725        0.024       16.651       17.809        9.607      277.254      317.177       92.299        0.102        0.034       36.655        7.380        0.041      335.226        5.718      862.855
10/11/2013  08:11:00      -11.214      -17.815       12.090       20.273       21.532       13.110      411.006      463.637      171.878        0.082        0.052       21.051       10.251        0.237      335.417        6.037      862.849
10/11/2013  08:12:00      -41.143      -61.579       -3.172       17.028       19.610       10.007      289.951      384.564      100.140        0.313        0.039       74.059        8.767        0.014      335.247        5.753      862.845
10/11/2013  08:13:00      -26.015      -32.749        1.214       20.770       16.902       14.607      431.380      285.691      213.378        0.134        0.047       41.824       10.188        0.059      335.336        5.901      862.845
10/11/2013  08:14:00      -37.265      -43.617        2.332       21.818       26.828       12.154      476.022      719.750      147.714        0.232        0.067       57.368       12.508        0.048      335.345        5.915      862.841
10/11/2013  08:15:00      -50.554      -52.431       -7.411        6.876       13.764        5.936       47.286      189.449       35.237        0.282        0.014       72.833        3.340        0.002      335.276        5.801      862.847
10/11/2013  08:16:00      -44.487      -21.736       -1.963       11.853       11.494        9.390      140.491      132.103       88.168        0.141        0.018       49.513        7.973        0.026      335.375        5.966      862.861
10/11/2013  08:17:00      -28.584      -39.990        0.179       26.493       23.444       13.057      701.853      549.635      170.494        0.192        0.071       49.155       10.773        0.048      335.569        6.289      862.876
10/11/2013  08:18:00      -52.779      -22.532       -8.410       21.767       30.590       16.512      473.820      935.722      272.641        0.252        0.084       57.387       19.449        0.115      335.507        6.187      862.891
10/11/2013  08:19:00      -43.400      -18.779       -8.530       19.386       23.275        7.735      375.826      541.722       59.830        0.164        0.049       47.289       10.044        0.045      335.475        6.134      862.903
10/11/2013  08:20:00      -33.793      -46.391       -0.030       15.901       26.245       11.504      252.841      688.778      132.346        0.218        0.054       57.394        6.043        0.011      335.468        6.122      862.901
10/11/2013  08:21:00      -27.569      -23.247        4.850       24.073       28.863       22.660      579.497      833.087      513.471        0.162        0.096       36.062       17.594        0.238      335.708        6.522      862.892
10/11/2013  08:22:00      -23.000       14.678       27.417       16.960       10.910       12.891      287.657      119.021      166.189        0.103        0.029       27.285        7.643        0.078      335.988        6.989      862.888
10/11/2013  08:23:00       -0.215       20.160        1.262       14.921       26.114       16.869      222.630      681.940      284.561        0.080        0.059       20.161        7.427        0.136      335.851        6.761      862.878
10/11/2013  08:24:00      -38.146       35.435       28.600       37.555       25.358       27.606     1410.356      643.052      762.078        0.317        0.141       52.065       20.391        0.153      335.877        6.805      862.880
10/11/2013  08:25:00       -5.529       -0.008       24.180       22.282       41.799       28.002      496.470     1747.174      784.136        0.182        0.151        5.529       30.616       30.667      336.193        7.331      862.876
10/11/2013  08:26:00       -6.141       14.939       29.379       19.027       15.154       20.550      362.022      229.646      422.294        0.107        0.051       16.152       11.843        0.538      336.262        7.445      862.869
10/11/2013  08:27:00       -8.914        1.646       30.543       12.497       13.819       11.577      156.171      190.967      134.023        0.075        0.024        9.064        7.939        0.767      336.486        7.819      862.861
10/11/2013  08:28:00      -23.740       27.222       17.533       25.258       18.854       22.004      637.952      355.490      484.191        0.154        0.074       36.119       12.948        0.129      336.084        7.149      862.863
10/11/2013  08:29:00      -13.547        9.945       13.779       24.298       15.188       20.508      590.411      230.663      420.598        0.086        0.062       16.806        9.154        0.297      336.181        7.309      862.856
10/11/2013  08:30:00       15.935       38.776       37.352       20.823       28.875       14.106      433.591      833.772      198.986        0.231        0.073       41.923       12.187        0.085      336.150        7.258      862.849
10/11/2013  08:31:00      -15.228       12.714       39.309       17.918       19.808       18.799      321.056      392.350      353.413        0.150        0.053       19.838       14.682        0.548      336.337        7.572      862.864
10/11/2013  08:32:00       -5.037       12.301       10.272       26.442       22.632       19.520      699.202      512.193      381.015        0.094        0.080       13.292       11.644        0.767      336.202        7.345      862.875
10/11/2013  08:33:00      -23.683        6.996       19.505       23.690       31.388       22.674      561.208      985.187      514.124        0.152        0.103       24.695       14.745        0.356      336.197        7.337      862.890
10/11/2013  08:34:00       -2.284       51.207       57.251       26.109       24.616       27.525      681.663      605.964      757.630        0.397        0.102       51.258       20.574        0.161      336.246        7.420      862.903
10/11/2013  08:35:00      -27.104        9.159       28.915       36.143       30.306       29.818     1306.323      918.446      889.096        0.238        0.156       28.609       28.545        0.996      336.143        7.245      862.915
10/11/2013  08:36:00      -31.794       -4.963        8.111       29.737       25.330       14.625      884.309      641.614      213.889        0.142        0.087       32.180       10.490        0.106      336.204        7.349      862.921
10/11/2013  08:37:00      -36.754      -22.524       -2.173       22.881       21.025       12.143      523.555      442.052      147.456        0.149        0.056       43.107       12.125        0.079      335.851        6.760      862.925
10/11/2013  08:38:00      -40.912       16.655        3.796       15.215       29.611       12.319      231.511      876.794      151.747        0.161        0.063       44.172        9.806        0.049      335.911        6.861      862.938
10/11/2013  08:39:00      -15.943        4.119        8.707       16.316       15.029       12.339      266.196      225.884      152.244        0.050        0.032       16.466        9.254        0.316      336.346        7.586      862.956
10/11/2013  08:40:00       -5.185       15.319       18.425       19.195       13.467       13.709      368.457      181.364      187.937        0.067        0.037       16.172        8.058        0.248      336.503        7.848      862.957
10/11/2013  08:41:00        1.635       44.864       39.164       32.322       15.749       16.088     1044.708      248.046      258.828        0.255        0.078       44.894       10.443        0.054      336.361        7.612      862.959
10/11/2013  08:42:00      -25.669        6.998        2.183       32.358       20.146       13.443     1047.067      405.854      180.709        0.117        0.082       26.605       10.468        0.155      336.210        7.359      862.956
10/11/2013  08:43:00      -40.974      -17.241       -0.168       17.682       18.646       18.537      312.646      347.682      343.608        0.149        0.050       44.454       12.680        0.081      335.971        6.959      862.941
10/11/2013  08:44:00      -72.704      -32.711        5.560       32.992       31.336       20.578     1088.468      981.951      423.456        0.444        0.125       79.724       20.089        0.063      335.965        6.950      862.929
10/11/2013  08:45:00      -61.630      -60.647       -1.160       26.014       40.262       19.574      676.723     1621.025      383.128        0.508        0.134       86.465       20.598        0.057      335.920        6.874      862.932
10/11/2013  08:46:00      -37.604      -70.863       -3.143       39.951       48.128       21.884     1596.073     2316.324      478.912        0.542        0.220       80.223       16.072        0.040      336.047        7.087      862.939
10/11/2013  08:47:00      -34.413      -50.417       -1.808       28.771       23.779       16.253      827.752      565.449      264.163        0.269        0.083       61.042        8.129        0.018      335.993        6.995      862.942
10/11/2013  08:48:00      -70.930      -69.296        2.435       43.310       32.485       29.060     1875.722     1055.255      844.455        0.681        0.189       99.161       29.129        0.086      336.069        7.123      862.955
10/11/2013  08:49:00      -98.251      -83.137       -8.175       29.846       35.003       24.859      890.778     1225.195      617.965        0.968        0.137      128.706       22.705        0.031      335.936        6.901      862.964
10/11/2013  08:50:00      -68.186      -55.494      -11.284       44.290       53.716       26.282     1961.619     2885.386      690.738        0.670        0.277       87.914       30.060        0.117      336.050        7.092      862.970
10/11/2013  08:51:00      -96.238      -63.488        5.557       46.289       39.813       19.346     2142.627     1585.089      374.278        0.871        0.205      115.293       17.539        0.023      336.012        7.028      862.983
10/11/2013  08:52:00      -84.018      -85.508      -10.614       26.432       19.868       16.730      698.647      394.741      279.878        0.793        0.069      119.877       12.988        0.012      335.976        6.967      862.997
10/11/2013  08:53:00      -74.706      -55.008       -6.169       22.468       23.728       18.727      504.803      562.999      350.710        0.503        0.071       92.773       16.164        0.030      336.043        7.079      863.009
10/11/2013  08:54:00      -79.158      -54.669       -9.145       19.829       32.250       12.801      393.178     1040.092      163.877        0.547        0.080       96.201       14.290        0.022      336.051        7.092      863.017
10/11/2013  08:55:00      -57.821       -6.721       -6.973       21.911       23.156       10.878      480.074      536.195      118.336        0.229        0.057       58.210        9.309        0.026      336.107        7.186      863.023
10/11/2013  08:56:00      -43.565      -13.644        8.227       29.952       23.498       16.367      897.146      552.152      267.893        0.193        0.086       45.652       13.523        0.088      336.244        7.416      863.017
10/11/2013  08:57:00      -31.886      -52.011        0.698       17.693       23.654       16.294      313.029      559.518      265.490        0.243        0.057       61.007       14.225        0.054      336.261        7.445      862.998
10/11/2013  08:58:00      -33.106      -23.225       -2.202       22.747       25.343       14.559      517.434      642.269      211.962        0.151        0.069       40.440       16.527        0.167      336.431        7.727      862.977
10/11/2013  08:59:00      -37.857      -46.589        1.235       32.641       37.504       17.545     1065.463     1406.517      307.837        0.319        0.139       60.031       12.878        0.046      336.424        7.717      862.957
10/11/2013  09:00:00      -41.593      -62.385        2.268       30.009       38.980       20.978      900.551     1519.445      440.074        0.424        0.143       74.979       17.414        0.054      336.291        7.493      862.945
10/11/2013  09:01:00      -66.139      -87.268       -8.447       11.207       14.612       10.065      125.593      213.503      101.308        0.625        0.022      109.499        5.659        0.003      336.149        7.256      862.950
10/11/2013  09:02:00      -42.106      -64.369       -5.184       24.676       29.567       11.090      608.894      874.231      122.990        0.377        0.080       76.917        7.493        0.009      336.270        7.460      862.952
10/11/2013  09:03:00      -35.289      -39.319       -2.438       25.095       35.130       12.803      629.734     1234.127      163.906        0.241        0.101       52.833       13.045        0.061      336.275        7.468      862.957
10/11/2013  09:04:00      -88.634      -24.630       -4.735       35.761       25.945       17.635     1278.847      673.150      310.981        0.537        0.113       91.992       21.087        0.053      336.280        7.476      862.955
10/11/2013  09:05:00      -37.357      -24.082       11.134       46.461       24.546       21.566     2158.641      602.491      465.074        0.266        0.161       44.447       27.175        0.374      336.605        8.018      862.948
10/11/2013  09:06:00      -26.319       10.682       15.229       29.623       13.312       15.451      877.531      177.200      238.730        0.117        0.065       28.404       15.840        0.311      336.987        8.657      862.945
10/11/2013  09:07:00      -27.436       19.086       -1.120       14.904       16.102       21.685      222.140      259.281      470.243        0.103        0.048       33.422       14.894        0.199      336.981        8.647      862.941
10/11/2013  09:08:00       -6.540        9.835       36.143       18.853       15.160       15.914      355.437      229.837      253.249        0.114        0.042       11.811       10.309        0.762      337.628        9.731      862.939
10/11/2013  09:09:00      -15.026        6.186       41.574       19.484       25.981       22.818      379.637      675.021      520.652        0.178        0.079       16.249       15.966        0.965      337.342        9.252      862.937
10/11/2013  09:10:00      -20.760       16.916       26.639       24.117       19.823       15.045      581.616      392.962      226.347        0.131        0.060       26.779       13.465        0.253      337.311        9.199      862.938
10/11/2013  09:11:00      -38.288       -6.262       -6.526       30.495       17.614       14.406      929.947      310.249      207.539        0.150        0.072       38.797       13.373        0.119      336.767        8.290      862.942
10/11/2013  09:12:00      -16.872      -28.826        3.630       27.985       29.188       20.046      783.153      851.950      401.823        0.158        0.102       33.401       18.843        0.318      336.966        8.623      862.944
10/11/2013  09:13:00      -33.095      -78.347        6.898       18.096       44.012       20.570      327.478     1937.024      423.133        0.498        0.134       85.051       20.731        0.059      336.701        8.181      862.944
10/11/2013  09:14:00      -65.432     -127.543      -10.721       24.241       34.206       20.227      587.602     1170.038      409.114        1.141        0.108      143.348       20.080        0.020      336.539        7.909      862.925
10/11/2013  09:15:00      -30.818      -98.586      -10.263       29.136       15.552       17.430      848.899      241.866      303.810        0.608        0.070      103.290       16.460        0.025      336.596        8.003      862.915
10/11/2013  09:16:00      -62.688      -90.667      -11.010       31.123       26.578       22.136      968.646      706.400      489.994        0.722        0.108      110.228       20.515        0.035      336.591        7.997      862.891
10/11/2013  09:17:00      -70.235      -22.651       17.283       56.295       39.540       36.733     3169.096     1563.392     1349.327        0.591        0.304       73.797       35.441        0.231      336.768        8.293      862.870
10/11/2013  09:18:00      -22.819      -24.012       15.336       60.519       36.128       30.400     3662.603     1305.244      924.181        0.361        0.295       33.126       30.197        0.831      337.233        9.069      862.842
10/11/2013  09:19:00      -70.827      -53.512       -5.640       32.341       39.445       24.760     1045.943     1555.929      613.053        0.556        0.161       88.769       15.651        0.031      336.827        8.391      862.827
10/11/2013  09:20:00      -49.507       14.579        8.925       25.938       25.647       21.145      672.790      657.792      447.109        0.226        0.089       51.609       18.636        0.130      336.976        8.640      862.803
10/11/2013  09:21:00      -20.797       -6.441       -5.967       35.935       30.129       15.753     1291.293      907.786      248.172        0.148        0.122       21.772       13.938        0.410      337.006        8.688      862.779
10/11/2013  09:22:00      -88.257      -21.142       -0.435       52.931       40.006       27.358     2801.697     1600.496      748.456        0.669        0.258       90.754       27.498        0.092      336.882        8.482      862.741
10/11/2013  09:23:00      -18.178       65.871       33.775       56.806       27.904       30.418     3226.905      778.636      925.284        0.537        0.247       68.333       19.079        0.078      337.280        9.148      862.702
10/11/2013  09:24:00      -29.667       36.673       18.523       18.918       19.791       22.303      357.893      391.673      497.415        0.191        0.062       47.170       10.297        0.048      337.383        9.320      862.663
10/11/2013  09:25:00      -16.410       -3.483        7.731       13.561       29.617       16.064      183.890      877.167      258.059        0.083        0.066       16.776       13.655        0.663      337.388        9.330      862.636
10/11/2013  09:26:00      -18.223       -9.191       -0.517       20.258       23.669       17.312      410.376      560.236      299.692        0.084        0.064       20.410       13.997        0.470      337.246        9.091      862.620
10/11/2013  09:27:00      -37.814       -5.258        3.006       22.950       21.060       16.854      526.686      443.538      284.054        0.136        0.063       38.178       15.078        0.156      337.399        9.346      862.610
10/11/2013  09:28:00      -64.534      -48.220       -2.474       27.027       39.787       18.526      730.438     1583.014      343.220        0.458        0.133       80.559       15.902        0.039      337.213        9.035      862.603
10/11/2013  09:29:00      -86.341      -86.992       -2.329       44.979       47.795       24.049     2023.135     2284.338      578.349        0.996        0.244      122.566       19.965        0.027      337.209        9.029      862.597
10/11/2013  09:30:00      -87.917      -81.067       -6.133       54.826       46.277       29.224     3005.880     2141.587      854.038        1.017        0.300      119.588       27.493        0.053      337.187        8.990      862.590
10/11/2013  09:31:00      -85.440     -111.187      -10.800       29.849       47.089       20.967      890.981     2217.335      439.619        1.166        0.177      140.223       20.326        0.021      336.993        8.666      862.590
10/11/2013  09:32:00      -61.121      -81.783        2.163       49.459       32.293       22.803     2446.150     1042.851      519.964        0.722        0.200      102.100       19.913        0.038      337.129        8.895      862.591
10/11/2013  09:33:00      -93.940      -55.360       -8.182       45.495       24.290       22.942     2069.768      589.984      526.320        0.757        0.159      109.039       10.206        0.009      337.087        8.824      862.599
10/11/2013  09:34:00      -68.874      -46.938       -5.304       32.736       25.348       20.025     1071.663      642.504      400.989        0.454        0.106       83.348       15.523        0.035      337.119        8.878      862.609
10/11/2013  09:35:00      -26.946       -8.748       -3.013       17.628       19.994       11.263      310.757      399.778      126.864        0.082        0.042       28.331       11.323        0.160      337.367        9.293      862.633
10/11/2013  09:36:00      -62.034      -70.940       -3.020       32.515       28.221       24.178     1057.234      796.421      584.582        0.566        0.122       94.237       21.601        0.053      337.174        8.969      862.658
10/11/2013  09:37:00      -59.332      -60.119        5.887       30.522       19.760       18.122      931.596      390.451      328.423        0.441        0.083       84.466       15.961        0.036      337.200        9.013      862.680
10/11/2013  09:38:00      -24.451      -32.305        3.322       43.344       26.415       20.057     1878.675      697.741      402.280        0.232        0.149       40.515       14.126        0.122      337.375        9.307      862.693
10/11/2013  09:39:00     -112.275     -107.821      -15.161       30.212       33.393       22.411      912.751     1115.059      502.238        1.350        0.127      155.664       18.752        0.015      337.184        8.986      862.702
10/11/2013  09:40:00      -64.496      -57.963       -5.692       32.926       39.912       17.587     1084.131     1592.998      309.309        0.527        0.149       86.715       10.510        0.015      337.267        9.124      862.713
10/11/2013  09:41:00      -37.539      -37.536       11.972       40.961       33.296       24.022     1677.841     1108.623      577.059        0.316        0.168       53.086       22.504        0.180      337.496        9.509      862.726
10/11/2013  09:42:00      -58.582      -52.188      -11.969       16.844       22.858       12.175      283.731      522.490      148.233        0.363        0.048       78.456        8.105        0.011      337.305        9.190      862.745
10/11/2013  09:43:00      -20.979      -16.951       -5.629       18.644       13.513       15.971      347.597      182.591      255.087        0.077        0.039       26.971       15.899        0.347      337.695        9.842      862.757
10/11/2013  09:44:00      -30.452       -9.056       -0.432       12.713       13.559       10.240      161.609      183.857      104.851        0.073        0.023       31.770        8.320        0.069      337.524        9.556      862.785
10/11/2013  09:45:00      -40.477      -17.921       -1.039       21.685       15.854       11.113      470.239      251.362      123.500        0.140        0.042       44.267        5.187        0.014      337.449        9.431      862.813
10/11/2013  09:46:00      -62.461      -27.720       -3.071       19.907       22.045       17.764      396.301      485.986      315.577        0.294        0.060       68.335       14.305        0.044      337.486        9.492      862.837
10/11/2013  09:47:00      -43.086      -33.337       -4.370       15.156       14.202        9.354      229.713      201.684       87.488        0.175        0.026       54.477        4.806        0.008      337.500        9.514      862.858
10/11/2013  09:48:00      -62.220      -38.097      -19.022       18.013       21.068       14.982      324.453      443.865      224.459        0.334        0.050       72.957        2.644        0.001      337.459        9.447      862.858
10/11/2013  09:49:00      -23.955      -38.554        2.905       36.886       28.408       28.316     1360.585      807.004      801.821        0.252        0.148       45.390       21.698        0.229      337.722        9.888      862.851
10/11/2013  09:50:00      -33.204      -32.884        8.546       37.983       28.037       23.643     1442.718      786.060      558.976        0.252        0.139       46.732       21.118        0.204      337.737        9.913      862.844
10/11/2013  09:51:00      -40.150      -42.437        0.699       39.498       27.818       24.629     1560.113      773.862      606.597        0.318        0.147       58.420       22.560        0.149      337.772        9.971      862.813
10/11/2013  09:52:00       13.583      -72.695        2.354       40.405       41.419       29.748     1632.545     1715.565      884.939        0.485        0.212       73.954       25.181        0.116      337.826       10.062      862.799
10/11/2013  09:53:00      -14.373      -77.415      -12.776       37.354       45.953       21.219     1395.296     2111.703      450.247        0.516        0.198       78.738       15.304        0.038      337.640        9.751      862.793
10/11/2013  09:54:00      -50.760      -67.059        2.041       37.666       31.224       25.341     1418.703      974.960      642.172        0.506        0.152       84.104       24.851        0.087      337.700        9.849      862.785
10/11/2013  09:55:00      -40.608      -40.482        0.071       25.761       17.039       18.450      663.640      290.321      340.402        0.229        0.065       57.339       15.758        0.076      337.709        9.867      862.793
10/11/2013  09:56:00      -50.592      -44.023        6.772       40.024       26.391       22.852     1601.926      696.494      522.221        0.368        0.141       67.064       23.981        0.128      337.972       10.309      862.786
10/11/2013  09:57:00      -67.226      -75.475        2.972       24.630       39.248       25.608      606.647     1540.441      655.751        0.651        0.140      101.073       15.734        0.024      337.764        9.958      862.800
10/11/2013  09:58:00      -54.463      -85.794       -2.943       38.226       34.991       14.912     1461.257     1224.348      222.359        0.662        0.145      101.621       13.578        0.018      337.656        9.777      862.810
10/11/2013  09:59:00      -62.178      -48.149      -13.709        9.877       14.364        9.294       97.557      206.324       86.388        0.338        0.020       78.641        5.655        0.005      337.667        9.796      862.804
10/11/2013  10:00:00      -54.979      -33.408       -2.035       26.797       36.613       19.429      718.093     1340.531      377.496        0.329        0.122       64.333       16.752        0.068      337.792       10.006      862.797
10/11/2013  10:01:00      -86.116      -56.248        5.008       44.784       37.997       21.383     2005.567     1443.804      457.225        0.725        0.195      102.858       22.438        0.048      337.828       10.065      862.799
10/11/2013  10:02:00       -8.713      -32.377       15.866       46.849       27.853       28.036     2194.792      775.801      786.034        0.257        0.188       33.529       28.504        0.723      338.200       10.690      862.792
10/11/2013  10:03:00      -53.453      -40.356        8.006       55.490       30.870       25.830     3079.115      952.954      667.198        0.462        0.235       66.977       27.938        0.174      338.096       10.515      862.789
10/11/2013  10:04:00      -48.484      -53.729       10.167       57.711       48.661       30.047     3330.540     2367.858      902.829        0.597        0.330       72.370       30.695        0.180      338.008       10.368      862.777
10/11/2013  10:05:00      -74.867      -52.519        0.331       41.302       19.033       26.857     1705.876      362.268      721.298        0.558        0.139       91.451       29.975        0.107      337.831       10.071      862.778
10/11/2013  10:06:00      -71.074      -38.691       -3.476       27.905       19.055       17.399      778.672      363.075      302.733        0.400        0.072       80.923       16.286        0.041      337.921       10.220      862.761
10/11/2013  10:07:00      -69.544      -29.292       -5.562       14.669       18.436       13.539      215.175      339.873      183.298        0.323        0.037       75.461        6.444        0.007      337.879       10.152      862.755
10/11/2013  10:08:00      -71.714        2.246       -6.418       15.363        7.275        8.996      236.016       52.926       80.920        0.278        0.018       71.749        5.939        0.007      337.804       10.025      862.743
10/11/2013  10:09:00      -21.342      -24.169       -2.480       18.880       20.523       22.327      356.452      421.211      498.505        0.116        0.064       32.243       13.993        0.188      338.181       10.656      862.723
10/11/2013  10:10:00      -13.955       -3.990        5.324       25.636       20.759       16.902      657.210      430.928      285.692        0.081        0.069       14.515       13.253        0.834      338.610       11.380      862.702
10/11/2013  10:11:00      -30.407      -10.376       -7.505       22.801       15.230       11.294      519.885      231.955      127.555        0.098        0.044       32.128        7.007        0.048      338.399       11.024      862.678
10/11/2013  10:12:00      -35.224      -40.401       -5.706       27.782       14.069       17.376      771.837      197.923      301.914        0.209        0.064       53.600       10.999        0.042      338.199       10.690      862.647
10/11/2013  10:13:00        6.768      -28.822        1.598       28.997       33.030       23.813      840.825     1090.958      567.078        0.169        0.125       29.606       18.353        0.384      338.682       11.501      862.617
10/11/2013  10:14:00      -28.296       -9.053        5.296       33.268       18.527       21.111     1106.786      343.251      445.676        0.140        0.095       29.709       21.618        0.529      338.655       11.455      862.584
10/11/2013  10:15:00       30.287      -94.321        7.777       54.256       65.585       40.479     2943.763     4301.377     1638.526        0.938        0.444       99.064       33.317        0.113      338.473       11.150      862.567
10/11/2013  10:16:00       37.329      -76.841        7.659       51.682       62.931       39.482     2670.980     3960.304     1558.822        0.777        0.410       85.428       46.882        0.301      338.590       11.345      862.529
10/11/2013  10:17:00       23.645      -60.795       26.177       55.882       72.059       47.718     3122.770     5192.531     2277.014        0.776        0.530       65.231       40.950        0.394      338.929       11.916      862.516
10/11/2013  10:18:00       36.118      -25.271       37.758       47.545       49.231       53.949     2260.528     2423.668     2910.530        0.548        0.380       44.081       35.226        0.639      338.914       11.891      862.513
10/11/2013  10:19:00       37.735      -22.903       50.611       53.189       63.463       42.076     2829.059     4027.504     1770.410        0.657        0.431       44.142       36.159        0.671      338.777       11.660      862.501
10/11/2013  10:20:00       60.169        7.612       39.758       38.834       57.215       38.131     1508.101     3273.500     1454.007        0.575        0.312       60.649       30.328        0.250      338.513       11.217      862.523
10/11/2013  10:21:00      -19.940      -39.249        0.095       38.131       46.475       25.651     1453.994     2159.962      657.950        0.310        0.214       44.024       12.272        0.078      338.528       11.241      862.537
10/11/2013  10:22:00       96.983       54.469       17.024       52.630       43.891       29.146     2769.896     1926.448      849.504        0.910        0.277      111.232       18.013        0.026      338.540       11.263      862.537
10/11/2013  10:23:00       43.524       44.011       36.399       64.429       53.999       33.963     4151.036     2915.920     1153.471        0.669        0.411       61.898       30.814        0.248      338.646       11.439      862.533
10/11/2013  10:24:00       11.797      -15.493       25.104       49.291       52.766       40.198     2429.561     2784.290     1615.904        0.392        0.341       19.473       33.652        2.986      338.772       11.651      862.544
10/11/2013  10:25:00       56.308       80.330       90.153       68.378       49.552       42.324     4675.557     2455.446     1791.325        1.333        0.446       98.100       27.129        0.076      338.700       11.530      862.545
10/11/2013  10:26:00        9.875       12.260       48.883       39.945       69.748       50.950     1595.587     4864.814     2595.944        0.585        0.453       15.742       50.602       10.332      338.878       11.829      862.565
10/11/2013  10:27:00       29.403      -74.690       26.844       62.689       66.845       42.219     3929.971     4468.283     1782.410        0.867        0.509       80.270       39.287        0.240      338.766       11.640      862.570
10/11/2013  10:28:00       75.788     -142.279      -16.804       71.538       44.345       31.405     5117.666     1966.505      986.277        1.717        0.404      161.206       25.437        0.025      338.473       11.147      862.588
10/11/2013  10:29:00       25.893     -107.331       -5.345       47.231       56.392       44.829     2230.756     3180.023     2009.677        0.982        0.371      110.410       31.053        0.079      338.819       11.731      862.588
10/11/2013  10:30:00        4.264       -2.863       51.244       34.012       81.517       47.095     1156.828     6645.049     2217.939        0.633        0.501        5.136       57.496      125.315      339.145       12.277      862.590
10/11/2013  10:31:00       96.048      101.245       63.376       50.998       33.214       36.076     2600.774     1103.183     1301.448        1.425        0.250      139.556       12.085        0.007      338.779       11.662      862.596
10/11/2013  10:32:00       25.137       57.845       74.363       49.189       80.287       60.480     2419.580     6445.947     3657.883        1.101        0.626       63.070       62.080        0.969      338.892       11.854      862.597
10/11/2013  10:33:00       53.057       -8.755       38.426       56.887       62.392       44.369     3236.091     3892.779     1968.612        0.673        0.455       53.775       32.747        0.371      338.828       11.745      862.597
10/11/2013  10:34:00        9.623       34.626       72.183       42.724       66.080       45.657     1825.361     4366.604     2084.586        0.739        0.414       35.938       47.205        1.725      338.930       11.915      862.594
10/11/2013  10:35:00       12.711       17.908       52.270       35.142       42.646       36.561     1234.995     1818.708     1336.729        0.380        0.220       21.960       27.459        1.563      339.452       12.795      862.592
10/11/2013  10:36:00       56.299      -20.720       20.311       65.992       59.418       42.975     4354.923     3530.495     1846.887        0.687        0.487       59.991       35.362        0.347      339.026       12.078      862.580
10/11/2013  10:37:00       49.519      -63.483       25.948       51.133       73.722       39.841     2614.557     5434.968     1587.303        0.839        0.482       80.512       38.202        0.225      339.025       12.077      862.575
10/11/2013  10:38:00       67.774      -43.688       24.482       71.639       77.220       57.572     5132.174     5962.998     3314.498        1.075        0.720       80.635       65.362        0.657      339.268       12.485      862.568
10/11/2013  10:39:00       20.656      -14.272       21.464       43.418       40.570       32.387     1885.098     1645.898     1048.920        0.283        0.229       25.107       23.042        0.842      339.171       12.321      862.564
10/11/2013  10:40:00       65.305      -58.890       19.579       54.133       59.241       42.228     2930.338     3509.441     1783.213        0.817        0.411       87.936       47.809        0.296      338.986       12.012      862.560
10/11/2013  10:41:00       69.667       68.316       32.352       31.503       24.699       38.281      992.412      610.032     1465.404        0.682        0.153       97.573       15.555        0.025      338.901       11.868      862.549
10/11/2013  10:42:00        0.245       -7.088       25.407       18.394       38.190       14.323      338.326     1458.492      205.159        0.135        0.100        7.092        9.400        1.757      339.594       13.035      862.560
10/11/2013  10:43:00       45.452      108.171        2.280       56.339       68.389       36.905     3174.098     4677.119     1361.996        1.149        0.461      117.332       39.800        0.115      339.041       12.103      862.560
10/11/2013  10:44:00       61.145       48.092       10.442       52.885       45.033       32.280     2796.865     2027.944     1041.993        0.601        0.293       77.792       19.673        0.064      338.893       11.855      862.564
10/11/2013  10:45:00       14.716       54.379       -3.492       36.137       52.506       33.307     1305.900     2756.874     1109.353        0.418        0.259       56.335       35.663        0.401      338.915       11.892      862.557
10/11/2013  10:46:00       56.466       83.410        0.073       38.383       37.656       36.577     1473.289     1418.007     1337.854        0.719        0.211      100.725       24.045        0.057      338.850       11.783      862.550
10/11/2013  10:47:00       61.094       65.714        1.017       44.802       36.503       33.708     2007.218     1332.459     1136.206        0.626        0.224       89.726       22.309        0.062      338.684       11.502      862.552
10/11/2013  10:48:00      -65.007       31.209      -21.563       18.564       43.915       13.936      344.609     1928.508      194.221        0.407        0.123       72.111       11.982        0.028      338.507       11.206      862.546
10/11/2013  10:49:00      -38.333        8.960       -2.765       35.053       22.539       18.638     1228.698      507.995      347.362        0.182        0.104       39.366       18.788        0.228      339.016       12.062      862.554
10/11/2013  10:50:00       33.815       71.264       22.559       42.820       31.898       36.769     1833.513     1017.502     1351.960        0.547        0.210       78.879       18.590        0.056      339.269       12.486      862.564
10/11/2013  10:51:00       46.757       76.146       60.568       83.343       45.705       49.880     6946.037     2088.987     2488.047        1.159        0.576       89.355       39.415        0.195      339.375       12.665      862.571
10/11/2013  10:52:00      153.425       95.435       35.330       64.420       51.557       44.786     4149.891     2658.085     2005.803        2.135        0.441      180.685       13.837        0.006      339.058       12.130      862.574
10/11/2013  10:53:00       67.296       65.953       71.756       87.472       77.684       50.297     7651.438     6034.822     2529.790        1.512        0.811       94.226       42.301        0.202      339.278       12.501      862.580
10/11/2013  10:54:00       94.916       84.278       20.951       42.605       36.887       35.511     1815.210     1360.650     1261.024        1.049        0.222      126.932       11.747        0.009      338.870       11.816      862.588
10/11/2013  10:55:00        8.538       25.664       43.069       34.658       74.572       45.436     1201.195     5561.011     2064.450        0.570        0.441       27.047       43.669        2.607      339.501       12.879      862.580
10/11/2013  10:56:00       41.211        7.338       40.687       46.982       53.179       38.822     2207.340     2827.957     1507.143        0.497        0.327       41.859       30.317        0.525      339.472       12.830      862.588
10/11/2013  10:57:00       47.649      -68.699       11.017       32.617       59.940       46.427     1063.845     3592.809     2155.497        0.696        0.341       83.606       48.479        0.336      338.988       12.014      862.578
10/11/2013  10:58:00      123.293      106.748       74.132       95.097       55.476       55.638     9043.492     3077.621     3095.636        2.365        0.761      163.084       50.575        0.096      338.972       11.984      862.588
10/11/2013  10:59:00      113.437       84.107       33.629       47.676       35.081       46.160     2273.042     1230.653     2130.777        1.335        0.282      141.215       13.212        0.009      338.973       11.989      862.598
10/11/2013  11:00:00       78.154       36.954       38.153       57.956       43.791       48.167     3358.887     1917.610     2320.058        0.826        0.380       86.450       34.427        0.159      339.212       12.391      862.602
10/11/2013  11:01:00       60.120       52.390       26.326       59.289       35.122       27.416     3515.218     1233.581      751.663        0.628        0.275       79.744       14.671        0.034      339.393       12.696      862.602
10/11/2013  11:02:00      159.631       91.938       17.785       69.738       58.665       46.070     4863.335     3441.638     2122.460        2.234        0.521      184.214       29.477        0.026      339.161       12.304      862.612
10/11/2013  11:03:00       94.364      106.935        1.236       68.473       43.186       35.116     4688.537     1865.057     1233.151        1.406        0.389      142.617       19.211        0.018      339.192       12.357      862.604
10/11/2013  11:04:00       62.970       70.448        5.154       42.474       30.799       28.324     1804.071      948.567      802.226        0.625        0.178       94.489       22.769        0.058      338.969       11.983      862.615
10/11/2013  11:05:00       10.652      -14.281        0.758       17.467       44.639       22.458      305.101     1992.600      504.345        0.156        0.140       17.816       21.907        1.512      339.119       12.235      862.611
10/11/2013  11:06:00       24.122      -65.002       26.738       35.216       57.444       33.310     1240.147     3299.864     1109.557        0.558        0.282       69.333       25.016        0.130      339.519       12.908      862.592
10/11/2013  11:07:00       20.756       21.762        4.003       18.726       38.731       37.545      350.655     1500.062     1409.633        0.209        0.163       30.074       26.530        0.778      339.516       12.903      862.602
10/11/2013  11:08:00       55.886       81.152       12.641       35.797       37.845       31.768     1281.422     1432.223     1009.229        0.680        0.186       98.534       18.703        0.036      339.468       12.822      862.601
10/11/2013  11:09:00       16.278      120.834      -19.307       35.986       37.806       27.884     1295.025     1429.313      777.515        0.937        0.175      121.925       23.593        0.037      339.507       12.888      862.605
10/11/2013  11:10:00      -36.463       58.994       18.080       37.885       48.135       34.448     1435.261     2316.940     1186.651        0.504        0.247       69.353       34.824        0.252      339.967       13.663      862.608
10/11/2013  11:11:00      -16.321      102.935        1.537       39.040       62.203       34.047     1524.098     3869.250     1159.193        0.871        0.328      104.221       31.664        0.092      339.786       13.359      862.618
10/11/2013  11:12:00       -8.910      165.083      -17.777       27.621       34.016       22.388      762.914     1157.090      501.216        1.503        0.121      165.323       17.144        0.011      339.342       12.610      862.627
10/11/2013  11:13:00      -26.145      145.093       -1.156       37.222       69.571       33.141     1385.499     4840.103     1098.338        1.453        0.366      147.429       34.983        0.056      339.710       13.229      862.636
10/11/2013  11:14:00      -27.162       88.131        6.941       31.961       49.392       32.454     1021.536     2439.609     1053.288        0.653        0.226       92.222       30.620        0.110      339.855       13.475      862.650
10/11/2013  11:15:00      -48.736       32.863       -6.040       37.445       41.814       29.532     1402.100     1748.394      872.158        0.376        0.201       58.781       29.898        0.259      339.543       12.950      862.649
10/11/2013  11:16:00      -81.424       63.093      -17.929       26.972       27.380       21.458      727.477      749.685      460.460        0.643        0.097      103.008       11.726        0.013      339.164       12.309      862.658
10/11/2013  11:17:00       -8.677       32.498       26.077       16.026       29.439       20.474      256.842      866.684      419.169        0.168        0.077       33.637       16.488        0.240      340.253       14.147      862.650
10/11/2013  11:18:00       -5.842      -16.695        5.999       27.252       33.335       23.100      742.658     1111.228      533.610        0.137        0.119       17.688       22.566        1.628      339.625       13.087      862.636
10/11/2013  11:19:00        3.949       -8.465       41.057       37.905       44.990       37.085     1436.799     2024.140     1375.318        0.330        0.242        9.341       25.200        7.278      339.936       13.611      862.618
10/11/2013  11:20:00       17.347       57.796       76.753       65.792       60.602       35.882     4328.561     3672.566     1287.541        0.941        0.464       60.343       24.011        0.158      339.808       13.396      862.591
10/11/2013  11:21:00      121.374       89.378       40.271       51.771       41.686       50.049     2680.234     1737.717     2504.886        1.563        0.346      150.732       24.302        0.026      339.522       12.912      862.597
10/11/2013  11:22:00       63.761       49.678        5.628       51.059       37.324       32.911     2607.072     1393.081     1083.155        0.582        0.254       80.829       19.809        0.060      339.688       13.191      862.585
10/11/2013  11:23:00       23.863       19.860       41.461       32.097       32.700       31.676     1030.238     1069.301     1003.388        0.289        0.155       31.046       24.083        0.602      340.008       13.734      862.570
10/11/2013  11:24:00       36.198       18.553       43.499       39.995       35.664       34.753     1599.612     1271.890     1207.796        0.381        0.204       40.675       30.344        0.557      339.599       13.045      862.566
10/11/2013  11:25:00       70.282      -42.140       30.468       39.788       34.838       38.696     1583.084     1213.715     1497.408        0.597        0.215       81.947       24.805        0.092      339.456       12.801      862.555
10/11/2013  11:26:00       56.333       -6.238       63.682       46.100       41.908       31.769     2125.230     1756.289     1009.256        0.608        0.245       56.677       26.347        0.216      339.738       13.278      862.547
10/11/2013  11:27:00       83.425       -8.735       33.062       40.546       24.895       28.002     1644.014      619.748      784.097        0.559        0.152       83.881       23.245        0.077      339.559       12.974      862.540
10/11/2013  11:28:00        5.170       -7.320       13.871       26.667       50.325       30.662      711.136     2532.587      940.135        0.223        0.209        8.962       27.296        9.277      339.915       13.577      862.529
10/11/2013  11:29:00      -19.236      -32.313       -7.116       47.628       73.782       45.353     2268.426     5443.731     2056.914        0.561        0.488       37.605       44.499        1.400      339.719       13.245      862.498
10/11/2013  11:30:00      -37.307      -31.417       15.624       58.682       39.757       25.970     3443.554     1580.584      674.430        0.416        0.285       48.773       25.779        0.279      339.913       13.573      862.487
10/11/2013  11:31:00       -7.797        1.594       20.500       38.161       22.733       20.295     1456.254      516.782      411.867        0.143        0.119        7.958       18.579        5.450      340.269       14.174      862.477
10/11/2013  11:32:00      -15.017       14.195       27.867       27.840       24.828       17.631      775.082      616.435      310.863        0.145        0.085       20.664       18.726        0.821      340.558       14.662      862.445
10/11/2013  11:33:00      -19.324        5.031       29.073       29.553       32.695       31.804      873.367     1068.982     1011.513        0.210        0.148       19.968       27.623        1.914      340.647       14.813      862.429
10/11/2013  11:34:00       -8.560       38.033       72.123       28.022       33.332       24.775      785.225     1111.027      613.815        0.462        0.126       38.984       18.801        0.233      340.774       15.026      862.409
10/11/2013  11:35:00       14.933       42.499       52.571       51.682       44.803       44.341     2671.058     2007.328     1966.106        0.572        0.332       45.046       39.551        0.771      340.481       14.532      862.396
10/11/2013  11:36:00       16.094      120.482      -13.772       41.643       62.805       33.952     1734.134     3944.483     1152.718        1.090        0.342      121.553       36.730        0.091      339.932       13.605      862.394
10/11/2013  11:37:00       15.853      154.135       -8.019       53.377       92.491       37.426     2849.144     8554.631     1400.679        1.844        0.640      154.948       48.792        0.099      339.919       13.581      862.382
10/11/2013  11:38:00        1.013      155.603       -2.678       41.880       66.347       41.257     1753.966     4401.972     1702.161        1.604        0.393      155.606       39.958        0.066      340.062       13.824      862.373
10/11/2013  11:39:00      -17.006      172.119      -11.737       50.400       70.283       41.127     2540.203     4939.663     1691.465        1.961        0.459      172.957       30.287        0.031      340.102       13.891      862.375
10/11/2013  11:40:00      -23.836      137.224      -17.205       36.226       57.335       34.534     1312.329     3287.286     1192.627        1.274        0.290      139.279       25.062        0.032      340.166       13.999      862.369
10/11/2013  11:41:00      -41.154       85.664       -5.495       40.853       66.003       32.641     1668.976     4356.335     1065.415        0.807        0.355       95.036       38.074        0.161      340.204       14.063      862.371
10/11/2013  11:42:00      -15.753       72.971        3.923       33.317       71.269       37.638     1110.029     5079.232     1416.592        0.660        0.380       74.652       43.999        0.347      340.325       14.268      862.344
10/11/2013  11:43:00       -1.199       56.249      -11.744       22.678       54.063       29.583      514.286     2922.821      875.158        0.381        0.216       56.262       19.255        0.117      339.937       13.613      862.333
10/11/2013  11:44:00        3.284       34.828        7.960       25.405       60.761       27.490      645.400     3691.917      755.680        0.319        0.255       34.982       17.688        0.256      340.217       14.086      862.306
10/11/2013  11:45:00       26.991       43.859      -20.447       28.594       26.916       26.430      817.630      724.471      698.520        0.265        0.112       51.499       13.338        0.067      339.936       13.612      862.290
10/11/2013  11:46:00       49.556       61.879       -1.591       25.348       54.855       29.773      642.514     3009.061      886.452        0.541        0.227       79.277       17.410        0.048      340.047       13.799      862.276
10/11/2013  11:47:00       50.013       81.177       -1.676       45.581       52.809       37.354     2077.615     2788.825     1395.309        0.768        0.313       95.347       34.090        0.128      340.059       13.820      862.266
10/11/2013  11:48:00       39.398       59.932        6.324       31.688       34.507       37.403     1004.158     1190.729     1398.969        0.439        0.180       71.722       28.398        0.157      340.399       14.394      862.269
10/11/2013  11:49:00       55.433       24.096      -17.774       26.514       46.659       31.999      702.997     2177.042     1023.915        0.394        0.195       60.444       28.825        0.227      339.799       13.380      862.268
10/11/2013  11:50:00       44.169      -47.597       -6.547       45.036       26.458       23.076     2028.205      700.008      532.491        0.376        0.163       64.934       21.797        0.113      339.948       13.631      862.271
10/11/2013  11:51:00       23.008      -44.665        2.745       31.864       28.961       28.876     1015.336      838.723      833.842        0.261        0.134       50.242       14.777        0.087      339.965       13.661      862.268
10/11/2013  11:52:00       46.293      -26.028       15.389       42.403       37.673       29.321     1798.011     1419.255      859.718        0.357        0.204       53.109       23.711        0.199      340.126       13.933      862.249
10/11/2013  11:53:00       36.668      -27.074       20.669       41.285       42.454       34.985     1704.435     1802.367     1223.922        0.362        0.237       45.580       27.910        0.375      340.404       14.401      862.248
10/11/2013  11:54:00       24.706      -56.634        6.846       48.014       43.569       35.508     2305.315     1898.278     1260.823        0.466        0.273       61.789       24.143        0.153      340.200       14.057      862.234
10/11/2013  11:55:00       -1.176      -20.385        4.917       21.053       30.525       20.819      443.241      931.762      433.430        0.112        0.090       20.419       16.869        0.683      340.836       15.132      862.241
10/11/2013  11:56:00        6.040       23.311        0.545       34.265       50.526       28.817     1174.089     2552.897      830.407        0.257        0.228       24.081       21.865        0.824      340.383       14.365      862.229
10/11/2013  11:57:00      -26.619       51.403        5.429       34.140       42.212       28.003     1165.555     1781.820      784.163        0.356        0.187       57.887       16.942        0.086      340.710       14.919      862.215
10/11/2013  11:58:00      -49.442       15.135      -27.983       49.429       77.481       24.865     2443.245     6003.338      618.272        0.626        0.453       51.706       11.062        0.046      340.127       13.934      862.204
10/11/2013  11:59:00      -37.440      -42.163        6.453       51.741       44.519       34.226     2677.140     1981.909     1171.393        0.452        0.292       56.387       19.626        0.121      340.264       14.165      862.172
10/11/2013  12:00:00      -75.999      -20.597      -12.673       33.541       40.204       18.254     1125.014     1616.400      333.202        0.472        0.154       78.741       12.985        0.027      339.979       13.685      862.145
10/11/2013  12:01:00       23.790     -130.650       -1.466       36.640       30.144       28.865     1342.507      908.634      833.210        1.036        0.154      132.798        6.269        0.002      340.059       13.817      862.105
10/11/2013  12:02:00      -12.801     -106.397        0.216       61.921       45.593       23.232     3834.168     2078.680      539.731        0.897        0.323      107.164       25.440        0.056      340.049       13.803      862.080
10/11/2013  12:03:00      -93.631       -2.743        1.968       67.859       58.051       28.069     4604.799     3369.939      787.859        0.877        0.438       93.671       26.799        0.082      340.512       14.584      862.061
10/11/2013  12:04:00     -174.715      -26.137      -19.846       34.423       34.686       29.142     1184.940     1203.134      849.261        1.742        0.162      176.659       21.055        0.014      340.031       13.769      862.034
10/11/2013  12:05:00     -138.291      -14.547      -16.624       25.857       41.007       19.776      668.588     1681.600      391.084        1.118        0.137      139.054       18.220        0.017      340.003       13.725      862.021
10/11/2013  12:06:00      -82.114      -12.283      -10.398       33.117       28.595       18.009     1096.736      817.672      324.314        0.462        0.112       83.028       12.571        0.023      340.113       13.909      861.998
10/11/2013  12:07:00     -103.910      -13.923       -1.639       57.158       37.837       24.017     3267.007     1431.671      576.815        0.813        0.264      104.839       26.452        0.064      340.572       14.686      861.986
10/11/2013  12:08:00      -90.260       31.783       -0.846       30.607       27.245       25.807      936.808      742.315      665.987        0.575        0.117       95.692       18.511        0.037      340.459       14.494      861.974
10/11/2013  12:09:00     -142.771       49.660      -10.407       33.526       19.138       21.495     1123.960      366.274      462.043        1.245        0.098      151.161       11.743        0.006      340.193       14.043      861.957
10/11/2013  12:10:00      -91.575      -32.448      -11.848       60.177       62.754       35.617     3621.272     3938.093     1268.543        0.920        0.441       97.154       36.557        0.142      340.411       14.413      861.941
10/11/2013  12:11:00      -20.081      -20.383       10.074       29.220       28.664       23.663      853.831      821.614      559.931        0.158        0.112       28.613       13.950        0.238      340.780       15.038      861.923
10/11/2013  12:12:00      -28.656      -44.289      -16.630       30.138       43.633       29.154      908.320     1903.864      849.950        0.336        0.183       52.751       20.530        0.151      340.510       14.580      861.907
10/11/2013  12:13:00      -42.650      -38.669       -1.198       33.439       31.028       22.463     1118.191      962.748      504.601        0.295        0.129       57.570       16.568        0.083      340.416       14.421      861.884
10/11/2013  12:14:00      -37.272      -71.727       -5.474       34.155       29.849       28.333     1166.556      890.935      802.774        0.471        0.143       80.833       18.619        0.053      340.528       14.611      861.870
10/11/2013  12:15:00      -40.266       -6.303        9.656       18.462       35.157       15.913      340.857     1236.025      253.219        0.179        0.092       40.756        7.876        0.037      340.451       14.481      861.834
10/11/2013  12:16:00       24.403      -20.464       15.718       55.579       53.342       29.522     3089.038     2845.318      871.574        0.403        0.340       31.848       25.062        0.619      340.754       14.994      861.813
10/11/2013  12:17:00       52.269       19.462       39.908       68.393       74.709       49.225     4677.558     5581.437     2423.141        0.869        0.634       55.775       30.583        0.301      340.871       15.191      861.789
10/11/2013  12:18:00      189.157      125.782       65.819       55.359       57.487       58.501     3064.589     3304.806     3422.324        3.286        0.490      227.160       39.212        0.030      340.165       13.994      861.786
10/11/2013  12:19:00      191.487      130.159       33.963       69.410       60.855       53.756     4817.722     3703.371     2889.684        3.308        0.571      231.535       23.918        0.011      340.269       14.169      861.764
10/11/2013  12:20:00      109.668       76.492       25.508       58.206       39.194       43.620     3387.885     1536.169     1902.686        1.268        0.341      133.709       30.925        0.053      340.419       14.425      861.750
10/11/2013  12:21:00       12.852       98.428        2.631       40.583       69.959       42.021     1647.000     4894.281     1765.773        0.908        0.415       99.263       37.752        0.145      340.653       14.821      861.737
10/11/2013  12:22:00       97.764       68.466        6.673       62.891       38.436       35.658     3955.316     1477.340     1271.495        1.050        0.335      119.354       20.299        0.029      340.596       14.725      861.708
10/11/2013  12:23:00       77.127       52.355        2.095       47.952       29.963       36.824     2299.391      897.781     1355.989        0.662        0.228       93.219       21.433        0.053      340.842       15.142      861.693
10/11/2013  12:24:00       32.739      -49.871       20.114       46.561       85.821       41.962     2167.967     7365.309     1760.830        0.763        0.565       59.657       36.967        0.384      340.754       14.993      861.661
10/11/2013  12:25:00      133.481       96.983       67.789      107.557       57.260       53.293    11568.554     3278.661     2840.167        2.475        0.884      164.994       45.718        0.077      340.976       15.366      861.642
10/11/2013  12:26:00      180.311      125.728       43.835       79.336       66.138       62.174     6294.226     4374.282     3865.625        3.238        0.727      219.817       34.270        0.024      340.676       14.857      861.633
10/11/2013  12:27:00      146.138      106.032       33.787       88.343       75.494       52.933     7804.512     5699.404     2801.867        2.502        0.815      180.552       36.486        0.041      340.628       14.778      861.604
10/11/2013  12:28:00      161.608      101.744       24.708       78.680       63.597       53.957     6190.569     4044.524     2911.375        2.511        0.657      190.969       25.803        0.018      340.649       14.814      861.587
10/11/2013  12:29:00      198.719      110.408       31.973       92.525       71.794       57.039     8560.865     5154.342     3253.392        3.483        0.848      227.330       41.979        0.034      340.988       15.387      861.560
10/11/2013  12:30:00      160.080      106.523       10.575       65.484       47.960       35.189     4288.189     2300.170     1238.284        2.245        0.391      192.282       20.672        0.012      340.521       14.597      861.570
10/11/2013  12:31:00      126.567       93.214       32.233       27.076       28.500       38.851      733.118      812.229     1509.371        1.440        0.153      157.188       16.796        0.011      340.445       14.470      861.545
10/11/2013  12:32:00       95.726       50.383        4.827       75.253       81.244       46.733     5663.017     6600.552     2184.013        1.308        0.722      108.175       34.055        0.099      340.756       14.995      861.503
10/11/2013  12:33:00       54.421       38.843        5.349       62.225       53.611       30.243     3871.949     2874.119      914.621        0.608        0.383       66.861       20.789        0.097      341.139       15.643      861.504
10/11/2013  12:34:00      163.605      103.783       19.629       40.962       42.801       41.038     1677.847     1831.961     1684.127        2.156        0.260      193.746       22.665        0.014      340.497       14.557      861.492
10/11/2013  12:35:00      171.753      119.288       38.676       60.375       51.024       46.043     3645.111     2603.488     2119.951        2.679        0.418      209.114       31.051        0.022      340.566       14.673      861.464
10/11/2013  12:36:00      141.760       92.963       51.698       92.215       68.185       65.439     8503.679     4649.179     4282.200        2.442        0.872      169.523       44.809        0.070      340.765       15.010      861.446
10/11/2013  12:37:00      182.382      113.876       32.889       89.158       68.967       49.936     7949.130     4756.427     2493.566        3.125        0.760      215.014       31.084        0.021      340.956       15.331      861.432
10/11/2013  12:38:00      178.482      132.630       49.088       75.983       55.061       52.126     5773.451     3031.675     2717.138        3.169        0.576      222.366       31.539        0.020      340.940       15.305      861.419
10/11/2013  12:39:00      138.857      101.507       47.998       69.054       59.122       60.320     4768.478     3495.405     3638.542        2.189        0.595      172.002       45.398        0.070      340.951       15.325      861.425
10/11/2013  12:40:00      130.286      121.580       24.526       63.847       37.151       57.999     4076.439     1380.203     3363.908        2.059        0.441      178.202       50.606        0.081      340.522       14.599      861.432
10/11/2013  12:41:00      -31.614       95.823      -13.424       52.833       58.111       37.462     2791.315     3376.935     1403.411        0.897        0.379      100.903       28.464        0.080      340.621       14.768      861.428
10/11/2013  12:42:00     -101.855       34.604      -29.209       32.696       47.233       22.594     1069.048     2230.952      510.485        0.812        0.191      107.573       14.944        0.019      340.555       14.657      861.405
10/11/2013  12:43:00      -95.268      -69.863      -23.578       39.741       35.102       29.390     1579.360     1232.128      863.783        0.909        0.184      118.139       23.794        0.041      340.558       14.660      861.394
10/11/2013  12:44:00      -99.911      -80.988      -18.158       58.159       45.252       31.101     3382.476     2047.756      967.263        1.163        0.320      128.613       21.272        0.027      340.693       14.891      861.390
10/11/2013  12:45:00       21.094      -66.817        9.646       61.787       65.060       39.982     3817.660     4232.837     1598.580        0.732        0.482       70.067       38.282        0.299      341.230       15.800      861.384
10/11/2013  12:46:00       21.695      -12.566       31.206       20.904       28.483       20.406      436.988      811.273      416.388        0.163        0.083       25.071       10.794        0.185      341.579       16.389      861.362
10/11/2013  12:47:00      -54.109      -43.339       -2.896       53.254       35.887       30.489     2835.995     1287.906      929.562        0.493        0.253       69.326       22.451        0.105      341.097       15.572      861.349
10/11/2013  12:48:00      -52.760      -45.262        9.421       47.094       47.140       24.395     2217.887     2222.139      595.100        0.498        0.252       69.515       19.002        0.075      340.979       15.375      861.337
10/11/2013  12:49:00      -24.212      -56.625       13.844       51.411       67.016       41.025     2643.096     4491.208     1683.039        0.640        0.441       61.585       37.555        0.372      341.260       15.849      861.315
10/11/2013  12:50:00      -83.755      -55.020       21.436      112.878       66.937       54.871    12741.554     4480.603     3010.840        1.536        1.012      100.210       61.631        0.378      341.201       15.749      861.294
10/11/2013  12:51:00     -138.841     -111.679       13.011       87.868       69.921       52.673     7720.866     4888.984     2774.425        2.365        0.769      178.183       50.667        0.081      340.838       15.133      861.285
10/11/2013  12:52:00     -108.640     -144.395        5.025      105.733       75.356       43.947    11179.500     5678.543     1931.331        2.573        0.939      180.701       42.138        0.054      340.684       14.874      861.276
10/11/2013  12:53:00      -69.351     -106.037      -13.409       60.946       25.347       24.592     3714.398      642.493      604.773        1.060        0.248      126.702       23.369        0.034      340.546       14.642      861.268
10/11/2013  12:54:00      -53.172      -48.758       11.022       55.420       43.234       27.910     3071.397     1869.193      778.950        0.552        0.286       72.143       29.446        0.167      340.980       15.374      861.252
10/11/2013  12:55:00      -46.124      -30.358       10.952       72.765       54.209       35.057     5294.769     2938.601     1228.990        0.631        0.473       55.218       30.387        0.303      341.257       15.845      861.239
10/11/2013  12:56:00       14.448       12.931       41.586       85.699       40.979       47.696     7344.312     1679.302     2274.893        0.670        0.565       19.389       34.153        3.103      341.623       16.465      861.219
10/11/2013  12:57:00     -119.362      -59.298        7.828       69.889       65.271       34.564     4884.408     4260.327     1194.690        1.408        0.517      133.280       35.430        0.071      341.070       15.529      861.212
10/11/2013  12:58:00      -54.215      -14.153       12.428       44.515       41.277       24.144     1981.602     1703.773      582.954        0.378        0.213       56.032       19.309        0.119      341.331       15.971      861.199
10/11/2013  12:59:00      -17.109       10.822       17.755       40.842       27.225       26.671     1668.033      741.182      711.336        0.192        0.156       20.244       22.067        1.188      341.865       16.874      861.184
10/11/2013  13:00:00      -76.975      -18.036       -3.770       33.718       38.680       20.694     1136.884     1496.150      428.222        0.466        0.153       79.060       14.408        0.033      341.226       15.792      861.178
10/11/2013  13:01:00      -35.709      -11.739        4.825       19.314       24.314       15.440      373.025      591.165      238.391        0.132        0.060       37.589       10.510        0.078      341.258       15.846      861.157
10/11/2013  13:02:00       -4.291      -14.727       -3.040       12.906       33.073       19.740      166.569     1093.828      389.652        0.095        0.083       15.340       16.615        1.173      341.403       16.093      861.156
10/11/2013  13:03:00      -56.640       16.865       -7.431       35.447       25.317       17.011     1256.504      640.974      289.358        0.287        0.109       59.098       14.294        0.058      341.202       15.751      861.164
10/11/2013  13:04:00       41.632       54.962       24.046       70.354       46.437       29.499     4949.621     2156.401      870.195        0.665        0.399       68.950        6.891        0.010      341.601       16.428      861.172
10/11/2013  13:05:00       76.703      -16.175       -3.832       87.477       97.633       38.305     7652.305     9532.260     1467.264        1.240        0.933       78.390       36.122        0.212      341.185       15.721      861.159
10/11/2013  13:06:00       88.483       49.330       35.425       80.770       45.428       42.251     6523.723     2063.718     1785.151        1.094        0.519      101.305       40.139        0.157      341.721       16.631      861.169
10/11/2013  13:07:00       94.952      -31.749       19.409       73.058       65.419       39.202     5337.456     4279.674     1536.821        1.078        0.558      100.119       28.132        0.079      341.449       16.168      861.168
10/11/2013  13:08:00       60.379       28.062       15.224       42.219       51.119       49.004     1782.482     2613.169     2401.359        0.573        0.340       66.581       31.141        0.219      341.646       16.503      861.146
10/11/2013  13:09:00      122.136      105.572       33.448       94.476       67.991       51.089     8925.696     4622.804     2610.045        2.167        0.808      161.439       46.202        0.082      341.637       16.486      861.137
10/11/2013  13:10:00      155.552       93.367       50.129      106.966       73.342       62.945    11441.707     5379.076     3962.100        2.810        1.039      181.422       54.559        0.090      341.349       15.997      861.120
10/11/2013  13:11:00      169.871      174.084        4.914       88.431       77.202       69.919     7820.049     5960.074     4888.668        3.892        0.933      243.231       43.220        0.032      340.961       15.340      861.133
10/11/2013  13:12:00      105.631      170.567        4.926       89.176       66.529       50.939     7952.286     4426.098     2594.736        2.762        0.749      200.626       36.665        0.033      341.027       15.454      861.122
10/11/2013  13:13:00       10.027      133.240      -24.714       39.015       66.974       29.151     1522.185     4485.479      849.758        1.266        0.343      133.616       23.315        0.030      340.910       15.255      861.088
10/11/2013  13:14:00       24.600       60.641       29.318       37.707       37.117       35.844     1421.818     1377.669     1284.809        0.461        0.204       65.440       25.669        0.154      341.547       16.334      861.069
10/11/2013  13:15:00       66.636       76.520       64.434       69.806       60.221       47.897     4872.813     3626.568     2294.107        1.262        0.540      101.467       46.362        0.209      341.288       15.897      861.071
10/11/2013  13:16:00       -2.517        9.334       41.830       36.482       39.885       26.664     1330.911     1590.780      710.992        0.274        0.182        9.668       21.175        4.797      341.553       16.346      861.065
10/11/2013  13:17:00       -2.079      -17.012        3.221       45.949       47.432       28.116     2111.307     2249.833      790.526        0.273        0.258       17.138       19.949        1.355      341.615       16.451      861.039
10/11/2013  13:18:00       17.738       14.154       16.003       28.344       33.882       31.469      803.361     1147.973      990.298        0.186        0.147       22.692       18.056        0.633      341.600       16.426      861.033
10/11/2013  13:19:00       17.396        7.201       22.824       51.426       51.283       33.093     2644.585     2629.959     1095.178        0.362        0.318       18.827       37.107        3.885      341.466       16.198      861.033
10/11/2013  13:20:00      155.639       94.560       35.862      116.624       68.973       61.655    13601.163     4757.304     3801.307        2.830        1.108      182.113       33.778        0.034      341.524       16.294      861.019
10/11/2013  13:21:00       62.674       82.525      105.051       88.821       81.876       67.030     7889.132     6703.634     4493.066        2.043        0.954      103.626       57.121        0.304      341.267       15.861      861.011
10/11/2013  13:22:00       83.656       91.543      124.019      102.402       92.050       70.411    10486.083     8473.182     4957.771        2.733        1.196      124.010       68.199        0.302      341.200       15.745      860.965
10/11/2013  13:23:00      120.738       70.546       97.925      109.207      116.089       78.459    11926.162    13476.759     6155.829        3.034        1.578      139.838       64.575        0.213      341.089       15.559      860.959
10/11/2013  13:24:00      180.581       85.068       10.476       85.111       78.459       57.138     7243.879     6155.791     3264.702        2.831        0.833      199.615       38.608        0.037      341.222       15.781      860.957
10/11/2013  13:25:00      162.908      116.769       23.312      111.181       69.993       57.556    12361.224     4899.033     3312.744        3.064        1.029      200.434       27.071        0.018      341.346       15.992      860.948
10/11/2013  13:26:00      162.009       86.311       28.859       77.851       53.219       54.474     6060.750     2832.248     2967.455        2.319        0.593      183.566       41.354        0.051      341.425       16.127      860.933
10/11/2013  13:27:00      236.787      120.689       12.303       56.373       46.999       51.963     3177.970     2208.872     2700.140        3.943        0.404      265.771       32.381        0.015      341.129       15.621      860.922
10/11/2013  13:28:00      113.225       73.851       37.231       85.109       58.217       47.493     7243.506     3389.165     2255.617        1.627        0.644      135.181       35.248        0.068      341.248       15.826      860.916
10/11/2013  13:29:00       82.608       80.232       16.620       42.381       31.664       43.823     1796.168     1002.635     1920.487        0.913        0.236      115.157       24.551        0.045      341.272       15.870      860.913
10/11/2013  13:30:00       61.956       38.544       33.237       61.448       52.444       36.217     3775.886     2750.326     1311.647        0.713        0.392       72.967       32.404        0.197      341.578       16.387      860.885
10/11/2013  13:31:00       55.772      -23.693       27.864       68.455       67.815       47.747     4686.052     4598.849     2279.742        0.800        0.578       60.596       48.639        0.644      341.538       16.321      860.869
10/11/2013  13:32:00        6.450      -20.962       25.245       38.311       62.546       43.296     1467.764     3912.031     1874.550        0.418        0.363       21.932       12.919        0.347      341.838       16.828      860.850
10/11/2013  13:33:00       -5.487       -0.660       26.296       55.533       72.364       55.308     3083.923     5236.535     3058.926        0.605        0.569        5.527       51.789       87.815      341.970       17.051      860.826
10/11/2013  13:34:00      177.768      170.865      127.575       99.249       67.569       58.752     9850.456     4565.601     3451.742        4.747        0.893      246.569       39.185        0.025      341.092       15.562      860.814
10/11/2013  13:35:00       27.410      -14.046       43.951       39.438      107.053       55.611     1555.361    11460.333     3092.570        0.949        0.805       30.799       70.725        5.273      340.916       15.266      860.834
10/11/2013  13:36:00       25.502      -68.335       -3.775       36.602       45.232       31.274     1339.727     2045.959      978.037        0.485        0.218       72.939       19.169        0.069      340.853       15.160      860.824
10/11/2013  13:37:00        0.543      -44.351       -1.917       23.508       22.020       18.374      552.620      484.861      337.586        0.167        0.069       44.354       15.800        0.127      341.141       15.648      860.800
10/11/2013  13:38:00      -58.431       28.774       -7.153       58.413       27.229       24.563     3412.054      741.399      603.330        0.452        0.238       65.131       25.536        0.154      341.399       16.085      860.754
10/11/2013  13:39:00      -60.201        9.694        8.319       59.610       30.409       23.489     3553.406      924.718      551.725        0.441        0.251       60.977       24.292        0.159      341.432       16.142      860.737
10/11/2013  13:40:00        6.047       -7.679       36.874       29.430       46.626       29.366      866.137     2174.014      862.357        0.268        0.195        9.774       18.352        3.526      341.999       17.101      860.716
10/11/2013  13:41:00       40.788       37.700       64.756       70.739       83.731       55.401     5004.065     7010.822     3069.282        1.118        0.754       55.542       54.666        0.969      341.864       16.874      860.689
10/11/2013  13:42:00       35.301      -63.589       28.373       78.763      117.860       50.540     6203.590    13891.083     2554.245        1.437        1.132       72.731       69.082        0.902      341.821       16.800      860.676
10/11/2013  13:43:00       23.582      -73.086       26.526       45.328       62.944       46.828     2054.646     3962.008     2192.895        0.740        0.410       76.796       31.992        0.174      341.871       16.885      860.652
10/11/2013  13:44:00       28.990      -44.997       19.782       38.753       46.882       40.827     1501.806     2197.946     1666.873        0.431        0.268       53.527       27.880        0.271      341.591       16.411      860.634
10/11/2013  13:45:00       -2.092        5.410       38.651       33.925       21.806       30.071     1150.917      475.513      904.260        0.203        0.127        5.800       20.797       12.857      341.583       16.397      860.621
10/11/2013  13:46:00       -6.959       20.785       46.680       17.149       27.909       27.468      294.093      778.939      754.488        0.224        0.091       21.919       20.883        0.908      342.081       17.241      860.594
10/11/2013  13:47:00       18.801       13.045       38.304       40.810       30.200       37.452     1665.423      912.056     1402.652        0.298        0.199       22.883       29.358        1.646      341.586       16.401      860.595
10/11/2013  13:48:00        6.416       -8.792       22.601       34.309       57.284       35.552     1177.086     3281.455     1263.954        0.317        0.286       10.884       31.001        8.112      341.863       16.872      860.570
10/11/2013  13:49:00       89.646       10.623       26.402       86.435       89.970       52.436     7470.942     8094.590     2749.569        1.358        0.916       90.273       41.113        0.207      341.617       16.453      860.557
10/11/2013  13:50:00       74.720       51.567       42.979      104.666       62.728       66.518    10954.883     3934.821     4424.626        1.470        0.966       90.787       36.478        0.161      342.005       17.111      860.545
10/11/2013  13:51:00       67.993       53.239       74.796      104.429       63.777       40.867    10905.314     4067.475     1670.125        1.484        0.832       86.356       22.230        0.066      342.087       17.250      860.554
10/11/2013  13:52:00       79.452       43.643       24.404       66.819       72.089       40.192     4464.839     5196.890     1615.383        1.004        0.564       90.650       21.641        0.057      341.720       16.628      860.568
10/11/2013  13:53:00       77.940      -72.775        0.470       75.040       35.714       26.156     5630.979     1275.517      684.161        0.948        0.380      106.634        9.487        0.008      341.374       16.043      860.579
10/11/2013  13:54:00       21.821       34.082       34.194       36.084       57.067       33.589     1302.031     3256.622     1128.226        0.425        0.284       40.469       24.315        0.361      341.839       16.831      860.574
10/11/2013  13:55:00       57.418       55.225       -3.665       37.769       29.174       22.268     1426.476      851.146      495.859        0.457        0.139       79.666       14.767        0.034      341.615       16.450      860.572
10/11/2013  13:56:00      -20.959       -6.398      -15.154       45.288       25.746       25.727     2050.992      662.869      661.874        0.204        0.169       21.914       18.065        0.680      341.765       16.704      860.566
10/11/2013  13:57:00        9.502      -54.389       -8.826       41.543       44.318       26.865     1725.834     1964.116      721.740        0.377        0.221       55.212       20.001        0.131      341.715       16.621      860.555
10/11/2013  13:58:00       38.918      -88.690       11.408       58.489       90.625       57.991     3420.913     8212.869     3362.939        1.225        0.750       96.853       63.447        0.429      341.880       16.899      860.529
10/11/2013  13:59:00       45.722      -78.382       13.143       91.010      110.918       56.099     8282.856    12302.789     3147.108        1.607        1.187       90.743       56.795        0.392      341.944       17.009      860.530
10/11/2013  14:00:00       42.708       30.756       36.266       44.048       66.174       49.064     1940.221     4378.936     2407.264        0.640        0.436       52.630       45.163        0.736      341.793       16.753      860.537
10/11/2013  14:01:00       63.182       23.268       43.950       80.240       49.406       43.364     6438.388     2440.953     1880.414        0.861        0.538       67.330       34.746        0.266      341.888       16.914      860.525
10/11/2013  14:02:00       -8.625       29.140       40.513       37.762       50.174       48.978     1425.993     2517.459     2398.865        0.445        0.317       30.389       38.081        1.570      342.011       17.123      860.506
10/11/2013  14:03:00       83.900      -95.499       -0.170       49.626       58.476       42.314     2462.758     3419.487     1790.436        1.191        0.384      127.119       36.077        0.081      341.868       16.878      860.505
10/11/2013  14:04:00       83.632      -50.363       16.583       49.757       62.281       43.373     2475.782     3878.942     1881.252        0.902        0.412       97.625       29.153        0.089      342.005       17.113      860.500
10/11/2013  14:05:00       22.323      -35.472       22.106       55.701       77.999       33.189     3102.555     6083.846     1101.537        0.626        0.514       41.912       38.751        0.855      342.337       17.675      860.495
10/11/2013  14:06:00      121.213       45.959       20.965       74.801       70.026       41.375     5595.224     4903.587     1711.911        1.473        0.611      129.633       26.389        0.041      341.773       16.718      860.487
10/11/2013  14:07:00      111.117       74.628       17.643       71.865       58.908       54.463     5164.624     3470.129     2966.217        1.491        0.580      133.852       30.629        0.052      341.748       16.673      860.488
10/11/2013  14:08:00       60.085      100.731       75.158       71.319       56.561       60.150     5086.458     3199.178     3618.042        1.565        0.595      117.290       46.716        0.159      341.920       16.967      860.474
10/11/2013  14:09:00       49.322       31.884       55.645       49.538       63.052       43.632     2453.978     3975.502     1903.717        0.744        0.417       58.730       33.449        0.324      342.180       17.409      860.468
10/11/2013  14:10:00       73.185      -20.835       29.369       71.894       44.515       32.756     5168.797     1981.624     1072.932        0.744        0.411       76.093       36.168        0.226      341.447       16.165      860.465
10/11/2013  14:11:00       19.463      -12.220       29.478       50.822       75.141       40.231     2582.900     5646.118     1618.520        0.562        0.492       22.981       34.430        2.245      341.734       16.653      860.445
10/11/2013  14:12:00      142.669     -202.936      -23.758       38.636       45.957       27.216     1492.754     2112.071      740.688        3.322        0.217      248.067       23.077        0.009      341.413       16.103      860.442
10/11/2013  14:13:00       70.914     -113.882       -6.700       47.287       50.791       27.245     2236.064     2579.696      742.309        1.180        0.278      134.156       21.273        0.025      341.595       16.417      860.426
10/11/2013  14:14:00       50.316      -74.136       12.224       61.727       66.195       48.406     3810.245     4381.767     2343.163        0.935        0.527       89.598       43.759        0.239      341.968       17.048      860.412
10/11/2013  14:15:00       65.120     -149.405       -2.112       60.377       67.543       42.998     3645.351     4561.992     1848.844        1.831        0.503      162.981       41.450        0.065      341.700       16.595      860.408
10/11/2013  14:16:00       36.423      -70.318       28.309       49.023       75.360       37.619     2403.297     5679.062     1415.162        0.828        0.475       79.191       43.879        0.307      341.802       16.767      860.409
10/11/2013  14:17:00       43.290      -35.918       33.936       58.626       70.655       47.314     3437.058     4992.124     2238.613        0.749        0.533       56.251       49.784        0.783      341.891       16.919      860.398
10/11/2013  14:18:00       12.078        1.616       57.467       52.941       63.489       48.302     2802.779     4030.859     2333.081        0.631        0.458       12.186       40.074       10.815      341.927       16.980      860.391
10/11/2013  14:19:00       41.131       -3.409       18.326       49.381       61.323       36.903     2438.515     3760.473     1361.838        0.480        0.378       41.272       32.922        0.636      341.744       16.669      860.393
10/11/2013  14:20:00       25.847       -9.577       44.058       35.642       66.393       34.192     1270.368     4407.999     1169.059        0.477        0.342       27.564       30.400        1.216      342.128       17.321      860.374
10/11/2013  14:21:00       53.046      -30.168       23.736       59.838       57.771       45.514     3580.597     3337.536     2071.566        0.664        0.449       61.024       43.273        0.503      341.865       16.874      860.362
10/11/2013  14:22:00       64.631      -31.829       11.214       63.798       66.940       38.448     4070.205     4480.996     1478.237        0.767        0.501       72.043       52.944        0.540      342.045       17.181      860.338
10/11/2013  14:23:00       66.686     -119.450        7.153       56.153       85.543       41.676     3153.171     7317.601     1736.926        1.548        0.610      136.804       32.033        0.055      342.110       17.290      860.309
10/11/2013  14:24:00       70.840     -136.777      -12.083       77.563       65.520       52.184     6016.021     4292.856     2723.181        1.845        0.652      154.033       50.943        0.109      341.922       16.970      860.309
10/11/2013  14:25:00       85.810     -132.010      -12.127       76.049       91.971       58.767     5783.442     8458.670     3453.547        2.131        0.885      157.448       55.885        0.126      341.942       17.004      860.305
10/11/2013  14:26:00      143.337     -172.595      -33.310       66.996       88.991       44.687     4488.523     7919.389     1996.971        3.292        0.720      224.354       38.767        0.030      341.819       16.793      860.292
10/11/2013  14:27:00       50.752      -39.591       28.561       91.048      136.488       83.052     8289.781    18628.935     6897.610        1.938        1.691       64.368       84.124        1.708      342.106       17.283      860.261
10/11/2013  14:28:00       46.090       62.675      104.104      103.224       84.904       67.891    10655.232     7208.663     4609.220        1.968        1.124       77.797       62.719        0.650      342.128       17.321      860.259
10/11/2013  14:29:00      107.842       42.701       90.908       83.874       98.192       72.995     7034.895     9641.608     5328.295        2.186        1.100      115.988       74.481        0.412      341.613       16.446      860.253
10/11/2013  14:30:00       98.890      -80.606       16.487       85.175       75.769       54.087     7254.725     5740.967     2925.432        1.623        0.796      127.580       49.589        0.151      341.922       16.969      860.228
10/11/2013  14:31:00       59.721       74.538       46.179       70.282       56.589       50.204     4939.627     3202.363     2520.423        1.096        0.533       95.512       46.177        0.234      341.935       16.994      860.216
10/11/2013  14:32:00       73.048       -7.154       33.943       50.652      102.543       47.478     2565.580    10515.110     2254.134        1.093        0.767       73.398       54.838        0.558      341.994       17.094      860.205
10/11/2013  14:33:00       47.694      -43.367        2.562       40.883       38.667       43.838     1671.416     1495.132     1921.792        0.462        0.254       64.462       23.024        0.128      341.718       16.625      860.198
10/11/2013  14:34:00       21.626      -10.866        1.642       19.737       40.651       24.822      389.555     1652.526      616.141        0.162        0.133       24.203        8.960        0.137      341.732       16.649      860.184
10/11/2013  14:35:00       51.173       23.613       72.042       64.714       90.419       70.266     4187.886     8175.662     4937.339        1.283        0.865       56.358       67.763        1.446      341.866       16.876      860.162
10/11/2013  14:36:00       56.452       72.215       83.278       98.459       94.508       67.878     9694.144     8931.848     4607.436        1.928        1.162       91.662       57.070        0.388      341.866       16.875      860.138
10/11/2013  14:37:00       82.028      -80.056       43.613       95.052       90.776       67.433     9034.877     8240.263     4547.228        1.843        1.091      114.619       63.116        0.303      342.179       17.405      860.120
10/11/2013  14:38:00      142.128      -57.811       41.242       94.917       77.337       58.736     9009.284     5981.027     3449.910        2.184        0.922      153.436       49.944        0.106      342.167       17.386      860.107
10/11/2013  14:39:00       57.629     -135.156       15.839       51.608      110.389       41.231     2663.390    12185.794     1699.984        1.919        0.827      146.930       49.092        0.112      342.185       17.416      860.116
10/11/2013  14:40:00       82.249     -111.486       -4.678       50.883       62.995       38.293     2589.129     3968.358     1466.376        1.362        0.401      138.542       29.511        0.045      342.174       17.400      860.113
10/11/2013  14:41:00       77.965     -176.707       -6.792       51.117       33.901       24.148     2612.900     1149.304      583.132        2.085        0.217      193.142       23.623        0.015      342.234       17.500      860.104
10/11/2013  14:42:00       90.302     -119.764      -10.486       52.938       58.670       35.029     2802.449     3442.217     1227.038        1.504        0.374      149.992       26.630        0.032      341.996       17.097      860.094
10/11/2013  14:43:00       44.273     -105.926       11.778       59.724       85.094       53.385     3567.007     7241.042     2849.925        1.349        0.683      114.806       52.415        0.208      342.511       17.970      860.075
10/11/2013  14:44:00       90.379     -140.576       -2.407      108.712      100.104       71.084    11818.335    10020.765     5052.952        2.741        1.345      167.123       76.579        0.210      342.262       17.547      860.054
10/11/2013  14:45:00       99.836     -164.154      -11.108       69.330       71.251       45.340     4806.628     5076.771     2055.728        2.449        0.597      192.129       36.199        0.035      342.215       17.466      860.058
10/11/2013  14:46:00       87.677     -190.054        1.887       59.287       63.904       45.272     3514.961     4083.782     2049.512        2.673        0.482      209.303       23.395        0.012      342.210       17.457      860.055
10/11/2013  14:47:00       74.028      -85.048       44.301       74.464      110.500       66.967     5544.825    12210.145     4484.633        1.845        1.112      112.753       63.458        0.317      342.231       17.494      860.046
10/11/2013  14:48:00       54.235      -95.365        9.824       49.317       70.103       38.197     2432.207     4914.490     1459.031        1.047        0.440      109.709       37.867        0.119      342.155       17.367      860.054
10/11/2013  14:49:00       67.500     -149.005       -8.040       64.158       49.695       40.145     4116.186     2469.601     1611.658        1.751        0.410      163.581       23.398        0.020      342.139       17.338      860.036
10/11/2013  14:50:00       58.595     -172.721      -17.670       99.285       60.164       46.701     9857.451     3619.736     2181.028        2.461        0.783      182.389       34.700        0.036      342.249       17.523      860.022
10/11/2013  14:51:00      -66.191     -104.697       -8.605       91.548       55.560       47.111     8381.085     3086.931     2219.451        1.455        0.684      123.866       29.357        0.056      342.210       17.461      860.026
10/11/2013  14:52:00      -49.141     -118.868        4.730      107.573       90.077       39.092    11572.006     8113.861     1528.222        1.889        1.061      128.625       37.989        0.087      342.218       17.473      860.023
10/11/2013  14:53:00      104.051     -150.933        3.949       57.373       89.912       51.888     3291.682     8084.108     2692.393        2.384        0.703      183.323       47.930        0.068      342.260       17.543      860.014
10/11/2013  14:54:00       48.507      -15.704       50.402       63.091       88.308       63.017     3980.423     7798.254     3971.142        1.044        0.787       50.986       54.304        1.134      342.272       17.564      860.009
10/11/2013  14:55:00       73.213        2.013       61.021       78.986      108.626       60.887     6238.846    11799.678     3707.169        1.541        1.087       73.240       52.304        0.510      342.227       17.488      859.998
10/11/2013  14:56:00       86.727      -71.861       11.100       55.522       70.500       47.560     3082.667     4970.265     2261.999        1.156        0.516      112.630       35.020        0.097      341.856       16.860      860.005
10/11/2013  14:57:00      126.780     -188.138      -33.513       72.906       89.518       51.459     5315.333     8013.522     2648.023        3.428        0.799      226.868       39.890        0.031      342.303       17.616      859.988
10/11/2013  14:58:00      146.664     -121.964       -6.158       75.099       96.400       45.256     5639.824     9292.948     2048.079        2.670        0.849      190.750       55.783        0.086      342.223       17.481      859.980
10/11/2013  14:59:00       94.705      -48.032       30.434       79.421       86.438       69.765     6307.714     7471.473     4867.211        1.542        0.932      106.189       58.477        0.303      342.288       17.592      859.979
10/11/2013  15:00:00       53.846       -9.254       47.151       48.977       51.207       43.499     2398.757     2622.190     1892.146        0.606        0.346       54.636       21.434        0.154      342.310       17.630      859.968
10/11/2013  15:01:00      105.774     -129.739        9.744       68.854      140.670       64.675     4740.937    19788.037     4182.857        2.841        1.436      167.393       85.878        0.263      342.249       17.524      859.947
10/11/2013  15:02:00       33.465      -77.491       20.404       61.889       95.219       56.638     3830.302     9066.584     3207.907        1.182        0.805       84.409       63.407        0.564      342.377       17.743      859.934
10/11/2013  15:03:00       74.956       -9.463       77.717       97.741      102.749       58.460     9553.371    10557.326     3417.601        1.763        1.176       75.551       71.038        0.884      342.420       17.815      859.916
10/11/2013  15:04:00       92.656       24.508       46.776      107.935       88.626       53.019    11649.930     7854.609     2811.063        1.684        1.116       95.843       68.865        0.516      342.266       17.554      859.901
10/11/2013  15:05:00      116.464       -2.796       24.350       98.496       65.250       47.146     9701.514     4257.507     2222.790        1.517        0.809      116.498       47.733        0.168      342.335       17.673      859.877
10/11/2013  15:06:00       15.012       -4.302       57.252       52.367       76.592       66.538     2742.344     5866.269     4427.357        0.828        0.652       15.616       57.882       13.738      342.578       18.086      859.842
10/11/2013  15:07:00       72.946     -108.031       10.090       59.065       83.786       59.654     3488.651     7020.136     3558.584        1.558        0.703      130.353       50.743        0.152      342.527       17.999      859.835
10/11/2013  15:08:00       90.183      -73.687       43.849       94.776      115.915       70.669     8982.526    13436.392     4994.177        2.144        1.371      116.460       83.710        0.517      342.450       17.866      859.819
10/11/2013  15:09:00       11.631      -46.564       13.491       47.568       40.156       38.223     2262.750     1612.495     1461.016        0.391        0.267       47.994       28.792        0.360      342.475       17.913      859.816
10/11/2013  15:10:00       33.622       69.094       69.959       57.986       56.030       39.016     3362.385     3139.359     1522.218        0.941        0.401       76.840       31.949        0.173      342.438       17.848      859.810
10/11/2013  15:11:00       53.055        6.339       23.488       46.619       58.528       39.916     2173.303     3425.534     1593.303        0.530        0.360       53.432       19.750        0.137      342.221       17.479      859.808
10/11/2013  15:12:00       -5.039      -33.151       21.577       32.617       51.809       32.127     1063.874     2684.166     1032.161        0.318        0.239       33.532       13.325        0.158      342.322       17.652      859.800
10/11/2013  15:13:00      127.873      -77.345        9.872      102.390       95.962       57.681    10483.612     9208.735     3327.147        2.272        1.151      149.445       57.922        0.150      342.375       17.739      859.789
10/11/2013  15:14:00       54.929      -69.872       20.761       69.705       87.141       66.781     4858.736     7593.532     4459.645        1.262        0.846       88.878       63.379        0.509      342.608       18.133      859.795
10/11/2013  15:15:00      166.211     -119.738       14.002       69.974       80.389       65.437     4896.369     6462.403     4282.031        2.890        0.782      204.850       46.516        0.052      342.335       17.669      859.807
10/11/2013  15:16:00       26.802       -6.832       46.447       55.596       64.354       42.079     3090.866     4141.500     1770.649        0.596        0.450       27.659       35.761        1.672      342.369       17.731      859.811
10/11/2013  15:17:00      114.879       82.134       42.794       73.056       46.838       59.626     5337.244     2193.820     3555.311        1.643        0.554      141.221       47.816        0.115      342.344       17.688      859.814
10/11/2013  15:18:00       54.815       41.549       48.575       53.749       43.492       28.723     2888.932     1891.591      824.994        0.635        0.280       68.782       22.332        0.105      342.339       17.681      859.817
10/11/2013  15:19:00       27.565        5.298       24.752       35.479       23.880       26.129     1258.789      570.233      682.709        0.196        0.126       28.069       17.630        0.394      342.279       17.577      859.815
10/11/2013  15:20:00       74.093      -72.126       23.101       56.472       94.146       43.949     3189.039     8863.548     1931.537        1.260        0.699      103.402       55.739        0.291      342.162       17.378      859.792
10/11/2013  15:21:00      114.635     -133.061       -4.138      103.329      150.029       89.072    10676.856    22508.622     7933.820        3.598        2.056      175.632      108.408        0.381      342.205       17.448      859.769
10/11/2013  15:22:00       -0.840      -60.385        9.120       81.742       69.857       39.887     6681.758     4880.031     1590.992        0.844        0.658       60.391       37.502        0.386      342.449       17.866      859.784
10/11/2013  15:23:00       80.452     -106.724       -5.359       78.049       74.041       43.912     6091.597     5482.097     1928.232        1.569        0.675      133.651       35.161        0.069      342.451       17.868      859.778
10/11/2013  15:24:00       88.822     -156.206      -10.567       62.139       89.251       41.841     3861.206     7965.673     1750.699        2.299        0.679      179.693       38.684        0.046      342.137       17.332      859.766
10/11/2013  15:25:00       65.907     -115.299       -6.566       29.638       58.940       30.480      878.437     3473.944      929.052        1.148        0.264      132.807       32.700        0.061      342.246       17.522      859.768
10/11/2013  15:26:00       16.583      -32.744       27.547       69.121       39.709       35.218     4777.659     1576.775     1240.330        0.485        0.380       36.704       28.705        0.612      342.713       18.314      859.765
10/11/2013  15:27:00      -16.690      -55.640       11.355       61.653       54.082       36.659     3801.061     2924.894     1343.911        0.578        0.403       58.089       43.485        0.560      342.721       18.331      859.750
10/11/2013  15:28:00       19.044      -12.281       11.872       28.983       31.066       24.498      840.037      965.077      600.171        0.153        0.120       22.661       17.121        0.571      342.727       18.339      859.739
10/11/2013  15:29:00       63.589      -93.025      -15.409       45.728       58.606       29.666     2091.090     3434.711      880.091        0.967        0.320      112.682       26.654        0.056      342.259       17.544      859.726
10/11/2013  15:30:00       -6.382      -71.461       -2.632       41.247       48.607       30.902     1701.292     2362.667      954.924        0.509        0.251       71.746       27.360        0.145      342.821       18.499      859.721
10/11/2013  15:31:00      145.223     -182.133      -25.518       72.375       65.896       39.358     5238.128     4342.281     1549.018        3.302        0.556      232.942       31.554        0.018      342.301       17.611      859.707
10/11/2013  15:32:00      165.387     -156.840       -9.921       88.171      106.629       59.201     7774.183    11369.657     3504.725        3.734        1.132      227.929       70.196        0.095      342.301       17.611      859.688
10/11/2013  15:33:00       67.878      -73.107       17.579       82.288       51.934       39.019     6771.370     2697.114     1522.455        1.062        0.550       99.760       42.083        0.178      342.245       17.519      859.696
10/11/2013  15:34:00       33.050      -22.869       12.404       49.966       45.387       39.521     2496.607     2059.979     1561.901        0.394        0.306       40.191       30.993        0.595      342.133       17.330      859.679
10/11/2013  15:35:00       79.692      -45.074       26.627       72.860       77.563       55.498     5308.515     6016.072     3080.056        1.175        0.720       91.555       53.773        0.345      342.438       17.847      859.661
10/11/2013  15:36:00       28.093      -23.324       46.624       85.355       92.289       56.020     7285.442     8517.239     3138.226        1.122        0.947       36.513       64.188        3.090      342.427       17.827      859.670
10/11/2013  15:37:00       64.489      -67.577       -3.550       66.084       61.921       35.327     4367.136     3834.220     1247.989        0.909        0.472       93.410       35.290        0.143      342.702       18.295      859.682
10/11/2013  15:38:00      -18.638       12.901       28.300       32.940       43.143       29.309     1085.025     1861.360      859.001        0.256        0.190       22.668       26.420        1.359      342.613       18.145      859.681
10/11/2013  15:39:00      -36.339       13.450        2.007       44.655       40.034       34.549     1994.059     1602.704     1193.614        0.315        0.240       38.749       15.125        0.152      342.526       17.998      859.677
10/11/2013  15:40:00       54.851      -66.707      -19.166       42.993       70.815       40.200     1848.423     5014.703     1616.039        0.815        0.424       86.363       38.539        0.199      342.388       17.761      859.665
10/11/2013  15:41:00       17.538      -45.176       40.031       45.153       52.291       47.147     2038.776     2734.393     2222.811        0.547        0.350       48.461       33.345        0.473      342.677       18.254      859.656
10/11/2013  15:42:00      131.992     -107.597       16.995       82.314      116.486       65.933     6775.571    13569.016     4347.200        2.698        1.235      170.291       73.893        0.188      342.312       17.632      859.648
10/11/2013  15:43:00      141.665      -84.828       17.147       62.544       59.434       47.351     3911.737     3532.431     2242.120        1.862        0.484      165.121       38.105        0.053      342.006       17.113      859.667
10/11/2013  15:44:00       69.287      -36.445       23.874       61.075       69.844       42.464     3730.105     4878.159     1803.230        0.855        0.521       78.287       40.636        0.269      342.089       17.254      859.676
10/11/2013  15:45:00      100.120      -85.111       13.829      111.880       97.550       58.469    12517.114     9516.082     3418.621        2.145        1.273      131.408       62.173        0.224      342.287       17.589      859.680
10/11/2013  15:46:00      108.731       72.487       39.303       60.763       39.593       46.205     3692.158     1567.585     2134.887        1.301        0.370      130.678       29.706        0.052      342.254       17.536      859.700
10/11/2013  15:47:00       59.360       26.325       22.987       30.398       36.426       22.914      924.050     1326.817      525.066        0.376        0.139       64.936       19.641        0.091      342.258       17.542      859.696
10/11/2013  15:48:00       55.779     -102.519      -16.984       70.606       83.420       52.365     4985.228     6958.887     2742.092        1.430        0.734      116.711       38.772        0.110      342.170       17.391      859.679
10/11/2013  15:49:00       74.058      -44.268       46.516       78.475      102.697       84.364     6158.355    10546.747     7117.227        1.671        1.191       86.280       82.807        0.921      342.411       17.801      859.666
10/11/2013  15:50:00      120.369     -161.843      -10.790       58.780       48.740       30.857     3455.124     2375.621      952.144        2.379        0.339      201.697       25.142        0.016      342.566       18.062      859.675
10/11/2013  15:51:00       59.959     -162.863      -30.850       80.777       65.656       53.281     6524.877     4310.678     2838.875        2.237        0.684      173.550       30.061        0.030      342.553       18.041      859.661
10/11/2013  15:52:00       32.146      -76.646       13.249       52.598       97.786       50.536     2766.552     9562.091     2553.895        1.098        0.744       83.114       57.499        0.479      342.545       18.029      859.646
10/11/2013  15:53:00       -0.642       11.953       32.361       30.841       25.813       22.280      951.178      666.307      496.384        0.165        0.106       11.970       13.795        1.328      342.650       18.208      859.633
10/11/2013  15:54:00       22.206       17.930       16.653       30.250       30.067       22.562      915.069      903.995      509.025        0.171        0.116       28.541       18.266        0.410      342.658       18.220      859.621
10/11/2013  15:55:00       60.958        5.137       23.117       31.443       36.963       33.365      988.676     1366.290     1113.245        0.387        0.173       61.174       21.954        0.129      342.195       17.435      859.604
10/11/2013  15:56:00       29.123      -33.158      -10.928       48.816       35.843       30.002     2383.021     1284.734      900.093        0.332        0.228       44.132       25.838        0.343      342.269       17.561      859.581
10/11/2013  15:57:00       21.304       -5.037       21.171       44.594       21.455       20.472     1988.605      460.329      419.085        0.190        0.143       21.892        8.821        0.162      342.459       17.883      859.579
10/11/2013  15:58:00       37.167      -19.122       18.437       27.624       34.231       23.750      763.076     1171.774      564.047        0.229        0.125       41.797       17.557        0.176      342.370       17.731      859.563
10/11/2013  15:59:00       32.677      -59.263       15.070       36.230       45.077       30.649     1312.630     2031.900      939.335        0.454        0.214       67.675       28.684        0.180      342.607       18.134      859.556
10/11/2013  16:00:00       19.534      -53.641       20.580       78.212       78.372       33.244     6117.100     6142.220     1105.177        0.852        0.668       57.087       32.664        0.327      342.868       18.580      859.552
10/11/2013  16:01:00      -58.362       -6.194        6.457       50.298       47.588       34.896     2529.867     2264.645     1217.737        0.475        0.301       58.690       40.912        0.486      342.749       18.377      859.553
10/11/2013  16:02:00      -35.324     -137.066       -0.996       59.538       66.133       33.473     3544.815     4373.592     1120.443        1.454        0.452      141.545       34.576        0.060      342.576       18.083      859.563
10/11/2013  16:03:00      -97.691     -148.524      -11.162       58.035       52.618       33.147     3368.053     2768.696     1098.706        1.948        0.362      177.772       28.001        0.025      342.467       17.896      859.562
10/11/2013  16:04:00      -14.843      -14.762       20.674       83.011      102.639       71.780     6890.773    10534.742     5152.382        1.172        1.129       20.934       76.202       13.250      342.448       17.863      859.576
10/11/2013  16:05:00       40.632       60.753       -0.652       35.685       38.855       25.397     1273.384     1509.701      645.004        0.438        0.171       73.088       11.541        0.025      342.357       17.709      859.577
10/11/2013  16:06:00      -93.598       74.759      -29.040       38.888       54.036       24.089     1512.288     2919.924      580.273        1.010        0.251      119.790       14.804        0.015      342.448       17.864      859.557
10/11/2013  16:07:00      -86.836       64.086       -3.467       41.918       61.726       31.160     1757.123     3810.083      970.925        0.910        0.327      107.923       26.115        0.059      343.004       18.809      859.550
10/11/2013  16:08:00      -76.228      105.919       -8.770       46.199       44.859       32.760     2134.373     2012.327     1073.233        1.116        0.261      130.497       27.114        0.043      342.736       18.353      859.549
10/11/2013  16:09:00      -17.918       36.869        2.305       36.744       52.210       32.695     1350.157     2725.909     1068.965        0.341        0.257       40.992       31.745        0.600      342.679       18.258      859.544
10/11/2013  16:10:00       56.071       48.973       10.251       42.846       39.021       34.337     1835.776     1522.637     1179.061        0.509        0.227       74.447       14.306        0.037      342.528       18.000      859.535
10/11/2013  16:11:00       18.675       74.787       -4.722       52.695       46.738       37.134     2776.769     2184.434     1378.940        0.615        0.317       77.084       30.953        0.161      342.502       17.955      859.534
10/11/2013  16:12:00       49.274       62.176      -10.038       36.457       43.179       28.413     1329.127     1864.408      807.275        0.520        0.200       79.333       23.193        0.085      342.451       17.868      859.536
10/11/2013  16:13:00       45.073       24.713      -14.970       51.606       28.171       17.636     2663.202      793.579      311.036        0.332        0.188       51.404       12.921        0.063      342.422       17.821      859.541
10/11/2013  16:14:00       -6.528       38.998        3.629       41.243       21.470       23.573     1700.965      460.975      555.699        0.215        0.136       39.541       15.502        0.154      342.662       18.229      859.549
10/11/2013  16:15:00       25.725       43.534        8.316       43.132       27.105       20.889     1860.356      734.667      436.365        0.283        0.152       50.567       18.517        0.134      342.542       18.024      859.548
10/11/2013  16:16:00       11.030       74.003      -10.835       24.601       33.870       18.826      605.226     1147.203      354.420        0.391        0.105       74.820       17.436        0.054      342.584       18.095      859.533
10/11/2013  16:17:00      -22.322       81.330       -4.340       29.135       24.326       21.128      848.863      591.746      446.385        0.451        0.094       84.338       10.079        0.014      342.443       17.856      859.516
10/11/2013  16:18:00      -19.590       61.708       -8.541       16.362       16.122       11.454      267.709      259.919      131.197        0.246        0.033       64.743        2.664        0.002      342.455       17.875      859.511
10/11/2013  16:19:00       32.210        0.040       -1.542       21.153       30.840       16.933      447.466      951.118      286.728        0.136        0.084       32.210       15.670        0.237      342.340       17.681      859.510
10/11/2013  16:20:00       28.645     -131.368        1.244       59.175       57.046       36.922     3501.730     3254.219     1363.217        1.310        0.406      134.455       11.892        0.008      342.565       18.062      859.499
10/11/2013  16:21:00        4.829      -46.942        4.864       20.899       50.174       22.570      436.755     2517.410      509.399        0.286        0.173       47.190       16.737        0.126      342.511       17.970      859.480
10/11/2013  16:22:00       42.812      -31.696       21.432       44.204       45.860       33.619     1953.962     2103.154     1130.211        0.424        0.259       53.268       32.590        0.374      342.261       17.547      859.472
10/11/2013  16:23:00       10.275      -35.207       21.307       32.564       48.204       31.062     1060.408     2323.650      964.867        0.307        0.217       36.675       18.841        0.264      342.324       17.653      859.467
10/11/2013  16:24:00       65.586      -13.685       29.517       72.424       39.965       46.065     5245.172     1597.214     2121.949        0.716        0.448       66.998       40.411        0.364      342.141       17.343      859.472
10/11/2013  16:25:00       54.907       -5.232       19.318       38.152       44.062       32.699     1455.559     1941.435     1069.193        0.394        0.223       55.156       28.755        0.272      341.873       16.887      859.487
10/11/2013  16:26:00       56.855        2.180        4.733       28.790       27.732       24.495      828.854      769.071      599.984        0.273        0.110       56.896       12.256        0.046      342.039       17.170      859.493
10/11/2013  16:27:00       17.509       12.051       36.335       31.043       35.271       21.934      963.673     1244.019      481.121        0.223        0.134       21.255       20.952        0.972      341.949       17.017      859.494
10/11/2013  16:28:00       -9.170       -3.318       31.462       27.536       38.574       24.189      758.244     1487.973      585.095        0.196        0.142        9.752       20.815        4.556      342.330       17.665      859.493
10/11/2013  16:29:00       -1.530      -44.594       27.874       40.649       38.481       28.504     1652.309     1480.798      812.476        0.336        0.197       44.620       21.187        0.225      342.483       17.925      859.482
10/11/2013  16:30:00       25.636      -15.755       35.017       43.021       60.827       37.130     1850.843     3699.961     1378.616        0.453        0.346       30.091       37.434        1.548      342.221       17.479      859.474
10/11/2013  16:31:00       43.126      -37.344       24.155       51.293       55.318       52.143     2631.021     3060.046     2718.856        0.612        0.420       57.047       41.396        0.527      342.507       17.965      859.468
10/11/2013  16:32:00       99.726      -96.045       -1.275       61.078       54.821       43.674     3730.562     3005.381     1907.378        1.391        0.432      138.455       44.484        0.103      342.458       17.881      859.452
10/11/2013  16:33:00       59.290      -87.537       19.996       61.963       95.460       45.995     3839.394     9112.668     2115.518        1.332        0.753      105.726       59.536        0.317      342.582       18.091      859.447
10/11/2013  16:34:00       47.229      -66.236       31.450       65.366       95.584       37.835     4272.772     9136.302     1431.501        1.122        0.742       81.349       49.826        0.375      342.526       17.998      859.440
10/11/2013  16:35:00       56.977      -63.962       26.924       50.033       74.177       35.979     2503.337     5502.166     1294.518        0.868        0.465       85.659       42.092        0.241      342.474       17.909      859.431
10/11/2013  16:36:00       89.253     -122.058       -6.355       58.586       67.057       42.540     3432.285     4496.694     1809.619        1.632        0.487      151.209       44.544        0.087      342.461       17.885      859.418
10/11/2013  16:37:00       72.575     -138.911      -13.014       56.092       64.458       46.393     3146.321     4154.896     2152.267        1.709        0.473      156.727       37.381        0.057      342.401       17.783      859.405
10/11/2013  16:38:00        1.845       12.423       65.043       35.304       75.503       38.898     1246.373     5700.633     1513.060        0.642        0.423       12.559       40.417       10.356      342.338       17.679      859.389
10/11/2013  16:39:00        0.325      -29.613       30.720       43.786       68.363       49.779     1917.172     4673.482     2477.977        0.544        0.453       29.615       26.737        0.815      342.185       17.418      859.374
10/11/2013  16:40:00        8.339      -55.106        9.319       38.672       49.136       33.797     1495.550     2414.387     1142.209        0.412        0.253       55.733       33.452        0.360      342.239       17.509      859.365
10/11/2013  16:41:00       29.243      -33.035       20.899       37.903       50.698       32.110     1436.618     2570.294     1031.035        0.371        0.252       44.119       26.757        0.368      342.476       17.912      859.368
10/11/2013  16:42:00       56.634      -65.852       10.669       53.478       70.916       44.217     2859.934     5029.079     1955.109        0.875        0.492       86.855       49.813        0.329      342.356       17.708      859.372
10/11/2013  16:43:00       50.152      -73.445      -10.145       32.192       64.672       42.872     1036.328     4182.482     1837.974        0.753        0.353       88.935       43.993        0.245      342.311       17.631      859.372
10/11/2013  16:44:00       21.933      -23.892       26.948       35.815       35.885       25.470     1282.716     1287.710      648.713        0.250        0.161       32.433       21.135        0.425      342.387       17.760      859.363
10/11/2013  16:45:00        4.667       13.199       26.990       29.589       25.313       21.567      875.537      640.765      465.148        0.145        0.099       14.000       13.031        0.866      342.067       17.217      859.349
10/11/2013  16:46:00       15.148      -35.192       11.404       33.828       33.943       25.294     1144.319     1152.157      639.777        0.227        0.147       38.314       23.447        0.374      342.170       17.392      859.333
10/11/2013  16:47:00       10.277      -38.845       18.924       20.513       44.505       27.542      420.764     1980.725      758.585        0.257        0.158       40.182       27.173        0.457      342.341       17.683      859.321
10/11/2013  16:48:00       56.414      -83.081      -14.619       25.902       47.747       19.151      670.907     2279.767      366.767        0.681        0.166      100.424       13.497        0.018      342.285       17.586      859.306
10/11/2013  16:49:00       32.583      -20.527       20.990       31.025       38.758       23.023      962.536     1502.160      530.038        0.246        0.150       38.510       25.848        0.450      342.280       17.580      859.297
10/11/2013  16:50:00       -0.976       22.848       32.749       17.175       18.235       16.005      294.964      332.499      256.168        0.124        0.044       22.869       13.321        0.339      342.027       17.150      859.291
10/11/2013  16:51:00       -8.851       17.813       43.614       13.086       36.032       16.882      171.248     1298.334      285.012        0.203        0.088       19.891       18.403        0.856      342.254       17.534      859.289
10/11/2013  16:52:00        3.728       -0.860       21.015       18.973       33.148       20.964      359.972     1098.765      439.507        0.118        0.095        3.826       14.686       14.736      342.285       17.586      859.283
10/11/2013  16:53:00       -3.921       -7.149        3.745       23.179       21.549       17.344      537.267      464.350      300.817        0.069        0.065        8.154        5.548        0.463      342.314       17.636      859.276
10/11/2013  16:54:00       29.180      -30.996       -1.680       30.530       34.974       27.450      932.087     1223.158      753.514        0.236        0.145       42.571       24.739        0.338      342.307       17.623      859.267
10/11/2013  16:55:00      -23.483      -16.703       -3.309       21.062       18.369       19.802      443.614      337.410      392.117        0.101        0.059       28.817        7.875        0.075      342.406       17.794      859.261
10/11/2013  16:56:00      -27.294       -7.475        6.289       22.907       22.508       16.262      524.720      506.604      264.452        0.107        0.065       28.299       10.974        0.150      342.531       18.007      859.259
10/11/2013  16:57:00       -6.583      -33.166       -0.942       19.719       28.545       23.818      388.842      814.792      567.315        0.146        0.089       33.813       10.794        0.102      342.607       18.134      859.262
10/11/2013  16:58:00       15.934       -2.635        1.586       17.611       15.722       14.302      310.143      247.181      204.534        0.051        0.038       16.150        5.311        0.108      342.454       17.875      859.251
10/11/2013  16:59:00      -30.369        2.637       -5.679       27.680       15.608       18.604      766.202      243.598      346.094        0.116        0.068       30.484       18.440        0.366      342.657       18.219      859.236
10/11/2013  17:00:00      -35.797       -6.953       -1.637       29.253       13.082       16.883      855.729      171.146      285.034        0.132        0.066       36.466       17.442        0.229      342.601       18.125      859.233
10/11/2013  17:01:00        6.035      -38.588        7.585       34.898       30.275       28.893     1217.899      916.559      834.795        0.228        0.148       39.057       20.898        0.286      342.491       17.938      859.232
10/11/2013  17:02:00      -22.794      -74.152        9.340       42.702       41.978       28.235     1823.498     1762.182      797.208        0.524        0.219       77.576       11.666        0.023      342.543       18.026      859.224
10/11/2013  17:03:00      -32.655      -26.192        9.363       51.037       26.844       21.440     2604.819      720.609      459.656        0.281        0.189       41.861       11.595        0.077      342.597       18.117      859.217
10/11/2013  17:04:00        1.925      -26.065       23.151       39.679       26.610       29.234     1574.387      708.086      854.648        0.218        0.157       26.136       28.345        1.176      342.644       18.197      859.208
10/11/2013  17:05:00      -28.276      -27.436       -4.458       51.956       30.376       22.202     2699.382      922.676      492.915        0.284        0.206       39.399       19.848        0.254      342.466       17.896      859.199
10/11/2013  17:06:00      -14.537      -15.243        3.931       27.063       15.031       17.824      732.394      225.934      317.711        0.087        0.064       21.063        8.949        0.181      342.599       18.121      859.202
10/11/2013  17:07:00      -15.869      -19.739      -14.959       32.079       25.133       16.912     1029.037      631.648      286.010        0.141        0.097       25.327       16.582        0.429      342.372       17.735      859.193
10/11/2013  17:08:00       58.137      -25.419        5.789       29.730       49.550       21.948      883.843     2455.171      481.701        0.394        0.191       63.451       11.676        0.034      341.954       17.025      859.190
10/11/2013  17:09:00      108.674     -121.680      -10.588       32.858       37.004       23.750     1079.621     1369.267      564.071        1.487        0.151      163.144       12.287        0.006      342.459       17.883      859.171
10/11/2013  17:10:00       74.988      -63.897       25.639       47.198       60.808       34.028     2227.628     3697.651     1157.875        0.872        0.354       98.519       38.294        0.151      342.430       17.834      859.157
10/11/2013  17:11:00       85.389     -137.179       -5.411       51.742       47.368       30.777     2677.241     2243.691      947.194        1.600        0.293      161.584       27.670        0.029      342.521       17.989      859.153
10/11/2013  17:12:00       38.341      -41.745       15.129       41.963       38.859       34.912     1760.910     1509.999     1218.861        0.396        0.224       56.681       25.757        0.206      342.282       17.583      859.147
10/11/2013  17:13:00       65.434      -78.368      -10.948       45.447       49.700       31.785     2065.454     2470.041     1010.267        0.804        0.277      102.094       19.464        0.036      342.070       17.222      859.141
10/11/2013  17:14:00       44.984      -88.926        1.652       48.752       61.272       36.811     2376.746     3754.202     1355.082        0.871        0.374       99.657       33.232        0.111      342.437       17.846      859.142
10/11/2013  17:15:00       58.329      -49.574       23.115       40.427       40.460       28.249     1634.304     1637.045      798.013        0.523        0.203       76.550       13.930        0.033      342.279       17.579      859.134
10/11/2013  17:16:00       34.867      -62.726       11.701       48.040       55.981       24.511     2307.796     3133.875      600.793        0.566        0.302       71.766       25.632        0.128      342.372       17.734      859.121
10/11/2013  17:17:00       36.679      -24.828       10.474       39.207       25.040       18.635     1537.167      626.981      347.261        0.229        0.126       44.292       14.761        0.111      341.838       16.827      859.116
10/11/2013  17:18:00       41.173      -29.891       11.764       36.179       44.883       25.071     1308.892     2014.475      628.551        0.334        0.198       50.879       25.331        0.248      341.791       16.750      859.111
10/11/2013  17:19:00       57.388     -104.768       18.145       64.201      104.287       44.588     4121.800    10875.836     1988.079        1.579        0.849      119.456       48.305        0.164      342.221       17.478      859.099
10/11/2013  17:20:00      120.461     -136.020      -10.802       74.439       62.583       47.719     5541.150     3916.646     2277.100        2.243        0.587      181.693       24.037        0.018      342.381       17.750      859.073
10/11/2013  17:21:00       47.524      -61.990        6.232       54.183       42.732       38.262     2935.834     1826.032     1463.971        0.618        0.311       78.111       32.268        0.171      342.389       17.765      859.073
10/11/2013  17:22:00       10.134       15.366       29.915       30.920       35.679       26.006      956.059     1272.994      676.307        0.207        0.145       18.406       19.933        1.173      342.070       17.222      859.073
10/11/2013  17:23:00      -12.379        8.910       25.014       24.137       28.568       21.918      582.589      816.153      480.381        0.137        0.094       15.252       18.167        1.419      342.217       17.473      859.067
10/11/2013  17:24:00       73.784      -75.986        0.156       44.037       40.475       23.642     1939.213     1638.263      558.945        0.768        0.207      105.915       20.144        0.036      342.399       17.782      859.050
10/11/2013  17:25:00       83.093     -118.472        4.941       52.537       69.878       33.195     2760.147     4882.963     1101.915        1.485        0.437      144.707       32.391        0.050      342.527       17.997      859.025
10/11/2013  17:26:00       41.858      -39.824       25.289       55.795       50.582       38.890     3113.119     2558.561     1512.455        0.558        0.359       57.776       38.982        0.455      342.290       17.596      859.010
10/11/2013  17:27:00        0.729       10.271       35.405       31.535       32.207       32.643      994.483     1037.290     1065.582        0.223        0.155       10.297       21.690        4.437      342.225       17.486      859.010
10/11/2013  17:28:00       38.874      -39.813       21.953       49.931       43.778       30.587     2493.132     1916.550      935.572        0.446        0.267       55.644       25.889        0.216      342.360       17.715      858.993
10/11/2013  17:29:00       13.793      -33.415       16.094       47.658       62.038       28.356     2271.310     3848.743      804.063        0.424        0.346       36.149       33.079        0.837      342.460       17.884      858.990
10/11/2013  17:30:00       45.333      -65.888       26.468       51.211       88.737       46.636     2622.603     7874.237     2174.925        0.988        0.634       79.977       53.285        0.444      342.408       17.795      858.983
10/11/2013  17:31:00       38.926      -89.772        9.499       45.807       70.049       46.591     2098.309     4906.815     2170.698        0.942        0.459       97.848       47.874        0.239      342.422       17.821      858.992
10/11/2013  17:32:00       21.570      -26.302       19.794       38.583       61.178       38.158     1488.683     3742.696     1456.042        0.412        0.334       34.015       39.379        1.340      342.317       17.641      858.991
10/11/2013  17:33:00       71.041      -61.203        4.348       38.540       41.394       39.523     1485.321     1713.458     1562.040        0.679        0.238       93.769       21.617        0.053      342.247       17.524      858.980
10/11/2013  17:34:00       27.622      -12.805       26.581       53.446       59.109       37.975     2856.458     3493.841     1442.136        0.471        0.390       30.445       31.302        1.057      342.033       17.160      858.971
10/11/2013  17:35:00      116.541     -133.236       -9.013       53.393       54.033       32.922     2850.778     2919.572     1083.827        1.913        0.343      177.013       23.058        0.017      342.485       17.925      858.969
10/11/2013  17:36:00       53.891      -87.881       16.927       46.677       93.576       40.737     2178.708     8756.555     1659.506        1.175        0.630      103.089       47.323        0.211      342.459       17.883      858.984
10/11/2013  17:37:00       60.694      -52.990        5.406       38.431       57.266       33.936     1476.934     3279.402     1151.675        0.621        0.295       80.571       17.757        0.049      341.955       17.026      858.979
10/11/2013  17:38:00       72.488      -64.414        7.205       42.595       37.979       25.440     1814.359     1442.390      647.214        0.668        0.195       96.973       21.433        0.049      342.279       17.577      858.984
10/11/2013  17:39:00       24.044      -40.733       19.974       50.668       65.477       27.703     2567.205     4287.220      767.435        0.513        0.381       47.301       34.621        0.536      342.439       17.850      858.988
10/11/2013  17:40:00       12.033        1.451       14.149       24.042       27.257       24.180      578.015      742.961      584.691        0.113        0.095       12.120       17.824        2.163      342.065       17.214      858.989
10/11/2013  17:41:00      -19.488        2.361        2.967       20.892       23.210       22.695      436.490      538.683      515.076        0.094        0.075       19.630        9.210        0.220      341.961       17.038      859.010
10/11/2013  17:42:00      -25.321      -36.603       -0.191       32.792       41.372       23.159     1075.309     1711.660      536.335        0.265        0.166       44.508       15.892        0.127      342.334       17.670      859.021
10/11/2013  17:43:00      -32.346      -54.400        4.240       75.246       54.990       32.958     5661.900     3023.905     1086.231        0.690        0.489       63.290       25.427        0.161      342.434       17.841      859.021
10/11/2013  17:44:00        2.596      -41.384       12.197       40.559       47.646       26.059     1645.021     2270.111      679.094        0.323        0.230       41.465       21.776        0.276      342.358       17.712      859.015
10/11/2013  17:45:00      -63.121      -62.687       -2.448       65.390       46.044       25.036     4275.899     2120.028      626.780        0.747        0.351       88.961       20.599        0.054      342.583       18.094      859.021
10/11/2013  17:46:00      -92.708      -96.540       -1.759       63.840       52.024       28.923     4075.538     2706.445      836.517        1.277        0.381      133.846       24.244        0.033      342.450       17.867      859.022
10/11/2013  17:47:00     -122.800     -129.557       -2.280       51.666       63.771       31.339     2669.337     4066.762      982.112        1.979        0.386      178.507       33.044        0.034      342.424       17.822      859.020
10/11/2013  17:48:00      -54.079      -49.730        9.250       57.098       60.783       25.889     3260.231     3694.629      670.247        0.655        0.381       73.468       28.942        0.155      342.438       17.848      859.030
10/11/2013  17:49:00      -45.715      -36.499        6.752       51.348       36.362       22.288     2636.632     1322.206      496.748        0.396        0.223       58.498       26.181        0.200      342.418       17.813      859.034
10/11/2013  17:50:00      -52.996      -88.023       -8.107       22.010       35.461       14.905      484.433     1257.488      222.155        0.629        0.098      102.745        9.124        0.008      342.470       17.901      859.039
10/11/2013  17:51:00      -53.161      -38.391        6.799       60.592       34.764       21.223     3671.362     1208.543      450.405        0.484        0.267       65.574       20.454        0.097      342.529       18.003      859.030
10/11/2013  17:52:00     -125.944      -48.469       -1.442       37.835       38.182       25.767     1431.469     1457.837      663.930        1.088        0.178      134.949       19.702        0.021      342.454       17.877      859.030
10/11/2013  17:53:00     -162.704      -63.499        1.009       37.848       45.163       27.694     1432.457     2039.727      766.971        1.737        0.212      174.656       23.478        0.018      342.425       17.825      859.033
10/11/2013  17:54:00     -181.557      -45.514      -10.481       42.613       42.975       28.149     1815.896     1846.841      792.347        1.980        0.223      187.175       17.212        0.008      342.423       17.820      859.054
10/11/2013  17:55:00     -109.375      -46.992        3.778       76.926       40.615       27.457     5917.673     1649.566      753.866        1.125        0.416      119.043       34.871        0.086      342.363       17.719      859.064
10/11/2013  17:56:00      -69.390      -57.132        7.447       50.825       46.207       26.207     2583.159     2135.108      686.815        0.677        0.270       89.883       30.458        0.115      342.373       17.737      859.072
10/11/2013  17:57:00      -73.187      -74.144       11.167       55.578       37.466       25.771     3088.958     1403.688      664.159        0.807        0.258      104.181       30.677        0.087      342.374       17.738      859.067
10/11/2013  17:58:00      -63.480      -67.575        3.664       38.472       36.616       23.886     1480.133     1340.738      570.552        0.600        0.170       92.715       19.194        0.043      342.369       17.729      859.063
10/11/2013  17:59:00      -55.487      -51.963        5.884       56.103       31.076       26.852     3147.552      965.707      721.017        0.532        0.242       76.020       33.822        0.198      342.375       17.741      859.071
10/11/2013  18:00:00      -19.863        1.892        7.436       42.948       27.552       24.485     1844.496      759.108      599.517        0.183        0.160       19.952       25.532        1.637      342.246       17.521      859.067
10/11/2013  18:01:00      -48.669      -25.865       -0.199       34.409       24.032       23.164     1183.971      577.539      536.569        0.267        0.115       55.114       18.179        0.109      342.344       17.689      859.061
10/11/2013  18:02:00       -9.764      -31.116       -1.655       43.356       43.354       22.390     1879.718     1879.543      501.333        0.266        0.213       32.612       17.191        0.278      342.284       17.586      859.064
10/11/2013  18:03:00      -16.133      -24.024        0.644       31.437       20.226       18.177      988.292      409.107      330.394        0.128        0.086       28.939       20.756        0.514      342.400       17.783      859.071
10/11/2013  18:04:00      -74.804      -64.697       -5.089       47.244       34.159       21.297     2232.012     1166.813      453.547        0.683        0.193       98.900       27.708        0.078      342.370       17.732      859.057
10/11/2013  18:05:00      -80.558      -52.415       -1.380       21.560       27.531       14.086      464.830      757.966      198.401        0.533        0.071       96.109       13.405        0.019      342.406       17.791      859.058
10/11/2013  18:06:00      -93.386      -38.868       -9.679       31.052       23.041       14.585      964.252      530.901      212.723        0.602        0.085      101.152       15.405        0.023      342.400       17.781      859.061
10/11/2013  18:07:00     -134.985        4.313       -1.126       58.126       40.263       30.721     3378.665     1621.141      943.763        1.209        0.297      135.054       27.724        0.042      342.323       17.651      859.078
10/11/2013  18:08:00     -130.737      -12.111       -3.653       50.461       36.848       26.983     2546.322     1357.760      728.101        1.094        0.232      131.297       26.860        0.042      342.328       17.660      859.084
10/11/2013  18:09:00     -100.169       -6.866       -7.721       41.097       36.066       21.561     1688.931     1300.741      464.878        0.680        0.173      100.404       19.327        0.037      342.237       17.505      859.085
10/11/2013  18:10:00      -96.012      -37.576       -9.138       20.474       18.722       12.433      419.183      350.498      154.588        0.582        0.046      103.103       10.207        0.010      342.205       17.452      859.079
10/11/2013  18:11:00       -3.604      -45.494      -12.489       50.364       28.881       17.738     2536.497      834.131      314.649        0.296        0.184       45.636       24.324        0.284      341.951       17.022      859.076
10/11/2013  18:12:00       19.006      -39.379       13.459       31.556       22.335       20.947      995.806      498.855      438.763        0.201        0.097       43.725       15.609        0.127      342.289       17.595      859.079
10/11/2013  18:13:00      -86.316      -53.178       -5.815       28.085       29.285       17.333      788.750      857.639      300.426        0.613        0.097      101.382       16.186        0.025      342.379       17.746      859.070
10/11/2013  18:14:00      -73.173       -3.392      -12.636       35.061        9.830       13.112     1229.278       96.623      171.921        0.351        0.075       73.251        1.752        0.001      342.372       17.738      859.085
10/11/2013  18:15:00       20.640        0.837       -0.421       17.039       12.629       17.818      290.321      159.490      317.475        0.060        0.038       20.657       11.645        0.318      342.148       17.354      859.095
10/11/2013  18:16:00       -7.735      -25.537       -0.243       44.656       19.524       18.530     1994.187      381.170      343.374        0.171        0.136       26.682       18.271        0.469      341.809       16.781      859.096
10/11/2013  18:17:00     -103.307      -38.352       -5.401       24.834       16.987       14.506      616.704      288.572      210.421        0.664        0.056      110.196       12.083        0.012      342.340       17.681      859.099
10/11/2013  18:18:00     -121.276      -22.232       -2.190       35.448       39.828       19.803     1256.553     1586.287      392.172        0.922        0.162      123.297       20.257        0.027      342.325       17.657      859.119
10/11/2013  18:19:00     -118.620       37.121      -13.551       45.185       37.625       26.291     2041.697     1415.670      691.210        0.989        0.207      124.293       20.378        0.027      342.024       17.143      859.133
10/11/2013  18:20:00     -117.806      -54.691        2.178       51.110       49.193       34.365     2612.184     2419.969     1180.944        1.154        0.311      129.882       29.008        0.050      341.789       16.746      859.128
10/11/2013  18:21:00     -158.026      -37.051      -24.759       38.959       40.665       18.561     1517.803     1653.616      344.523        1.524        0.176      162.312       14.570        0.008      341.759       16.693      859.143
10/11/2013  18:22:00     -162.340      -42.196      -20.457       33.268       37.211       22.943     1106.757     1384.656      526.382        1.578        0.151      167.734       13.993        0.007      341.645       16.501      859.153
10/11/2013  18:23:00     -145.945      -33.483      -17.411       35.508       45.693       31.146     1260.831     2087.839      970.072        1.352        0.216      149.737       17.788        0.014      341.748       16.676      859.160
10/11/2013  18:24:00     -126.720      -37.115      -16.820       49.704       47.866       30.410     2470.463     2291.187      924.756        1.170        0.284      132.044       29.559        0.050      341.751       16.682      859.172
10/11/2013  18:25:00      -96.632      -33.069      -10.603       29.302       23.349       19.672      858.606      545.169      386.972        0.617        0.090      102.134       17.866        0.031      341.789       16.745      859.187
10/11/2013  18:26:00     -111.995      -26.125      -20.432       24.891       22.219       18.972      619.581      493.700      359.935        0.756        0.074      115.002       14.959        0.017      341.846       16.842      859.192
10/11/2013  18:27:00     -137.125      -11.091      -10.312       34.939       35.442       19.109     1220.742     1256.160      365.137        1.094        0.142      137.573       16.927        0.015      341.930       16.985      859.205
10/11/2013  18:28:00     -113.520        7.402      -12.719       45.519       32.973       21.382     2071.947     1087.201      457.196        0.836        0.181      113.761       14.179        0.016      341.983       17.074      859.209
10/11/2013  18:29:00      -88.041      -36.125       -6.256       57.071       42.531       24.899     3257.043     1808.894      619.974        0.739        0.284       95.165       28.509        0.090      341.948       17.015      859.214
10/11/2013  18:30:00      -14.629       78.999        3.916       44.761       56.325       34.845     2003.536     3172.539     1214.200        0.643        0.320       80.342       34.116        0.180      341.971       17.055      859.229
10/11/2013  18:31:00      -30.697      129.536      -15.928       67.580       63.146       26.057     4567.068     3987.415      678.969        1.360        0.462      133.123       28.464        0.046      342.037       17.165      859.244
10/11/2013  18:32:00      -17.689      124.773      -12.278       35.968       38.658       27.535     1293.693     1494.468      758.196        0.979        0.177      126.021       19.292        0.023      342.040       17.171      859.238
10/11/2013  18:33:00      -13.334      193.388      -15.974       52.095       73.979       43.764     2713.914     5472.876     1915.318        2.397        0.505      193.847       47.805        0.061      342.057       17.197      859.223
10/11/2013  18:34:00      -50.706      212.552      -14.141       63.780       77.971       46.168     4067.870     6079.488     2131.484        3.011        0.614      218.516       44.630        0.042      342.026       17.144      859.241
10/11/2013  18:35:00      -47.535      216.418      -27.619       55.185       67.569       27.890     3045.409     4565.634      777.875        2.912        0.419      221.577       30.205        0.019      342.035       17.158      859.236
10/11/2013  18:36:00       23.894      142.273        7.244       81.191       85.710       51.850     6591.910     7346.178     2688.449        1.874        0.831      144.265       47.192        0.107      341.913       16.954      859.236
10/11/2013  18:37:00      -96.222      186.034      -20.590       67.082       81.692       41.748     4500.040     6673.613     1742.868        2.860        0.646      209.445       26.503        0.016      341.953       17.019      859.261
10/11/2013  18:38:00      -96.867      216.345      -14.893       59.573      137.461       46.895     3548.928    18895.555     2199.107        4.052        1.232      237.041       54.228        0.052      341.978       17.063      859.281
10/11/2013  18:39:00     -107.378       72.307      -13.503       52.636       83.894       36.338     2770.536     7038.273     1320.463        1.403        0.556      129.454       28.531        0.049      341.938       16.996      859.315
10/11/2013  18:40:00     -150.295       25.530      -15.771       77.353       77.885       45.628     5983.541     6066.140     2081.907        1.881        0.707      152.448       47.983        0.099      341.914       16.957      859.339
10/11/2013  18:41:00     -176.861       -4.698      -31.883       42.780       70.320       41.311     1830.119     4944.840     1706.569        2.040        0.424      176.924       19.263        0.012      341.872       16.886      859.367
10/11/2013  18:42:00      -98.873       29.934      -18.782       58.967       69.268       37.463     3477.112     4798.107     1403.476        1.035        0.484      103.305       26.523        0.066      341.819       16.796      859.391
10/11/2013  18:43:00     -150.952       83.247      -20.564       89.691       98.581       52.031     8044.509     9718.140     2707.181        2.530        1.023      172.385       62.722        0.132      341.868       16.877      859.398
10/11/2013  18:44:00     -197.590      263.007      -44.898       77.757      148.029       53.582     6046.133    21912.609     2871.005        7.052        1.541      328.960       45.189        0.019      341.903       16.935      859.428
10/11/2013  18:45:00     -142.962       13.746      -21.797       84.280       86.139       43.139     7103.088     7420.009     1860.992        1.874        0.819      143.622       19.806        0.019      341.871       16.883      859.440
10/11/2013  18:46:00     -230.397      -34.038      -22.231       95.594       79.556       41.843     9138.174     6329.142     1750.826        3.597        0.861      232.898       48.601        0.044      341.852       16.849      859.476
10/11/2013  18:47:00     -191.698      -74.420      -25.466       57.058       47.960       35.426     3255.642     2300.141     1254.995        2.487        0.341      205.636       15.908        0.006      341.905       16.940      859.509
10/11/2013  18:48:00      -75.804      -53.901       -6.040       62.642       65.497       42.593     3924.014     4289.887     1814.127        0.936        0.501       93.014       43.031        0.214      341.799       16.761      859.536
10/11/2013  18:49:00     -125.275       -7.908      -25.888       32.084       38.977       33.751     1029.384     1519.221     1139.121        1.006        0.184      125.524       26.751        0.045      341.840       16.831      859.556
10/11/2013  18:50:00     -166.476      -60.163      -19.859       36.127       39.416       33.813     1305.169     1553.655     1143.314        1.786        0.200      177.014       24.768        0.020      341.833       16.820      859.576
10/11/2013  18:51:00      -96.478       18.122       -7.096       41.611       39.408       29.543     1731.460     1553.020      872.789        0.692        0.208       98.166       20.487        0.044      341.823       16.804      859.607
10/11/2013  18:52:00     -101.645      -14.118      -16.713       59.159       52.500       28.241     3499.846     2756.218      797.530        0.893        0.353      102.620        9.499        0.009      341.805       16.773      859.613
10/11/2013  18:53:00      -77.483       55.902       -3.569       51.661       38.765       31.026     2668.811     1502.713      962.597        0.714        0.257       95.544       26.693        0.078      341.778       16.728      859.639
10/11/2013  18:54:00     -138.622       65.158      -20.631       71.706       49.739       38.061     5141.698     2473.926     1448.619        1.647        0.453      153.172       37.185        0.059      341.816       16.790      859.644
10/11/2013  18:55:00      -52.254       44.850       -2.778       58.413       44.956       21.551     3412.053     2021.067      464.446        0.532        0.295       68.862       18.136        0.069      341.757       16.691      859.643
10/11/2013  18:56:00      -58.333       80.081      -17.476       53.323       61.775       36.397     2843.378     3816.189     1324.733        0.905        0.399       99.074       27.227        0.076      341.757       16.692      859.630
10/11/2013  18:57:00      -98.027       25.455      -13.747       34.845       41.642       19.406     1214.148     1734.097      376.579        0.688        0.166      101.278       16.320        0.026      341.713       16.617      859.647
10/11/2013  18:58:00      -68.098       -2.034       -4.578       36.677       44.644       17.549     1345.236     1993.122      307.970        0.415        0.182       68.128       14.513        0.045      341.667       16.540      859.663
10/11/2013  18:59:00      -64.132       10.559        0.782       66.432       35.460       29.056     4413.210     1257.440      844.235        0.537        0.326       64.996       32.230        0.246      341.677       16.556      859.672
10/11/2013  19:00:00     -115.278      -29.583      -16.894       38.366       43.040       25.567     1471.969     1852.454      653.650        0.921        0.199      119.014       20.068        0.028      341.635       16.484      859.674
10/11/2013  19:01:00      -67.031        3.708       -1.554       40.135       47.767       26.633     1610.857     2281.668      709.303        0.455        0.230       67.133       22.164        0.109      341.575       16.383      859.670
10/11/2013  19:02:00     -110.040       83.537       -9.992       74.173       57.153       37.579     5501.685     3266.507     1412.179        1.468        0.509      138.157       17.988        0.017      341.613       16.447      859.677
10/11/2013  19:03:00      -99.122       11.440       -3.508       73.757       60.709       30.667     5440.159     3685.635      940.491        1.002        0.503       99.780       29.991        0.090      341.533       16.310      859.672
10/11/2013  19:04:00      -48.095       30.994        3.797       48.094       34.224       28.443     2312.987     1171.266      809.002        0.379        0.215       57.217       26.734        0.218      341.557       16.353      859.677
10/11/2013  19:05:00      -88.708       23.126      -25.639       41.170       35.183       26.673     1695.003     1237.863      711.459        0.635        0.182       91.673       21.894        0.057      341.597       16.423      859.687
10/11/2013  19:06:00      -84.220       41.938       -7.612       42.571       91.337       29.519     1812.274     8342.429      871.364        0.997        0.551       94.084       25.023        0.071      341.644       16.498      859.686
10/11/2013  19:07:00     -105.002      -13.390       -5.540       39.139       51.658       24.689     1531.873     2668.516      609.547        0.802        0.240      105.853       21.496        0.041      341.607       16.437      859.701
10/11/2013  19:08:00      -72.133      -25.520       -4.235       47.334       40.926       29.562     2240.507     1674.934      873.920        0.533        0.239       76.515       26.757        0.122      341.553       16.346      859.700
10/11/2013  19:09:00      -97.960      -20.982       -7.514       40.676       41.055       26.081     1654.535     1685.525      680.213        0.706        0.201      100.182       17.801        0.032      341.548       16.337      859.713
10/11/2013  19:10:00     -178.823      -42.831      -21.917       35.140       55.609       19.244     1234.821     3092.349      370.350        1.949        0.235      183.881       13.353        0.005      341.515       16.280      859.721
10/11/2013  19:11:00     -185.176       27.084      -25.485       35.504       31.655       19.511     1260.558     1002.028      380.698        1.916        0.132      187.146       17.618        0.009      341.501       16.255      859.741
10/11/2013  19:12:00     -116.531      -10.772       -6.738       50.165       40.804       25.353     2516.511     1664.956      642.778        0.928        0.241      117.028       20.431        0.030      341.480       16.222      859.741
10/11/2013  19:13:00     -139.617      -13.307      -13.043       30.783       23.703       19.860      947.582      561.811      394.421        1.087        0.095      140.250       12.407        0.008      341.511       16.274      859.755
10/11/2013  19:14:00     -129.175       -8.676      -12.264       31.420       43.950       24.850      987.204     1931.632      617.508        1.022        0.177      129.466       18.080        0.020      341.488       16.235      859.765
10/11/2013  19:15:00     -129.647       42.577      -12.952       34.077       31.272       18.113     1161.220      977.914      328.086        1.063        0.123      136.459       10.795        0.006      341.494       16.244      859.770
10/11/2013  19:16:00      -81.701      -11.549      -11.152       54.218       24.050       19.779     2939.602      578.416      391.222        0.542        0.195       82.513       23.753        0.083      341.500       16.254      859.773
10/11/2013  19:17:00      -57.792        5.382       -5.282       13.805       29.008       13.840      190.575      841.481      191.536        0.231        0.061       58.042       10.675        0.034      341.545       16.331      859.773
10/11/2013  19:18:00      -69.615        6.552      -10.003       27.197       16.521       13.205      739.662      272.947      174.376        0.309        0.059       69.922       11.809        0.029      341.524       16.296      859.798
10/11/2013  19:19:00     -107.352      -31.352      -10.206       32.940       24.917       18.933     1085.027      620.847      358.462        0.734        0.103      111.837       16.026        0.021      341.492       16.241      859.809
10/11/2013  19:20:00      -77.362      -17.804       -2.731       26.487       19.368       13.024      701.545      375.111      169.617        0.378        0.062       79.384       12.295        0.024      341.478       16.216      859.817
10/11/2013  19:21:00      -67.546      -19.012       -6.872       19.136       27.931       15.019      366.179      780.116      225.572        0.317        0.069       70.171       12.381        0.031      341.453       16.176      859.820
10/11/2013  19:22:00      -89.824       52.492      -19.545       25.837       39.033       17.251      667.552     1523.607      297.583        0.685        0.124      104.038       20.323        0.038      341.464       16.195      859.812
10/11/2013  19:23:00      -47.301       34.751       -3.150       18.912       16.863       14.047      357.665      284.353      197.321        0.215        0.042       58.694        9.121        0.024      341.430       16.136      859.813
10/11/2013  19:24:00     -179.187       35.453      -25.768       84.930       40.091       23.257     7213.095     1607.268      540.899        2.169        0.468      182.660       25.237        0.019      341.465       16.197      859.802
10/11/2013  19:25:00     -146.007       27.296      -22.040       77.979       65.994       39.241     6080.742     4355.144     1539.867        1.726        0.599      148.536       38.842        0.068      341.440       16.152      859.786
10/11/2013  19:26:00     -136.362       30.458      -17.245       40.347       49.591       21.911     1627.873     2459.250      480.104        1.219        0.228      139.722       20.462        0.021      341.434       16.145      859.788
10/11/2013  19:27:00     -107.542       -9.244      -11.954       33.938       45.153       22.889     1151.765     2038.758      523.917        0.775        0.186      107.938       16.396        0.023      341.356       16.011      859.778
10/11/2013  19:28:00     -120.560      -49.916       -8.366       34.863       38.417       23.439     1215.402     1475.854      549.402        1.017        0.162      130.485       18.897        0.021      341.347       15.998      859.788
10/11/2013  19:29:00     -145.768      -34.139       -0.977       47.968       54.680       30.948     2300.944     2989.939      957.805        1.433        0.312      149.712       25.326        0.029      341.342       15.988      859.792
10/11/2013  19:30:00     -121.764      -24.381       -5.477       40.443       47.119       24.303     1635.628     2220.233      590.618        0.995        0.222      124.181       15.788        0.016      341.363       16.023      859.806
10/11/2013  19:31:00      -75.303       52.865        2.467       45.042       44.313       31.866     2028.810     1963.678     1015.450        0.674        0.250       92.007       19.592        0.045      341.331       15.970      859.817
10/11/2013  19:32:00     -110.928      115.016      -25.199       32.893       40.886       29.517     1081.935     1671.646      871.231        1.490        0.181      159.793       18.321        0.013      341.356       16.013      859.830
10/11/2013  19:33:00      -57.942       73.784      -10.693       45.981       43.281       23.386     2114.296     1873.222      546.893        0.672        0.227       93.815       26.516        0.080      341.359       16.019      859.828
10/11/2013  19:34:00      -94.818       98.055      -26.623       32.198       39.605       20.160     1036.697     1568.556      406.434        1.116        0.151      136.401       17.556        0.017      341.314       15.941      859.819
10/11/2013  19:35:00      -25.569       78.736       -3.650       30.327       29.191       15.588      919.713      852.102      242.971        0.444        0.101       82.783       11.251        0.018      341.374       16.040      859.823
10/11/2013  19:36:00      -39.108       73.776       -7.306       28.607       32.711       20.585      818.375     1069.998      423.725        0.467        0.116       83.501       18.193        0.047      341.357       16.014      859.807
10/11/2013  19:37:00      -18.215       75.073       -1.876       21.036       33.387       20.689      442.507     1114.710      428.023        0.398        0.099       77.251       18.966        0.060      341.345       15.993      859.791
10/11/2013  19:38:00      -61.619       75.213      -14.467       22.433       25.427       15.889      503.246      646.553      252.469        0.553        0.070       97.232        9.929        0.010      341.383       16.057      859.782
10/11/2013  19:39:00       -8.789       55.502        2.849       28.051       29.870       19.460      786.867      892.187      378.691        0.261        0.103       56.193       21.551        0.147      341.346       15.996      859.770
10/11/2013  19:40:00       33.331      114.257      -10.339       32.624       33.408       29.615     1064.315     1116.067      877.072        0.866        0.153      119.020       25.084        0.044      341.315       15.943      859.745
10/11/2013  19:41:00        4.048       38.374        6.091       29.181       38.901       20.678      851.504     1513.280      427.587        0.216        0.140       38.587       20.396        0.279      341.241       15.817      859.737
10/11/2013  19:42:00      -59.030       35.969       -5.132       40.565       34.043       25.703     1645.522     1158.925      660.646        0.413        0.173       69.125       24.195        0.123      341.279       15.881      859.735
10/11/2013  19:43:00      -65.316       75.556       -7.541       32.546       30.688       23.003     1059.221      941.783      529.131        0.628        0.127       99.875       17.403        0.030      341.288       15.898      859.739
10/11/2013  19:44:00      -42.021       76.993      -13.737       52.789       39.985       34.070     2786.722     1598.799     1160.768        0.671        0.277       87.714       32.615        0.138      341.359       16.017      859.731
10/11/2013  19:45:00      -77.157       99.308       -3.278       43.047       67.744       38.663     1853.017     4589.249     1494.839        1.188        0.397      125.759       35.666        0.080      341.390       16.069      859.720
10/11/2013  19:46:00      -57.629       61.889       -4.982       35.958       32.888       23.384     1292.980     1081.642      546.807        0.505        0.146       84.565       21.827        0.067      341.372       16.040      859.707
10/11/2013  19:47:00     -134.726       22.800      -26.135       97.320       48.435       28.331     9471.274     2345.906      802.646        1.598        0.631      136.641       33.274        0.059      341.373       16.038      859.720
10/11/2013  19:48:00     -175.729       44.951      -23.301       56.032       40.570       27.927     3139.529     1645.934      779.905        1.950        0.278      181.387       26.499        0.021      341.297       15.910      859.706
10/11/2013  19:49:00      -71.918       90.700      -12.366       30.125       56.724       24.323      907.534     3217.579      591.624        0.913        0.236      115.753       18.803        0.026      341.250       15.834      859.705
10/11/2013  19:50:00      -68.853       70.731       -3.308       62.392       54.209       33.742     3892.743     2938.659     1138.504        0.886        0.398       98.710       36.619        0.138      341.249       15.830      859.718
10/11/2013  19:51:00      -86.700      117.996      -20.443       41.586       50.779       29.025     1729.360     2578.472      842.446        1.350        0.258      146.424       28.279        0.037      341.289       15.897      859.718
10/11/2013  19:52:00      -71.453      121.452       -5.122       51.891       53.569       32.665     2692.657     2869.660     1066.991        1.325        0.331      140.912       25.118        0.032      341.305       15.926      859.715
10/11/2013  19:53:00     -117.212      118.655      -11.103       53.277       55.108       37.233     2838.397     3036.922     1386.306        1.760        0.363      166.786       32.229        0.037      341.274       15.872      859.714
10/11/2013  19:54:00     -121.713      209.873      -31.205       62.558       58.895       39.869     3913.459     3468.599     1589.542        3.440        0.449      242.612       31.967        0.017      341.299       15.913      859.704
10/11/2013  19:55:00     -120.495      127.035      -19.558       71.302       73.473       39.029     5083.992     5398.286     1523.275        2.152        0.600      175.092       41.324        0.056      341.286       15.892      859.684
10/11/2013  19:56:00       -8.065      109.897      -13.698       38.985       34.276       22.265     1519.846     1174.815      495.721        0.776        0.160      110.193       20.136        0.033      341.324       15.958      859.661
10/11/2013  19:57:00       -7.557      175.851      -21.075       26.199       38.822       17.029      686.396     1507.136      289.974        1.695        0.124      176.013        8.900        0.003      341.247       15.827      859.643
10/11/2013  19:58:00      -18.234      186.898      -28.374       37.421       35.248       21.077     1400.296     1242.450      444.230        1.958        0.154      187.786       15.792        0.007      341.180       15.713      859.635
10/11/2013  19:59:00      -29.029      135.842      -14.049       55.649       47.805       31.829     3096.800     2285.331     1013.075        1.294        0.320      138.909       25.966        0.035      341.207       15.759      859.622
10/11/2013  20:00:00      -47.824      152.214      -17.936       48.283       35.633       24.763     2331.201     1269.684      613.197        1.500        0.211      159.550       23.410        0.022      341.240       15.817      859.622
10/11/2013  20:01:00      -99.000      136.961      -27.951       37.493       41.083       25.804     1405.762     1687.814      665.854        1.655        0.188      168.995       21.084        0.016      341.171       15.698      859.627
10/11/2013  20:02:00      -96.606      115.383      -21.946       28.248       52.740       30.048      797.946     2781.486      902.911        1.380        0.224      150.486       28.138        0.035      341.155       15.673      859.640
10/11/2013  20:03:00      -74.012      118.146      -13.566       45.277       53.173       31.258     2050.026     2827.388      977.064        1.274        0.293      139.414       33.636        0.058      341.135       15.637      859.653
10/11/2013  20:04:00      -69.411      192.846      -24.752       69.881       60.192       32.980     4883.291     3623.024     1087.690        2.611        0.480      204.957       35.142        0.029      341.165       15.687      859.644
10/11/2013  20:05:00      -57.088      197.366      -24.201       40.373       41.147       25.914     1629.999     1693.053      671.558        2.340        0.200      205.457       20.506        0.010      341.160       15.677      859.626
10/11/2013  20:06:00      -84.811      167.126      -29.960       68.884       51.575       30.904     4744.946     2660.000      955.033        2.219        0.418      187.414       21.864        0.014      341.138       15.641      859.632
10/11/2013  20:07:00      -54.361      199.898      -16.994       52.000       53.364       29.084     2704.016     2847.715      845.891        2.480        0.320      207.158       24.800        0.014      341.158       15.674      859.639
10/11/2013  20:08:00     -104.060      143.131      -22.993       50.848       63.706       36.826     2585.497     4058.428     1356.175        1.992        0.400      176.960       36.211        0.042      341.108       15.590      859.643
10/11/2013  20:09:00      -16.479      167.215       -7.685       64.656      111.282       48.332     4180.406    12383.767     2335.967        2.359        0.945      168.025       55.943        0.111      341.077       15.538      859.644
10/11/2013  20:10:00      -28.399      190.602       -7.030       52.962       61.013       41.378     2805.000     3722.565     1712.099        2.271        0.412      192.706       24.403        0.016      341.081       15.544      859.654
10/11/2013  20:11:00     -102.236      125.706      -12.515       59.889       55.120       37.163     3586.702     3038.218     1381.052        1.721        0.400      162.031       32.880        0.041      341.103       15.582      859.661
10/11/2013  20:12:00      -23.236       50.837        4.643       26.489       66.212       21.923      701.654     4383.998      480.598        0.435        0.278       55.896       24.839        0.197      341.126       15.623      859.673
10/11/2013  20:13:00      -72.601      165.208      -17.948       71.984       67.854       38.098     5181.722     4604.178     1451.441        2.206        0.562      180.457       30.081        0.028      341.137       15.640      859.705
10/11/2013  20:14:00     -191.909       91.710      -17.322       76.050       70.660       58.273     5783.550     4992.904     3395.766        2.985        0.709      212.697       47.115        0.049      341.160       15.677      859.707
10/11/2013  20:15:00     -155.086       -2.236      -31.961       50.009       79.008       42.299     2500.921     6242.199     1789.220        1.780        0.527      155.102       27.645        0.032      341.144       15.653      859.713
10/11/2013  20:16:00     -134.160       38.980       -3.267       76.501      145.787       48.514     5852.397    21253.949     2353.601        2.449        1.473      139.709       50.234        0.129      341.075       15.534      859.743
10/11/2013  20:17:00     -110.037      243.205      -26.668       72.802      105.385       47.704     5300.150    11105.954     2275.652        4.532        0.934      266.940       35.638        0.018      341.120       15.608      859.759
10/11/2013  20:18:00     -142.532      106.263      -19.994       84.458       55.870       44.421     7133.174     3121.434     1973.237        2.211        0.611      177.784       27.217        0.023      341.171       15.697      859.781
10/11/2013  20:19:00     -136.054       58.927      -20.145      108.966       74.035       42.259    11873.630     5481.150     1785.802        2.076        0.957      148.267       33.836        0.052      341.158       15.676      859.798
10/11/2013  20:20:00      -86.475      162.659        1.790       75.901      109.317       53.398     5760.984    11950.257     2851.398        2.725        1.028      184.217       47.938        0.068      341.163       15.684      859.792
10/11/2013  20:21:00     -124.573      123.717      -18.864       59.467       82.631       37.751     3536.307     6827.937     1425.154        2.148        0.589      175.568       27.985        0.025      341.152       15.666      859.817
10/11/2013  20:22:00      -45.926      153.649       -5.497       81.041      110.008       35.037     6567.679    12101.698     1227.608        2.282        0.995      160.366       49.391        0.095      341.117       15.607      859.808
10/11/2013  20:23:00     -139.951      203.424      -30.291       98.738       72.824       46.197     9749.110     5303.293     2134.136        3.953        0.859      246.917       41.495        0.028      341.154       15.666      859.823
10/11/2013  20:24:00     -114.299       82.040      -15.136       67.700       91.948       39.562     4583.231     8454.435     1565.155        1.731        0.730      140.694       29.094        0.043      341.164       15.686      859.818
10/11/2013  20:25:00      -38.084      112.490      -12.852       71.535       58.661       42.556     5117.264     3441.082     1811.022        1.232        0.518      118.761       41.066        0.120      341.153       15.669      859.795
10/11/2013  20:26:00     -103.500      119.818      -23.463       55.470       79.976       32.101     3076.877     6396.118     1030.476        1.806        0.525      158.331       27.956        0.031      341.196       15.740      859.816
10/11/2013  20:27:00     -105.301      142.368      -17.493       76.336       66.855       44.234     5827.235     4469.631     1956.645        2.196        0.613      177.079       36.584        0.043      341.124       15.619      859.822
10/11/2013  20:28:00     -166.695        3.227      -13.602      103.618       75.330       36.452    10736.686     5674.632     1328.721        2.286        0.887      166.727       36.801        0.049      341.106       15.586      859.803
10/11/2013  20:29:00      -60.938       74.484        7.757      103.314       62.581       46.076    10673.726     3916.442     2122.977        1.301        0.836       96.236       50.741        0.278      341.001       15.410      859.820
10/11/2013  20:30:00      -92.238       76.785      -12.967       94.201       63.360       41.518     8873.796     4014.483     1723.731        1.459        0.731      120.016       52.319        0.190      341.030       15.459      859.833
10/11/2013  20:31:00     -171.122      158.055      -31.449       85.609       95.065       50.299     7328.959     9037.357     2530.026        3.707        0.945      232.946       48.300        0.043      341.031       15.460      859.841
10/11/2013  20:32:00     -217.164      111.237      -39.659       99.065       79.911       50.234     9813.918     6385.697     2523.487        3.991        0.936      243.996       52.098        0.046      341.019       15.438      859.840
10/11/2013  20:33:00     -109.533      137.338      -18.752       77.294       79.804       43.476     5974.366     6368.729     1890.197        2.272        0.712      175.668       39.478        0.051      340.993       15.395      859.848
10/11/2013  20:34:00      -73.816      106.780      -11.287       64.851       57.620       42.598     4205.644     3320.075     1814.610        1.316        0.467      129.811       42.368        0.107      341.003       15.413      859.866
10/11/2013  20:35:00     -129.357       77.379      -17.682       44.480       40.771       25.498     1978.486     1662.261      650.153        1.366        0.215      150.734       17.857        0.014      341.027       15.456      859.882
10/11/2013  20:36:00     -118.065       91.003      -20.998       84.633       50.181       34.346     7162.716     2518.159     1179.651        1.676        0.543      149.067       35.872        0.058      340.986       15.384      859.866
10/11/2013  20:37:00      -89.086       99.961      -15.300       38.479       62.627       27.095     1480.647     3922.117      734.119        1.215        0.307      133.898       22.199        0.027      340.993       15.396      859.860
10/11/2013  20:38:00      -60.188       87.084      -16.227       44.087       74.526       27.141     1943.692     5554.196      736.633        0.985        0.412      105.859       30.063        0.081      341.015       15.435      859.853
10/11/2013  20:39:00      -83.254       54.494       -8.769       41.244       44.043       22.928     1701.032     1939.807      525.680        0.707        0.208       99.503       25.628        0.066      341.003       15.416      859.863
10/11/2013  20:40:00      -88.177      107.982      -19.842       49.628       46.767       28.262     2462.983     2187.113      798.761        1.264        0.272      139.411       30.997        0.049      341.003       15.414      859.888
10/11/2013  20:41:00     -125.298      195.091      -27.099       49.888       64.455       44.085     2488.769     4154.481     1943.482        3.154        0.429      231.862       37.661        0.026      340.992       15.393      859.910
10/11/2013  20:42:00     -112.120      131.670      -23.036       50.980       45.933       31.021     2598.937     2109.854      962.298        1.805        0.284      172.939       24.839        0.021      340.980       15.375      859.923
10/11/2013  20:43:00      -60.990       82.610       -8.995       56.538       46.607       36.374     3196.580     2172.252     1323.050        0.866        0.335      102.685       29.430        0.082      341.011       15.428      859.916
10/11/2013  20:44:00     -104.153      196.695      -25.307       76.211       62.162       46.784     5808.102     3864.169     2188.770        3.102        0.593      222.568       45.233        0.041      340.939       15.303      859.925
10/11/2013  20:45:00     -201.370      222.056      -43.333      110.408      112.027       63.726    12189.907    12550.152     4061.063        6.026        1.440      299.765       76.566        0.065      340.956       15.330      859.934
10/11/2013  20:46:00     -224.845      153.774      -43.152       77.279       86.145       53.836     5972.049     7421.024     2898.366        4.617        0.815      272.400       36.596        0.018      340.965       15.346      859.938
10/11/2013  20:47:00     -161.843      120.072      -23.882       83.505       63.367       52.188     6973.021     4015.399     2723.582        2.744        0.686      201.520       42.426        0.044      340.959       15.337      859.950
10/11/2013  20:48:00     -147.642      188.882      -33.716       76.614       68.831       42.079     5869.642     4737.760     1770.683        3.549        0.619      239.738       35.950        0.022      340.985       15.381      859.951
10/11/2013  20:49:00     -246.446      -37.363      -19.124      100.986       78.722       53.955    10198.227     6197.102     2911.107        4.090        0.965      249.263       47.464        0.036      341.005       15.413      859.957
10/11/2013  20:50:00     -186.169      199.372      -49.624       58.110       66.773       41.372     3376.743     4458.617     1711.647        4.321        0.477      272.778       34.242        0.016      340.994       15.395      860.014
10/11/2013  20:51:00     -211.165      182.921      -44.635       96.110       73.161       47.249     9237.136     5352.561     2232.466        4.843        0.841      279.376       43.520        0.024      340.976       15.364      860.038
10/11/2013  20:52:00     -210.011      181.252      -39.050      107.717       72.834       46.812    11602.872     5304.827     2191.385        4.879        0.955      277.411       50.273        0.033      340.944       15.311      860.057
10/11/2013  20:53:00     -155.357       46.506       -7.837       86.239       85.392       42.909     7437.183     7291.869     1841.149        2.146        0.829      162.169       47.458        0.086      340.920       15.271      860.064
10/11/2013  20:54:00     -145.576       78.663      -18.142       76.513       86.996       40.242     5854.308     7568.250     1619.446        2.137        0.752      165.470       32.399        0.038      340.909       15.253      860.073
10/11/2013  20:55:00     -160.256       62.389      -19.239      117.176      124.645       62.393    13730.185    15536.289     3892.876        3.155        1.658      171.972       53.331        0.096      340.892       15.224      860.078
10/11/2013  20:56:00     -188.925      116.492      -32.585      110.920       99.718       51.697    12303.191     9943.689     2672.555        3.762        1.246      221.953       54.598        0.061      340.901       15.237      860.083
10/11/2013  20:57:00     -185.747        3.938      -22.446       83.429       99.885       54.349     6960.456     9976.970     2953.815        2.745        0.995      185.789       41.431        0.050      340.876       15.196      860.081
10/11/2013  20:58:00     -252.942      -69.234      -21.147      132.809      160.759       72.758    17638.271    25843.451     5293.751        5.899        2.439      262.246       58.860        0.050      340.828       15.116      860.083
10/11/2013  20:59:00     -226.143      -46.559       -5.942       89.576       89.796       56.599     8023.891     8063.296     3203.500        3.631        0.965      230.886       43.520        0.036      340.792       15.055      860.078
10/11/2013  21:00:00     -169.803       -6.244        6.095      109.734      104.567       54.321    12041.627    10934.186     2950.795        2.741        1.296      169.918       50.489        0.088      340.749       14.983      860.116
10/11/2013  21:01:00     -228.839      -80.174      -13.536      113.708      102.866       56.660    12929.607    10581.360     3210.359        4.284        1.336      242.477       53.960        0.050      340.803       15.073      860.123
10/11/2013  21:02:00     -281.096      -52.002      -29.136      120.792       90.359       49.764    14590.670     8164.728     2476.431        5.390        1.262      285.866       51.752        0.033      340.782       15.039      860.134
10/11/2013  21:03:00     -119.812       92.153      -31.043       54.062       70.636       41.303     2922.668     4989.381     1705.943        1.671        0.481      151.152       21.319        0.020      340.842       15.142      860.126
10/11/2013  21:04:00      -86.812        9.225      -17.250       80.558       89.488       47.717     6489.637     8008.092     2276.883        1.234        0.839       87.301       42.769        0.240      340.892       15.225      860.111
10/11/2013  21:05:00     -203.462      -42.764       -5.775       79.396       67.599       38.841     6303.795     4569.562     1508.611        2.782        0.619      207.908       23.885        0.013      340.836       15.128      860.099
10/11/2013  21:06:00      -66.853       45.888        1.857       41.876       57.578       28.309     1753.630     3315.203      801.423        0.622        0.294       81.087       25.626        0.100      340.777       15.032      860.112
10/11/2013  21:07:00      -87.738       38.099      -11.801       56.651       71.444       27.537     3209.350     5104.267      758.291        0.918        0.454       95.653       26.635        0.078      340.825       15.112      860.109
10/11/2013  21:08:00     -177.026       37.251      -35.342       97.063       64.173       33.215     9421.273     4118.201     1103.214        2.431        0.732      180.903       44.453        0.060      340.803       15.073      860.103
10/11/2013  21:09:00      -44.193       44.288       -2.511       29.496       35.665       22.070      870.011     1271.985      487.104        0.327        0.131       62.566       15.219        0.059      340.802       15.073      860.114
10/11/2013  21:10:00     -146.787      -35.816      -16.235       61.416       43.123       29.289     3771.880     1859.612      857.861        1.479        0.324      151.093       23.612        0.024      340.797       15.065      860.110
10/11/2013  21:11:00     -199.321       16.189      -14.264       61.436       45.691       33.126     3774.440     2087.704     1097.350        2.358        0.348      199.977       23.690        0.014      340.755       14.993      860.130
10/11/2013  21:12:00      -43.820      108.534       -6.206       34.226       46.971       31.807     1171.419     2206.308     1011.702        0.906        0.219      117.046       27.308        0.054      340.765       15.011      860.150
10/11/2013  21:13:00      -48.132       64.347       -6.850       30.765       26.198       20.072      946.462      686.330      402.896        0.427        0.102       80.357       11.212        0.019      340.761       15.006      860.166
10/11/2013  21:14:00      -81.270       49.962       -9.892       25.711       27.233       18.036      661.075      741.660      325.281        0.546        0.086       95.399       15.863        0.028      340.740       14.969      860.196
10/11/2013  21:15:00      -82.732       61.054      -15.521       43.091       44.803       25.028     1856.830     2007.308      626.418        0.765        0.225      102.821       26.077        0.064      340.699       14.901      860.202
10/11/2013  21:16:00      -79.526       92.233       -4.175       49.123       54.811       28.849     2413.022     3004.235      832.247        1.055        0.312      121.783       26.023        0.046      340.671       14.853      860.206
10/11/2013  21:17:00      -80.251       43.752       -5.894       41.095       39.782       32.013     1688.774     1582.611     1024.820        0.634        0.215       91.403       17.385        0.036      340.706       14.914      860.198
10/11/2013  21:18:00      -67.908       58.847      -10.136       29.737       38.352       22.079      884.318     1470.875      487.462        0.551        0.142       89.858       11.216        0.016      340.747       14.981      860.191
10/11/2013  21:19:00      -61.597       15.786       -6.538       26.367       27.747       23.418      695.239      769.902      548.417        0.305        0.101       63.587       16.181        0.065      340.639       14.801      860.200
10/11/2013  21:20:00      -74.122       -2.232      -11.301       33.008       23.597       17.279     1089.520      556.829      298.578        0.379        0.097       74.156       11.651        0.025      340.625       14.775      860.202
10/11/2013  21:21:00     -109.725      -20.038      -16.620       38.453       34.643       17.518     1478.659     1200.145      306.890        0.785        0.149      111.539        7.465        0.004      340.581       14.701      860.199
10/11/2013  21:22:00     -155.311       -4.727      -11.078       73.038       61.846       35.219     5334.593     3824.930     1240.375        1.733        0.520      155.383       36.538        0.055      340.711       14.919      860.203
10/11/2013  21:23:00     -160.614       15.646      -30.639       60.769       33.700       20.178     3692.887     1135.715      407.142        1.611        0.262      161.375       20.387        0.016      340.739       14.966      860.194
10/11/2013  21:24:00      -58.197        4.551        1.188       49.656       22.925       22.185     2465.759      525.548      492.159        0.345        0.174       58.375       27.926        0.229      340.683       14.873      860.197
10/11/2013  21:25:00      -98.195      -44.078       -4.557       43.627       38.418       24.537     1903.358     1475.904      602.057        0.779        0.199      107.634       15.762        0.021      340.690       14.884      860.205
10/11/2013  21:26:00     -128.458      -51.054       -0.606       51.199       37.326       24.772     2621.337     1393.250      613.657        1.187        0.231      138.232       14.887        0.012      340.623       14.771      860.210
10/11/2013  21:27:00     -146.588      -67.920       -7.843       34.720       36.207       19.041     1205.446     1310.954      362.571        1.452        0.144      161.559       12.909        0.006      340.652       14.820      860.199
10/11/2013  21:28:00     -144.925      -26.604       -0.370       84.193       37.919       25.371     7088.378     1437.816      643.669        1.544        0.458      147.347       34.661        0.055      340.582       14.701      860.206
10/11/2013  21:29:00     -117.775      -42.171       -1.405       52.805       51.012       28.883     2788.365     2602.249      834.211        1.094        0.311      125.097       26.017        0.043      340.556       14.659      860.209
10/11/2013  21:30:00     -151.421      -53.160       -9.800       47.292       27.163       22.938     2236.518      737.849      526.160        1.467        0.175      160.482       23.595        0.022      340.569       14.679      860.218
10/11/2013  21:31:00      -98.507      -31.299       -9.048       31.322       28.755       20.634      981.048      826.851      425.759        0.650        0.112      103.360       17.235        0.028      340.520       14.598      860.226
10/11/2013  21:32:00      -77.784      -19.286       -6.845       25.173       20.040       16.091      633.673      401.599      258.919        0.388        0.065       80.139       16.069        0.040      340.507       14.576      860.241
10/11/2013  21:33:00      -66.270       -7.828       -8.573       24.349       21.996       11.507      592.861      483.809      132.408        0.287        0.060       66.731        6.476        0.009      340.488       14.543      860.260
10/11/2013  21:34:00      -75.153       40.027      -18.079       14.633       20.905       15.311      214.129      437.018      234.427        0.423        0.044       85.147        7.602        0.008      340.505       14.571      860.277
10/11/2013  21:35:00      -77.429       -1.972       -6.079       25.094       31.543       13.722      629.733      994.958      188.285        0.392        0.091       77.455       13.862        0.032      340.417       14.423      860.296
10/11/2013  21:36:00      -57.109       -9.701       -9.676       23.598       18.665       10.221      556.866      348.399      104.479        0.223        0.050       57.927       10.471        0.033      340.351       14.313      860.317
10/11/2013  21:37:00      -30.886       -9.849       -7.284       14.340       11.255        8.086      205.622      126.685       65.380        0.075        0.020       32.419        7.059        0.047      340.331       14.277      860.338
10/11/2013  21:38:00      -25.322        8.092       -8.959       16.507        8.913       10.072      272.496       79.449      101.442        0.062        0.023       26.583        8.147        0.094      340.417       14.422      860.359
10/11/2013  21:39:00       18.347       22.026        2.899       14.922        8.686       16.002      222.670       75.438      256.055        0.069        0.028       28.666       12.319        0.185      340.475       14.520      860.381
10/11/2013  21:40:00      -17.596       28.112      -10.217       12.007       11.058        4.606      144.180      122.284       21.216        0.075        0.014       33.165        3.282        0.010      340.370       14.344      860.407
10/11/2013  21:41:00      -29.492       41.283       -7.419       19.009       31.857       10.364      361.347     1014.877      107.412        0.206        0.074       50.735        9.807        0.037      340.352       14.312      860.431
10/11/2013  21:42:00      -49.668       39.491      -16.527        9.798       17.448       10.431       96.009      304.449      108.805        0.240        0.025       63.455        5.501        0.008      340.428       14.440      860.453
10/11/2013  21:43:00      -33.962       -7.305       -1.961       11.964       25.962        9.037      143.143      674.036       81.664        0.105        0.045       34.738        5.143        0.022      340.234       14.114      860.465
10/11/2013  21:44:00      -10.966      -25.341       -3.663       24.820       11.796       13.244      616.010      139.145      175.399        0.085        0.047       27.612        9.010        0.106      340.181       14.024      860.466
10/11/2013  21:45:00      -54.411      -18.095       -3.144       26.820       11.581        8.161      719.309      134.125       66.602        0.211        0.046       57.341        9.918        0.030      340.202       14.060      860.475
10/11/2013  21:46:00      -93.495      -16.227      -12.015       12.537       13.373        8.741      157.173      178.844       76.408        0.478        0.021       94.893        3.116        0.001      340.179       14.021      860.498
10/11/2013  21:47:00     -133.488      -39.127      -11.518       52.990       23.461       24.116     2807.966      550.397      581.579        1.171        0.197      139.104       19.047        0.019      340.238       14.120      860.514
10/11/2013  21:48:00     -119.615      -19.893      -18.440       46.491       36.613       28.192     2161.440     1340.535      794.765        0.967        0.215      121.258       23.617        0.038      340.351       14.313      860.512
10/11/2013  21:49:00     -140.815       -7.151       -9.635       43.736       30.194       24.013     1912.820      911.697      576.620        1.169        0.170      140.996       11.938        0.007      340.271       14.176      860.511
10/11/2013  21:50:00      -62.777       -1.274       -2.481       34.904       32.961       18.998     1218.257     1086.414      360.925        0.331        0.133       62.789       12.566        0.040      340.220       14.089      860.512
10/11/2013  21:51:00      -48.397       56.624      -13.474       43.421       46.874       19.287     1885.385     2197.132      371.982        0.509        0.223       74.489       20.553        0.076      340.366       14.336      860.519
10/11/2013  21:52:00      -51.581       76.444      -15.047       55.448       38.470       22.349     3074.535     1479.970      499.480        0.689        0.253       92.218       21.062        0.052      340.308       14.238      860.525
10/11/2013  21:53:00      -59.932       30.450      -10.884       35.709       35.983       23.687     1275.146     1294.777      561.058        0.388        0.157       67.224       13.241        0.039      340.227       14.102      860.526
10/11/2013  21:54:00      -44.384       54.019       -6.083       24.236       29.225       20.718      587.395      854.093      429.234        0.340        0.094       69.915       20.548        0.086      340.139       13.954      860.514
10/11/2013  21:55:00      -46.802       14.399       -7.150       23.976       21.572        9.852      574.838      465.343       97.066        0.179        0.057       48.967        8.722        0.032      340.199       14.054      860.507
10/11/2013  21:56:00      -94.934      -41.588       -6.756       35.204       20.171       11.173     1239.317      406.861      124.841        0.628        0.089      103.644        9.911        0.009      340.066       13.831      860.525
10/11/2013  21:57:00     -100.803      -17.956      -11.793       25.257       14.328       11.225      637.939      205.287      125.994        0.580        0.048      102.390       12.872        0.016      340.160       13.989      860.554
10/11/2013  21:58:00      -35.311       -3.415        5.180       21.583       13.721       11.409      465.811      188.264      130.156        0.103        0.039       35.476       11.009        0.096      340.112       13.908      860.561
10/11/2013  21:59:00       -1.823      -37.756        0.961       20.259       15.790       11.943      410.418      249.333      142.646        0.112        0.040       37.800        8.809        0.054      340.355       14.318      860.571
10/11/2013  22:00:00       12.429      -32.639      -11.147       22.024       13.731       11.192      485.072      188.538      125.258        0.107        0.040       34.925       10.554        0.091      340.155       13.980      860.588
10/11/2013  22:01:00      -12.547      -11.238        3.099       18.013       11.360       10.648      324.476      129.055      113.378        0.043        0.028       16.843       10.749        0.407      340.127       13.931      860.614
10/11/2013  22:02:00      -21.192      -17.595        5.581       26.088       16.596       12.010      680.562      275.429      144.231        0.094        0.055       27.545       13.206        0.230      340.166       13.998      860.634
10/11/2013  22:03:00       -6.416      -19.624        4.640       22.326       14.173       10.335      498.466      200.876      106.813        0.063        0.040       20.646        6.108        0.088      340.144       13.961      860.639
10/11/2013  22:04:00      -48.992      -27.645        3.452       32.534       20.151       14.345     1058.466      406.081      205.783        0.242        0.084       56.254       16.788        0.089      340.082       13.857      860.650
10/11/2013  22:05:00      -56.330      -23.222       -3.012       26.099       27.549       11.996      681.148      758.958      143.897        0.265        0.079       60.929        7.613        0.016      339.899       13.549      860.661
10/11/2013  22:06:00      -15.977      -40.028        8.869       21.590       31.107       11.462      466.108      967.665      131.376        0.175        0.078       43.098        8.674        0.041      340.208       14.069      860.662
10/11/2013  22:07:00      -59.345       36.728       -7.432       49.421       22.911       17.555     2442.390      524.909      308.161        0.410        0.164       69.791       18.867        0.073      339.791       13.367      860.668
10/11/2013  22:08:00      -59.186       72.252      -13.447       23.660       25.394       15.337      559.815      644.853      235.238        0.517        0.072       93.399       15.672        0.028      339.989       13.700      860.662
10/11/2013  22:09:00      -51.526       52.771      -14.646       15.898       15.571        8.035      252.753      242.441       64.564        0.311        0.028       73.754        5.265        0.005      340.194       14.047      860.664
10/11/2013  22:10:00      -28.792        9.460       -5.530       15.151       12.789       14.299      229.540      163.556      204.453        0.077        0.030       30.306       11.176        0.136      340.045       13.796      860.662
10/11/2013  22:11:00      -57.954       -1.833       -5.947       18.336       22.121       14.566      336.204      489.340      212.178        0.222        0.052       57.983       11.850        0.042      340.187       14.033      860.653
10/11/2013  22:12:00      -71.808       55.175      -15.829       16.969       38.638       11.636      287.958     1492.880      135.389        0.518        0.096       90.557       13.912        0.024      340.059       13.818      860.659
10/11/2013  22:13:00       29.972       57.727        5.105       42.740       17.052       21.689     1826.666      290.762      470.410        0.342        0.129       65.044       22.601        0.121      339.936       13.612      860.651
10/11/2013  22:14:00       31.389       72.881       -8.690       29.031       27.762       16.375      842.784      770.739      268.145        0.413        0.094       79.353       15.338        0.037      339.849       13.464      860.642
10/11/2013  22:15:00      -65.289       66.321      -17.470       36.927       43.419       16.251     1363.599     1885.241      264.101        0.624        0.176       93.066        8.048        0.007      339.862       13.486      860.652
10/11/2013  22:16:00     -115.280        1.819      -12.234       41.745       16.516       11.736     1742.653      272.762      137.731        0.780        0.108      115.294       15.868        0.019      339.541       12.945      860.666
10/11/2013  22:17:00      -67.255       33.061       -8.233       17.009       22.353       13.271      289.301      499.636      176.121        0.332        0.048       74.942        8.158        0.012      339.795       13.372      860.656
10/11/2013  22:18:00      -41.319       43.808       -6.559       15.408       15.409        9.338      237.417      237.431       87.198        0.212        0.028       60.220        6.406        0.011      339.925       13.593      860.641
10/11/2013  22:19:00      -86.341       25.755      -15.557       27.598       24.879       21.331      761.624      618.974      455.022        0.510        0.092       90.101       18.807        0.044      339.807       13.395      860.633
10/11/2013  22:20:00      -67.568       44.497      -12.224       31.741       26.531       13.731     1007.470      703.899      188.532        0.430        0.095       80.903       11.275        0.019      339.789       13.365      860.635
10/11/2013  22:21:00      -15.822      118.316      -13.798       18.308       36.591       11.828      335.197     1338.929      139.893        0.813        0.091      119.369       14.466        0.015      340.022       13.756      860.614
10/11/2013  22:22:00      -62.648       64.000       -9.619       31.087       54.653       25.468      966.433     2986.994      648.616        0.636        0.230       89.558       15.799        0.031      339.878       13.513      860.608
10/11/2013  22:23:00     -114.769      -13.883      -15.213       30.642       24.815       13.732      938.934      615.760      188.556        0.767        0.087      115.606       11.791        0.010      339.640       13.112      860.610
10/11/2013  22:24:00      -75.959      -11.284       -7.954       17.597       22.762       11.488      309.651      518.110      131.967        0.346        0.048       76.793        4.245        0.003      339.639       13.111      860.604
10/11/2013  22:25:00      -91.635       -8.666      -11.360       22.525       19.237       10.678      507.395      370.046      114.028        0.480        0.050       92.044       11.676        0.016      339.595       13.037      860.602
10/11/2013  22:26:00      -64.998      -22.701       -4.777       18.286       17.338       10.572      334.378      300.605      111.757        0.275        0.037       68.848        8.800        0.016      339.533       12.931      860.593
10/11/2013  22:27:00      -74.843       -9.763       -7.244       47.173       14.896       12.259     2225.298      221.898      150.288        0.417        0.130       75.477       19.386        0.066      339.498       12.872      860.586
10/11/2013  22:28:00     -124.308       14.088      -14.365       22.337       25.733       12.600      498.920      662.194      158.766        0.859        0.066      125.103       10.834        0.007      339.727       13.258      860.588
10/11/2013  22:29:00     -127.237      -42.020       -6.647       33.119       26.558       14.247     1096.875      705.347      202.969        1.000        0.100      133.997        6.714        0.003      339.486       12.851      860.582
10/11/2013  22:30:00      -99.429      -32.483       -9.789       22.633       21.632       10.037      512.232      467.929      100.743        0.606        0.054      104.601        9.067        0.008      339.297       12.534      860.569
10/11/2013  22:31:00     -107.911       -6.509       -8.558       19.114       19.075       13.788      365.351      363.856      190.099        0.634        0.046      108.108       10.507        0.009      339.393       12.695      860.566
10/11/2013  22:32:00      -85.368       28.579      -11.472       25.541       16.734       15.120      652.355      280.036      228.603        0.470        0.058       90.025        9.771        0.012      339.454       12.798      860.577
10/11/2013  22:33:00      -90.373       16.202       -8.470       12.610       16.065       10.370      159.019      258.084      107.537        0.451        0.026       91.814        7.498        0.007      339.629       13.094      860.583
10/11/2013  22:34:00      -47.226       22.799       -2.897       17.538       26.601       14.742      307.571      707.633      217.336        0.200        0.062       52.441        6.726        0.016      339.536       12.936      860.603
10/11/2013  22:35:00      -95.028      -25.003      -11.024       21.228       29.717       15.062      450.608      883.118      226.868        0.567        0.078       98.262        7.506        0.006      339.430       12.758      860.618
10/11/2013  22:36:00     -140.829      -32.099      -11.423       22.975       29.544       13.252      527.847      872.875      175.613        1.128        0.079      144.441        5.091        0.001      339.234       12.428      860.629
10/11/2013  22:37:00     -100.460        8.337       -5.789       19.434       11.582        8.192      377.667      134.146       67.106        0.539        0.029      100.805        8.025        0.006      339.303       12.546      860.640
10/11/2013  22:38:00     -103.278       47.283      -12.413       21.718       27.830       19.700      471.663      774.516      388.089        0.734        0.082      113.587       13.731        0.015      339.427       12.753      860.655
10/11/2013  22:39:00      -95.208      -18.425       -5.254       25.061       25.776       15.849      628.063      664.397      251.190        0.549        0.077       96.975       14.488        0.022      339.350       12.622      860.670
10/11/2013  22:40:00     -124.070      -35.109       -6.515       43.151       28.434       18.748     1862.049      808.473      351.482        0.984        0.151      128.942       16.342        0.016      339.171       12.322      860.688
10/11/2013  22:41:00     -112.976      -34.809      -10.173       45.649       31.052       21.478     2083.821      964.206      461.317        0.879        0.175      118.217       17.634        0.022      339.095       12.194      860.715
10/11/2013  22:42:00     -109.063      -13.461      -10.108       21.665       25.061       14.655      469.373      628.044      214.779        0.674        0.066      109.891       11.422        0.011      339.073       12.157      860.717
10/11/2013  22:43:00     -138.676       -2.894      -12.319       39.298       43.768       32.491     1544.316     1915.655     1055.663        1.195        0.226      138.706       27.479        0.039      339.092       12.188      860.719
10/11/2013  22:44:00      -79.172       11.135        5.495       35.037       30.278       23.901     1227.590      916.730      571.266        0.457        0.136       79.951       13.985        0.031      339.041       12.103      860.715
10/11/2013  22:45:00     -113.700      -10.027      -23.491       33.897       37.626       19.353     1148.974     1415.701      374.532        0.826        0.147      114.141       20.457        0.032      339.092       12.187      860.717
10/11/2013  22:46:00     -154.584      -51.230      -11.278       47.584       54.403       34.518     2264.265     2959.726     1191.516        1.653        0.321      162.852       23.754        0.021      338.942       11.936      860.737
10/11/2013  22:47:00     -220.483        3.827      -21.943       85.303       56.691       44.920     7276.610     3213.874     2017.774        3.081        0.625      220.517       41.653        0.036      338.990       12.015      860.746
10/11/2013  22:48:00     -159.366       -7.641       -9.716       69.012       89.338       41.540     4762.690     7981.352     1725.602        2.001        0.723      159.549       41.473        0.068      339.018       12.064      860.736
10/11/2013  22:49:00     -155.750      -51.554      -14.331       54.146       49.559       26.305     2931.841     2456.121      691.972        1.660        0.304      164.060       26.357        0.026      338.968       11.980      860.749
10/11/2013  22:50:00     -148.934      -46.164      -10.043       59.774       53.569       33.041     3572.876     2869.626     1091.696        1.597        0.377      155.925       20.790        0.018      339.089       12.183      860.768
10/11/2013  22:51:00     -148.984        7.961      -13.950       50.455       35.620       23.473     2545.720     1268.785      550.980        1.341        0.218      149.196       19.421        0.017      339.135       12.260      860.752
10/11/2013  22:52:00     -156.914      -21.531      -11.094       60.867       43.001       21.654     3704.848     1849.092      468.878        1.561        0.301      158.384       15.233        0.009      339.059       12.133      860.760
10/11/2013  22:53:00     -180.519        3.787      -16.385       51.286       45.070       32.059     2630.271     2031.336     1027.786        1.928        0.284      180.559       30.866        0.029      339.301       12.538      860.753
10/11/2013  22:54:00     -185.595       55.400      -24.707       44.387       72.687       27.222     1970.162     5283.376      741.024        2.306        0.400      193.687       19.450        0.010      339.589       13.025      860.740
10/11/2013  22:55:00     -226.323       -7.023      -12.264       83.668       73.057       41.996     7000.327     5337.382     1763.694        3.276        0.705      226.431       44.302        0.038      339.628       13.088      860.769
10/11/2013  22:56:00     -220.885      -28.793      -16.916       76.878       73.075       29.939     5910.280     5340.026      896.352        3.102        0.607      222.754       26.103        0.014      339.463       12.810      860.785
10/11/2013  22:57:00     -231.189      -10.517      -24.616       60.592       60.737       37.307     3671.336     3689.009     1391.801        3.146        0.438      231.429       36.279        0.025      339.583       13.013      860.802
10/11/2013  22:58:00     -291.439       12.730      -27.909      124.014       85.882       34.608    15379.555     7375.649     1197.725        5.491        1.198      291.717       42.010        0.021      339.565       12.982      860.805
10/11/2013  22:59:00     -179.813      -24.078      -12.501       71.622       69.617       30.582     5129.660     4846.555      935.255        2.199        0.546      181.418       29.956        0.027      339.827       13.425      860.807
10/11/2013  23:00:00     -220.665      -79.366       -5.139       81.615       81.815       46.244     6661.044     6693.656     2138.529        3.525        0.775      234.504       28.312        0.015      339.802       13.382      860.832
10/11/2013  23:01:00     -265.820      -61.603      -24.534      101.542       71.345       47.320    10310.879     5090.129     2239.211        4.635        0.882      272.865       48.755        0.032      339.977       13.678      860.825
10/11/2013  23:02:00     -164.096      -31.528       -3.990       91.974       51.460       34.857     8459.267     2648.094     1215.013        2.013        0.616      167.097       38.749        0.054      339.979       13.681      860.830
10/11/2013  23:03:00     -124.073      -51.154        5.581       63.996       57.779       39.174     4095.444     3338.377     1534.641        1.350        0.448      134.205       34.978        0.068      339.805       13.390      860.836
10/11/2013  23:04:00     -128.905       35.558       -9.647       45.470       37.637       19.967     2067.562     1416.517      398.676        1.093        0.194      133.719        9.809        0.005      339.637       13.108      860.852
10/11/2013  23:05:00     -130.533      -16.983       -6.773       45.299       48.234       29.955     2051.962     2326.524      897.320        1.132        0.264      131.633       22.279        0.029      339.551       12.961      860.879
10/11/2013  23:06:00     -154.055       13.681      -12.323       72.272       44.863       31.545     5223.197     2012.731      995.099        1.615        0.412      154.661       35.931        0.054      339.599       13.041      860.876
10/11/2013  23:07:00     -147.383        1.389       -8.165       71.411       80.790       30.970     5099.540     6527.035      959.145        1.719        0.629      147.389       29.716        0.041      339.538       12.938      860.881
10/11/2013  23:08:00     -149.263       75.029      -14.915       41.555       46.321       24.231     1726.783     2145.639      587.124        1.629        0.223      167.059       24.548        0.022      339.548       12.955      860.905
10/11/2013  23:09:00     -111.991       -1.307      -14.028       35.024       39.536       18.999     1226.691     1563.119      360.978        0.795        0.158      111.999       11.460        0.010      339.453       12.795      860.927
10/11/2013  23:10:00      -82.201       -4.693      -15.021       25.000       25.336       21.765      624.975      641.927      473.734        0.437        0.087       82.335       10.616        0.017      339.390       12.691      860.927
10/11/2013  23:11:00      -76.930      -14.454      -12.999       36.940       42.659       28.614     1364.528     1819.831      818.757        0.515        0.200       78.276       22.878        0.085      339.355       12.631      860.932
10/11/2013  23:12:00      -49.888      -22.590        5.867       37.307       45.099       21.548     1391.837     2033.903      464.297        0.346        0.195       54.764       20.024        0.134      339.356       12.633      860.929
10/11/2013  23:13:00      -43.891       -6.290        0.786       40.736       32.063       21.225     1659.404     1028.057      450.519        0.255        0.157       44.339       22.333        0.254      339.298       12.537      860.927
10/11/2013  23:14:00     -132.959       27.500      -16.298       33.715       33.266       18.671     1136.724     1106.642      348.621        1.065        0.130      135.773       16.079        0.014      339.361       12.642      860.921
10/11/2013  23:15:00     -112.677       34.136       -7.398       25.930       26.239       17.942      672.344      688.483      321.907        0.780        0.084      117.735       16.048        0.019      339.363       12.644      860.921
10/11/2013  23:16:00     -138.100      -44.278       -6.900       37.003       47.537       22.594     1369.198     2259.781      510.483        1.261        0.207      145.025       17.784        0.015      339.421       12.742      860.942
10/11/2013  23:17:00     -101.456     -124.698       -1.883       90.436       75.345       53.629     8178.695     5676.895     2876.079        2.129        0.837      160.757       46.663        0.084      339.598       13.038      860.936
10/11/2013  23:18:00     -184.685      -58.029      -27.039       77.616       85.190       30.252     6024.202     7257.262      915.189        2.620        0.710      193.587       26.698        0.019      339.698       13.206      860.902
10/11/2013  23:19:00     -157.786      -19.861      -16.060       41.563       33.196       23.143     1727.509     1101.959      535.607        1.446        0.168      159.031       22.880        0.021      339.203       12.376      860.923
10/11/2013  23:20:00     -135.259      -30.016        1.339       60.896       40.392       28.789     3708.321     1631.479      828.814        1.268        0.308      138.550       31.621        0.052      339.132       12.257      860.929
10/11/2013  23:21:00      -97.350      -85.840       12.498      118.420      102.664       59.810    14023.225    10539.949     3577.257        2.257        1.407      129.790       66.860        0.265      339.698       13.208      860.902
10/11/2013  23:22:00     -256.556      -36.872      -12.932      102.483       87.752       52.522    10502.682     7700.406     2758.540        4.415        1.048      259.192       56.885        0.048      339.723       13.249      860.897
10/11/2013  23:23:00     -259.181      -22.997      -12.757       68.039       61.818       41.751     4629.336     3821.460     1743.156        3.903        0.510      260.200       34.375        0.017      339.756       13.303      860.886
10/11/2013  23:24:00     -135.723      -28.850       -5.517       55.124       39.165       28.007     3038.613     1533.899      784.417        1.232        0.268      138.755       26.284        0.036      339.688       13.194      860.893
10/11/2013  23:25:00     -185.391      -60.102      -11.104       76.807       70.546       39.764     5899.287     4976.697     1581.174        2.528        0.623      194.890       37.453        0.037      339.782       13.349      860.885
10/11/2013  23:26:00     -167.238      -56.652       -3.445       77.577       63.205       34.993     6018.263     3994.840     1224.488        2.121        0.562      176.573       30.279        0.029      339.789       13.361      860.872
10/11/2013  23:27:00     -155.037      -23.434      -11.734       36.081       56.001       24.372     1301.852     3136.154      593.989        1.488        0.252      156.798       18.268        0.014      339.832       13.435      860.859
10/11/2013  23:28:00      -97.533       26.511      -15.133       42.807       46.877       18.320     1832.445     2197.430      335.626        0.740        0.218      101.072       10.189        0.010      339.570       12.994      860.856
10/11/2013  23:29:00     -121.883       66.147      -17.081       33.353       26.149       18.704     1112.428      683.793      349.827        1.083        0.107      138.676       15.448        0.012      339.426       12.750      860.863
10/11/2013  23:30:00     -132.227       34.458      -13.903       41.873       30.177       19.528     1753.355      910.648      381.329        1.095        0.152      136.643       16.980        0.015      339.402       12.710      860.868
10/11/2013  23:31:00      -73.871        6.963      -13.121       29.849       23.832       27.101      890.949      567.947      734.453        0.394        0.110       74.198       13.917        0.035      339.337       12.601      860.854
10/11/2013  23:32:00      -54.389        8.432      -11.407       20.602       26.992       18.714      424.438      728.559      350.226        0.233        0.075       55.039        8.972        0.027      339.335       12.600      860.833
10/11/2013  23:33:00      -82.954      -26.802      -10.107       13.564       18.341       12.489      183.988      336.390      155.971        0.419        0.034       87.176        5.569        0.004      339.338       12.603      860.834
10/11/2013  23:34:00     -109.524      -44.191       -6.166       16.651       27.062       11.486      277.268      732.351      131.929        0.756        0.057      118.103        3.863        0.001      339.244       12.445      860.839
10/11/2013  23:35:00      -85.295      -26.087       -0.891       39.429       33.159       16.064     1554.675     1099.490      258.052        0.543        0.146       89.195       16.391        0.034      339.137       12.264      860.829
10/11/2013  23:36:00      -40.876      -21.694       -3.509       13.628       17.373        6.465      185.725      301.806       41.798        0.134        0.026       46.276        4.659        0.010      339.294       12.529      860.821
10/11/2013  23:37:00      -30.317      -80.846       -5.910       37.531       44.505       20.060     1408.590     1980.699      402.410        0.564        0.190       86.343       11.969        0.019      339.857       13.478      860.817
10/11/2013  23:38:00      -95.147      -47.212       -1.289       55.711       54.985       28.143     3103.739     3023.313      792.001        0.910        0.346      106.217       30.827        0.084      339.746       13.291      860.826
10/11/2013  23:39:00      -63.498      -11.131       -8.388       22.968       34.623       20.401      527.536     1198.759      416.199        0.318        0.107       64.466       10.230        0.025      339.454       12.799      860.832
10/11/2013  23:40:00      -33.961      -35.505       10.595       42.858       24.225       20.419     1836.803      586.860      416.919        0.268        0.142       49.132       23.257        0.224      339.332       12.592      860.834
10/11/2013  23:41:00     -122.317      -66.697       -1.995       34.599       24.712       15.318     1197.093      610.690      234.630        1.073        0.102      139.320       14.096        0.010      339.203       12.375      860.834
10/11/2013  23:42:00     -106.567      -44.625        1.703       50.004       31.561       23.895     2500.444      996.111      570.973        0.871        0.203      115.533       22.412        0.038      339.439       12.773      860.832
10/11/2013  23:43:00     -108.270      -18.556       -1.202       49.983       27.705       23.708     2498.263      767.584      562.049        0.795        0.191      109.848       21.050        0.037      339.640       13.112      860.807
10/11/2013  23:44:00      -49.585      -35.515        2.789       46.510       28.330       18.797     2163.204      802.576      353.330        0.352        0.166       60.992       21.935        0.129      339.607       13.055      860.784
10/11/2013  23:45:00     -108.590      -88.823       -6.750       53.002       38.466       25.789     2809.208     1479.611      665.059        1.234        0.248      140.290       28.884        0.042      339.608       13.058      860.769
10/11/2013  23:46:00     -155.118      -86.895        6.298       46.676       44.671       26.205     2178.654     1995.521      686.704        1.826        0.243      177.798       24.142        0.018      339.563       12.982      860.747
10/11/2013  23:47:00     -206.957     -138.768       -6.222       45.559       53.350       32.130     2075.659     2846.271     1032.315        3.404        0.298      249.175       26.888        0.012      339.666       13.151      860.737
10/11/2013  23:48:00     -188.323      -80.688        1.155       60.416       46.234       29.054     3650.068     2137.598      844.135        2.430        0.332      204.881       31.418        0.024      339.654       13.134      860.733
10/11/2013  23:49:00     -117.226      -42.373        3.193       44.436       32.983       22.289     1974.600     1087.850      496.818        0.955        0.178      124.650       23.751        0.036      339.627       13.090      860.736
10/11/2013  23:50:00      -58.860      -55.969        0.192       24.793       27.266       16.783      614.700      743.418      281.676        0.412        0.082       81.222       11.860        0.021      339.598       13.041      860.739
10/11/2013  23:51:00      -40.935      -77.909        6.566       42.755       51.869       22.777     1827.958     2690.361      518.779        0.641        0.252       88.009       21.898        0.062      339.591       13.029      860.731
10/11/2013  23:52:00     -103.673      -89.669       -6.067       39.154       29.478       22.469     1533.066      868.945      504.834        1.087        0.145      137.071       12.820        0.009      339.545       12.952      860.723
10/11/2013  23:53:00     -104.053      -54.631        0.185       35.600       38.133       24.608     1267.367     1454.120      605.568        0.857        0.166      117.523       20.761        0.031      339.496       12.869      860.715
10/11/2013  23:54:00     -101.658      -33.128        2.978       49.694       45.817       26.261     2469.541     2099.207      689.648        0.835        0.263      106.919       26.071        0.059      339.348       12.620      860.723
10/11/2013  23:55:00      -87.693      -78.082       -0.256       62.419       47.052       26.418     3896.127     2213.886      697.911        1.030        0.340      117.417       28.576        0.059      339.391       12.693      860.727
10/11/2013  23:56:00      -95.676      -92.431        8.447       85.707       63.700       40.081     7345.626     4057.685     1606.506        1.539        0.650      133.031       44.823        0.114      339.326       12.582      860.726
10/11/2013  23:57:00      -89.243      -61.353        7.563       60.300       48.873       33.005     3636.139     2388.538     1089.336        0.945        0.356      108.298       35.206        0.106      339.260       12.471      860.723
10/11/2013  23:58:00     -132.422      -81.550       -3.763       63.207       42.184       31.590     3995.077     1779.507      997.910        1.548        0.339      155.518       22.301        0.021      339.247       12.447      860.719
10/11/2013  23:59:00     -157.111      -81.964       -4.850       40.526       31.720       26.569     1642.380     1006.183      705.912        1.739        0.168      177.206       23.441        0.017      339.196       12.363      860.714
